Time,TemperatureF,DewpointF,PressureIn,WindDirection,WindDirectionDegrees,WindSpeedMPH,WindSpeedGustMPH,Humidity,HourlyPrecipIn,Conditions,Clouds,dailyrainin,SoftwareType,DateUTC
2013-02-28 00:00:00,32.0,30.5,28.97,North,0,2.0,4.0,94,0.00,,,0.00,VWS V14.01,2013-02-28 05:00:00,
2013-02-28 00:01:00,31.8,30.3,28.97,North,0,3.6,3.6,94,0.00,,,0.00,VWS V14.01,2013-02-28 05:01:00,
2013-02-28 00:02:00,31.8,30.3,28.97,NNE,22,2.9,3.6,94,0.00,,,0.00,VWS V14.01,2013-02-28 05:02:00,
2013-02-28 00:03:00,31.8,30.3,28.97,NNE,22,2.7,3.4,94,0.00,,,0.00,VWS V14.01,2013-02-28 05:03:00,
2013-02-28 00:04:00,31.8,30.3,28.97,NNE,22,2.0,3.4,94,0.00,,,0.00,VWS V14.01,2013-02-28 05:04:00,
2013-02-28 00:05:00,31.8,30.3,28.97,NNE,22,0.0,2.5,94,0.00,,,0.00,VWS V14.01,2013-02-28 05:05:00,
2013-02-28 00:06:00,31.8,30.3,28.97,ENE,68,2.0,2.0,94,0.00,,,0.00,VWS V14.01,2013-02-28 05:06:00,
2013-02-28 00:07:00,31.8,30.3,28.97,NNW,338,0.9,4.0,94,0.00,,,0.00,VWS V14.01,2013-02-28 05:07:00,
2013-02-28 00:08:00,31.8,30.3,28.97,NNW,338,0.9,4.0,94,0.00,,,0.00,VWS V14.01,2013-02-28 05:08:00,
2013-02-28 00:09:00,31.8,30.3,28.97,NNE,22,2.7,2.7,94,0.00,,,0.00,VWS V14.01,2013-02-28 05:09:00,
2013-02-28 00:10:00,31.8,30.3,28.97,NE,45,2.5,2.7,94,0.00,,,0.00,VWS V14.01,2013-02-28 05:10:00,
2013-02-28 00:11:00,31.8,30.3,28.97,North,0,2.5,4.0,94,0.00,,,0.00,VWS V14.01,2013-02-28 05:11:00,
2013-02-28 00:12:00,31.8,30.3,28.97,North,0,4.9,4.9,94,0.00,,,0.00,VWS V14.01,2013-02-28 05:12:00,
2013-02-28 00:13:00,31.8,30.3,28.97,NNW,338,5.4,5.4,94,0.00,,,0.00,VWS V14.01,2013-02-28 05:13:00,
2013-02-28 00:14:00,31.8,30.3,28.97,North,0,2.5,5.4,94,0.00,,,0.00,VWS V14.01,2013-02-28 05:14:00,
2013-02-28 00:15:00,31.8,30.3,28.97,NNW,338,3.6,3.8,94,0.00,,,0.00,VWS V14.01,2013-02-28 05:15:00,
2013-02-28 00:16:00,31.8,30.3,28.97,NNE,22,3.4,3.8,94,0.00,,,0.00,VWS V14.01,2013-02-28 05:16:00,
2013-02-28 00:17:00,31.8,30.3,28.97,NNE,22,2.7,2.9,94,0.00,,,0.00,VWS V14.01,2013-02-28 05:17:00,
2013-02-28 00:18:00,31.8,30.3,28.97,NW,315,3.6,3.6,94,0.00,,,0.00,VWS V14.01,2013-02-28 05:18:00,
2013-02-28 00:19:00,31.8,30.5,28.97,NNE,22,3.4,3.6,95,0.00,,,0.00,VWS V14.01,2013-02-28 05:19:00,
2013-02-28 00:20:00,31.5,30.5,28.97,NE,45,2.5,2.5,96,0.00,,,0.00,VWS V14.01,2013-02-28 05:20:00,
2013-02-28 00:21:00,31.6,30.4,28.97,NNW,338,2.2,4.0,95,0.00,,,0.00,VWS V14.01,2013-02-28 05:21:00,
2013-02-28 00:22:00,31.6,30.4,28.94,NNW,338,2.5,2.5,95,0.00,,,0.00,VWS V14.01,2013-02-28 05:22:00,
2013-02-28 00:23:00,31.6,30.4,28.94,NE,45,2.5,2.5,95,0.00,,,0.00,VWS V14.01,2013-02-28 05:23:00,
2013-02-28 00:24:00,31.6,30.4,28.94,NNE,22,2.7,2.9,95,0.00,,,0.00,VWS V14.01,2013-02-28 05:24:00,
2013-02-28 00:25:00,31.8,30.5,28.94,North,0,2.0,3.8,95,0.00,,,0.00,VWS V14.01,2013-02-28 05:25:00,
2013-02-28 00:26:00,31.6,30.4,28.94,North,0,2.0,2.7,95,0.00,,,0.00,VWS V14.01,2013-02-28 05:26:00,
2013-02-28 00:27:00,31.6,30.4,28.94,NNE,22,2.2,2.2,95,0.00,,,0.00,VWS V14.01,2013-02-28 05:27:00,
2013-02-28 00:28:00,31.6,30.4,28.94,WNW,292,3.1,3.1,95,0.00,,,0.00,VWS V14.01,2013-02-28 05:28:00,
2013-02-28 00:29:00,31.6,30.4,28.94,NNE,22,2.5,4.3,95,0.00,,,0.00,VWS V14.01,2013-02-28 05:29:00,
2013-02-28 00:30:00,31.6,30.4,28.94,North,0,0.0,4.0,95,0.00,,,0.00,VWS V14.01,2013-02-28 05:30:00,
2013-02-28 00:31:00,31.6,30.4,28.94,NE,45,2.5,4.3,95,0.00,,,0.00,VWS V14.01,2013-02-28 05:31:00,
2013-02-28 00:32:00,31.6,30.4,28.94,NNW,338,3.4,3.4,95,0.00,,,0.00,VWS V14.01,2013-02-28 05:32:00,
2013-02-28 00:33:00,31.6,30.4,28.94,NNW,338,3.4,3.4,95,0.00,,,0.00,VWS V14.01,2013-02-28 05:33:00,
2013-02-28 00:34:00,31.6,30.4,28.94,NE,45,4.3,4.3,95,0.00,,,0.00,VWS V14.01,2013-02-28 05:34:00,
2013-02-28 00:35:00,31.5,30.7,28.97,North,0,2.7,3.8,97,0.00,,,0.00,VWS V14.01,2013-02-28 05:35:00,
2013-02-28 00:36:00,31.6,30.4,28.94,NNE,22,2.5,2.9,95,0.00,,,0.00,VWS V14.01,2013-02-28 05:36:00,
2013-02-28 00:37:00,31.6,30.4,28.97,NNE,22,3.8,3.8,95,0.00,,,0.00,VWS V14.01,2013-02-28 05:37:00,
2013-02-28 00:38:00,31.6,30.4,28.97,NNE,22,1.3,3.8,95,0.00,,,0.00,VWS V14.01,2013-02-28 05:38:00,
2013-02-28 00:39:00,31.5,30.7,28.97,NNW,338,3.8,3.8,97,0.00,,,0.00,VWS V14.01,2013-02-28 05:39:00,
2013-02-28 00:40:00,31.5,30.7,28.97,NW,315,2.5,3.8,97,0.00,,,0.00,VWS V14.01,2013-02-28 05:40:00,
2013-02-28 00:41:00,31.5,30.7,28.97,NNE,22,2.5,4.0,97,0.00,,,0.00,VWS V14.01,2013-02-28 05:41:00,
2013-02-28 00:42:00,31.6,30.4,28.97,NNE,22,2.5,4.0,95,0.00,,,0.00,VWS V14.01,2013-02-28 05:42:00,
2013-02-28 00:43:00,31.6,30.4,28.97,NE,45,1.6,2.9,95,0.00,,,0.00,VWS V14.01,2013-02-28 05:43:00,
2013-02-28 00:44:00,31.5,30.7,28.97,NE,45,3.8,3.8,97,0.00,,,0.00,VWS V14.01,2013-02-28 05:44:00,
2013-02-28 00:45:00,31.5,30.7,28.97,NNW,338,2.7,4.0,97,0.00,,,0.00,VWS V14.01,2013-02-28 05:45:00,
2013-02-28 00:46:00,31.6,30.4,28.97,NNE,22,2.0,2.0,95,0.00,,,0.00,VWS V14.01,2013-02-28 05:46:00,
2013-02-28 00:47:00,31.6,30.4,28.97,NNE,22,2.0,2.7,95,0.00,,,0.00,VWS V14.01,2013-02-28 05:47:00,
2013-02-28 00:48:00,31.6,30.4,28.97,NNE,22,2.0,2.0,95,0.00,,,0.00,VWS V14.01,2013-02-28 05:48:00,
2013-02-28 00:49:00,31.5,30.7,28.97,WNW,292,8.1,8.1,97,0.00,,,0.00,VWS V14.01,2013-02-28 05:49:00,
2013-02-28 00:50:00,31.6,30.4,28.97,NNW,338,1.6,4.3,95,0.00,,,0.00,VWS V14.01,2013-02-28 05:50:00,
2013-02-28 00:51:00,31.6,30.4,28.97,NW,315,3.1,3.4,95,0.00,,,0.00,VWS V14.01,2013-02-28 05:51:00,
2013-02-28 00:52:00,31.6,30.4,28.97,NW,315,3.1,3.1,95,0.00,,,0.00,VWS V14.01,2013-02-28 05:52:00,
2013-02-28 00:53:00,31.6,30.4,28.97,NNE,22,1.6,3.1,95,0.00,,,0.00,VWS V14.01,2013-02-28 05:53:00,
2013-02-28 00:54:00,31.6,30.4,28.97,NNW,338,2.5,2.5,95,0.00,,,0.00,VWS V14.01,2013-02-28 05:54:00,
2013-02-28 00:55:00,31.5,30.2,28.97,North,0,1.3,3.6,95,0.00,,,0.00,VWS V14.01,2013-02-28 05:55:00,
2013-02-28 00:56:00,31.5,30.2,28.97,NNW,338,2.5,2.7,95,0.00,,,0.00,VWS V14.01,2013-02-28 05:56:00,
2013-02-28 00:57:00,31.5,30.2,28.97,NNE,22,2.0,2.7,95,0.00,,,0.00,VWS V14.01,2013-02-28 05:57:00,
2013-02-28 00:58:00,31.5,30.2,28.97,NNE,22,2.0,2.0,95,0.00,,,0.00,VWS V14.01,2013-02-28 05:58:00,
2013-02-28 00:59:00,31.5,30.2,28.97,NNW,338,2.0,2.7,95,0.00,,,0.00,VWS V14.01,2013-02-28 05:59:00,
2013-02-28 01:00:00,31.5,30.2,28.97,North,0,3.1,6.5,95,0.00,,,0.00,VWS V14.01,2013-02-28 06:00:00,
2013-02-28 01:01:00,31.5,30.2,28.97,NNW,338,2.0,3.1,95,0.00,,,0.00,VWS V14.01,2013-02-28 06:01:00,
2013-02-28 01:02:00,31.5,30.2,28.97,North,0,3.6,3.6,95,0.00,,,0.00,VWS V14.01,2013-02-28 06:02:00,
2013-02-28 01:03:00,31.5,30.2,28.97,NE,45,2.9,3.6,95,0.00,,,0.00,VWS V14.01,2013-02-28 06:03:00,
2013-02-28 01:04:00,31.5,30.2,28.97,NNE,22,1.3,1.3,95,0.00,,,0.00,VWS V14.01,2013-02-28 06:04:00,
2013-02-28 01:05:00,31.5,30.5,28.97,North,0,2.7,2.9,96,0.00,,,0.00,VWS V14.01,2013-02-28 06:05:00,
2013-02-28 01:06:00,31.5,30.5,28.97,NNE,22,2.7,3.8,96,0.00,,,0.00,VWS V14.01,2013-02-28 06:06:00,
2013-02-28 01:07:00,31.5,30.5,28.97,NE,45,2.5,3.4,96,0.00,,,0.00,VWS V14.01,2013-02-28 06:07:00,
2013-02-28 01:08:00,31.5,30.5,28.97,North,0,1.6,2.9,96,0.00,,,0.00,VWS V14.01,2013-02-28 06:08:00,
2013-02-28 01:09:00,31.5,30.5,28.97,North,0,3.1,3.8,96,0.00,,,0.00,VWS V14.01,2013-02-28 06:09:00,
2013-02-28 01:10:00,31.5,30.5,28.97,NNW,338,1.3,3.1,96,0.00,,,0.00,VWS V14.01,2013-02-28 06:10:00,
2013-02-28 01:11:00,31.5,30.5,28.97,North,0,2.7,3.8,96,0.00,,,0.00,VWS V14.01,2013-02-28 06:11:00,
2013-02-28 01:12:00,31.5,30.7,28.97,NNE,22,3.4,3.4,97,0.00,,,0.00,VWS V14.01,2013-02-28 06:12:00,
2013-02-28 01:13:00,31.5,30.5,28.97,North,0,3.1,7.2,96,0.00,,,0.00,VWS V14.01,2013-02-28 06:13:00,
2013-02-28 01:14:00,31.5,30.5,28.97,NNW,338,3.1,3.1,96,0.00,,,0.00,VWS V14.01,2013-02-28 06:14:00,
2013-02-28 01:15:00,31.5,30.5,28.97,NNE,22,3.1,3.8,96,0.00,,,0.00,VWS V14.01,2013-02-28 06:15:00,
2013-02-28 01:16:00,31.5,30.5,28.97,NNE,22,4.9,4.9,96,0.00,,,0.00,VWS V14.01,2013-02-28 06:16:00,
2013-02-28 01:17:00,31.5,30.5,28.97,NNE,22,4.9,4.9,96,0.00,,,0.00,VWS V14.01,2013-02-28 06:17:00,
2013-02-28 01:18:00,31.5,30.5,28.97,North,0,0.9,4.9,96,0.00,,,0.00,VWS V14.01,2013-02-28 06:18:00,
2013-02-28 01:19:00,31.5,30.5,28.97,North,0,0.9,4.9,96,0.00,,,0.00,VWS V14.01,2013-02-28 06:19:00,
2013-02-28 01:20:00,31.5,30.5,28.97,NE,45,2.5,2.5,96,0.00,,,0.00,VWS V14.01,2013-02-28 06:20:00,
2013-02-28 01:21:00,31.5,30.5,28.97,North,0,2.0,2.5,96,0.00,,,0.00,VWS V14.01,2013-02-28 06:21:00,
2013-02-28 01:22:00,31.5,30.5,28.97,North,0,2.7,4.0,96,0.00,,,0.00,VWS V14.01,2013-02-28 06:22:00,
2013-02-28 01:23:00,31.5,30.5,28.97,SSE,158,3.1,3.1,96,0.00,,,0.00,VWS V14.01,2013-02-28 06:23:00,
2013-02-28 01:24:00,31.5,30.5,28.97,NE,45,3.4,5.6,96,0.00,,,0.00,VWS V14.01,2013-02-28 06:24:00,
2013-02-28 01:25:00,31.5,30.5,28.97,NNE,22,1.6,5.6,96,0.00,,,0.00,VWS V14.01,2013-02-28 06:25:00,
2013-02-28 01:26:00,31.5,30.5,28.97,ENE,68,2.7,2.9,96,0.00,,,0.00,VWS V14.01,2013-02-28 06:26:00,
2013-02-28 01:27:00,31.5,30.5,28.97,NNE,22,1.6,4.3,96,0.00,,,0.00,VWS V14.01,2013-02-28 06:27:00,
2013-02-28 01:28:00,31.5,30.5,28.97,ENE,68,0.9,3.6,96,0.00,,,0.00,VWS V14.01,2013-02-28 06:28:00,
2013-02-28 01:29:00,31.5,30.5,28.97,NW,315,2.5,3.6,96,0.00,,,0.00,VWS V14.01,2013-02-28 06:29:00,
2013-02-28 01:30:00,31.5,30.5,28.97,NNW,338,3.1,4.0,96,0.00,,,0.00,VWS V14.01,2013-02-28 06:30:00,
2013-02-28 01:31:00,31.5,30.5,28.97,North,0,4.3,4.3,96,0.00,,,0.00,VWS V14.01,2013-02-28 06:31:00,
2013-02-28 01:32:00,31.5,30.5,28.97,NNE,22,1.6,4.3,96,0.00,,,0.00,VWS V14.01,2013-02-28 06:32:00,
2013-02-28 01:33:00,31.3,30.5,28.97,NE,45,2.2,3.6,97,0.00,,,0.00,VWS V14.01,2013-02-28 06:33:00,
2013-02-28 01:34:00,31.3,30.5,28.97,NNE,22,2.7,3.6,97,0.00,,,0.00,VWS V14.01,2013-02-28 06:34:00,
2013-02-28 01:35:00,31.5,30.7,28.97,North,0,2.7,3.8,97,0.00,,,0.00,VWS V14.01,2013-02-28 06:35:00,
2013-02-28 01:36:00,31.5,30.7,28.97,NW,315,2.9,3.1,97,0.00,,,0.00,VWS V14.01,2013-02-28 06:36:00,
2013-02-28 01:37:00,31.5,30.7,28.97,NNE,22,1.3,2.9,97,0.00,,,0.00,VWS V14.01,2013-02-28 06:37:00,
2013-02-28 01:38:00,31.3,30.5,28.97,NW,315,2.0,2.5,97,0.00,,,0.00,VWS V14.01,2013-02-28 06:38:00,
2013-02-28 01:39:00,31.5,30.7,28.97,NNW,338,3.8,3.8,97,0.00,,,0.00,VWS V14.01,2013-02-28 06:39:00,
2013-02-28 01:40:00,31.5,30.7,28.97,NW,315,2.5,3.8,97,0.00,,,0.00,VWS V14.01,2013-02-28 06:40:00,
2013-02-28 01:41:00,31.5,30.7,28.97,NNE,22,2.5,4.0,97,0.00,,,0.00,VWS V14.01,2013-02-28 06:41:00,
2013-02-28 01:42:00,31.5,30.7,28.97,NNE,22,3.4,4.9,97,0.00,,,0.00,VWS V14.01,2013-02-28 06:42:00,
2013-02-28 01:43:00,31.5,30.7,28.97,NNE,22,1.6,2.2,97,0.00,,,0.00,VWS V14.01,2013-02-28 06:43:00,
2013-02-28 01:44:00,31.5,30.7,28.97,NE,45,3.8,3.8,97,0.00,,,0.00,VWS V14.01,2013-02-28 06:44:00,
2013-02-28 01:45:00,31.5,30.7,28.97,NNW,338,2.7,4.0,97,0.00,,,0.00,VWS V14.01,2013-02-28 06:45:00,
2013-02-28 01:46:00,31.5,30.7,28.97,NNE,22,2.7,3.1,97,0.00,,,0.00,VWS V14.01,2013-02-28 06:46:00,
2013-02-28 01:47:00,31.5,30.7,28.97,NW,315,3.4,4.0,97,0.00,,,0.00,VWS V14.01,2013-02-28 06:47:00,
2013-02-28 01:48:00,31.5,30.7,28.97,NW,315,1.6,2.7,97,0.00,,,0.00,VWS V14.01,2013-02-28 06:48:00,
2013-02-28 01:49:00,31.5,30.7,28.97,WNW,292,8.1,8.1,97,0.00,,,0.00,VWS V14.01,2013-02-28 06:49:00,
2013-02-28 01:50:00,31.5,30.7,28.97,ENE,68,2.7,8.1,97,0.00,,,0.00,VWS V14.01,2013-02-28 06:50:00,
2013-02-28 01:51:00,31.3,30.5,28.97,NNE,22,3.4,4.0,97,0.00,,,0.00,VWS V14.01,2013-02-28 06:51:00,
2013-02-28 01:52:00,31.5,30.7,28.97,North,0,2.0,2.7,97,0.00,,,0.00,VWS V14.01,2013-02-28 06:52:00,
2013-02-28 01:53:00,31.5,30.7,28.97,North,0,1.6,1.6,97,0.00,,,0.00,VWS V14.01,2013-02-28 06:53:00,
2013-02-28 01:54:00,31.5,30.7,28.97,North,0,1.6,1.6,97,0.00,,,0.00,VWS V14.01,2013-02-28 06:54:00,
2013-02-28 01:55:00,31.5,30.7,28.97,NNW,338,2.0,3.6,97,0.00,,,0.00,VWS V14.01,2013-02-28 06:55:00,
2013-02-28 01:56:00,31.5,30.7,28.97,NNW,338,2.0,2.0,97,0.00,,,0.00,VWS V14.01,2013-02-28 06:56:00,
2013-02-28 01:57:00,31.5,30.7,28.97,NE,45,3.1,3.1,97,0.00,,,0.00,VWS V14.01,2013-02-28 06:57:00,
2013-02-28 01:58:00,31.5,30.7,28.97,North,0,2.0,3.1,97,0.00,,,0.00,VWS V14.01,2013-02-28 06:58:00,
2013-02-28 01:59:00,31.5,30.7,28.97,NNE,22,4.7,4.7,97,0.00,,,0.00,VWS V14.01,2013-02-28 06:59:00,
2013-02-28 02:00:00,31.5,30.7,28.97,NNE,22,2.0,4.7,97,0.00,,,0.00,VWS V14.01,2013-02-28 07:00:00,
2013-02-28 02:01:00,31.3,30.5,28.97,NNE,22,3.4,4.5,97,0.00,,,0.00,VWS V14.01,2013-02-28 07:01:00,
2013-02-28 02:02:00,31.5,30.7,28.97,NNW,338,2.9,2.9,97,0.00,,,0.00,VWS V14.01,2013-02-28 07:02:00,
2013-02-28 02:03:00,31.5,30.7,28.97,North,0,2.5,2.5,97,0.00,,,0.00,VWS V14.01,2013-02-28 07:03:00,
2013-02-28 02:04:00,31.5,30.7,28.97,NNE,22,0.0,2.5,97,0.00,,,0.00,VWS V14.01,2013-02-28 07:04:00,
2013-02-28 02:05:00,31.5,30.7,28.97,North,0,3.1,3.6,97,0.00,,,0.00,VWS V14.01,2013-02-28 07:05:00,
2013-02-28 02:06:00,31.5,30.7,28.97,NNE,22,2.5,5.8,97,0.00,,,0.00,VWS V14.01,2013-02-28 07:06:00,
2013-02-28 02:07:00,31.5,30.7,28.97,NNE,22,5.4,5.4,97,0.00,,,0.00,VWS V14.01,2013-02-28 07:07:00,
2013-02-28 02:08:00,31.5,30.7,28.97,NW,315,2.0,3.4,97,0.00,,,0.00,VWS V14.01,2013-02-28 07:08:00,
2013-02-28 02:09:00,31.5,30.7,28.97,NNE,22,3.4,3.4,97,0.00,,,0.00,VWS V14.01,2013-02-28 07:09:00,
2013-02-28 02:10:00,31.5,30.7,28.97,North,0,2.7,4.0,97,0.00,,,0.00,VWS V14.01,2013-02-28 07:10:00,
2013-02-28 02:11:00,31.5,30.7,28.97,NNE,22,3.1,3.1,97,0.00,,,0.00,VWS V14.01,2013-02-28 07:11:00,
2013-02-28 02:12:00,31.5,30.7,28.97,NNE,22,3.4,3.4,97,0.00,,,0.00,VWS V14.01,2013-02-28 07:12:00,
2013-02-28 02:13:00,31.5,30.7,28.97,NNE,22,3.6,3.6,97,0.00,,,0.00,VWS V14.01,2013-02-28 07:13:00,
2013-02-28 02:14:00,31.5,30.7,28.97,WNW,292,4.3,4.3,97,0.00,,,0.00,VWS V14.01,2013-02-28 07:14:00,
2013-02-28 02:15:00,31.5,30.7,28.97,NNE,22,3.4,4.3,97,0.00,,,0.00,VWS V14.01,2013-02-28 07:15:00,
2013-02-28 02:16:00,31.5,30.7,28.97,NNE,22,2.9,3.4,97,0.00,,,0.00,VWS V14.01,2013-02-28 07:16:00,
2013-02-28 02:17:00,31.5,30.7,28.97,NE,45,1.6,3.6,97,0.00,,,0.00,VWS V14.01,2013-02-28 07:17:00,
2013-02-28 02:18:00,31.5,30.7,28.97,North,0,2.0,6.0,97,0.00,,,0.00,VWS V14.01,2013-02-28 07:18:00,
2013-02-28 02:19:00,31.5,30.7,28.97,SSE,158,0.9,6.0,97,0.00,,,0.00,VWS V14.01,2013-02-28 07:19:00,
2013-02-28 02:20:00,31.5,30.7,28.97,NNW,338,2.7,4.3,97,0.00,,,0.00,VWS V14.01,2013-02-28 07:20:00,
2013-02-28 02:21:00,31.5,30.7,28.97,North,0,1.6,3.6,97,0.00,,,0.00,VWS V14.01,2013-02-28 07:21:00,
2013-02-28 02:22:00,31.5,30.7,28.97,NNW,338,3.4,3.6,97,0.00,,,0.00,VWS V14.01,2013-02-28 07:22:00,
2013-02-28 02:23:00,31.5,30.7,28.97,North,0,3.4,3.4,97,0.00,,,0.00,VWS V14.01,2013-02-28 07:23:00,
2013-02-28 02:24:00,31.5,30.7,28.97,North,0,3.4,3.4,97,0.00,,,0.00,VWS V14.01,2013-02-28 07:24:00,
2013-02-28 02:25:00,31.5,30.7,28.97,North,0,3.4,3.4,97,0.00,,,0.00,VWS V14.01,2013-02-28 07:25:00,
2013-02-28 02:26:00,31.5,30.7,28.97,NNE,22,6.3,6.3,97,0.00,,,0.00,VWS V14.01,2013-02-28 07:26:00,
2013-02-28 02:27:00,31.5,30.7,28.97,NNE,22,2.5,3.4,97,0.00,,,0.00,VWS V14.01,2013-02-28 07:27:00,
2013-02-28 02:28:00,31.5,30.7,28.97,NNE,22,2.5,4.7,97,0.00,,,0.00,VWS V14.01,2013-02-28 07:28:00,
2013-02-28 02:29:00,31.6,30.6,28.97,NNE,22,1.3,3.8,96,0.00,,,0.00,VWS V14.01,2013-02-28 07:29:00,
2013-02-28 02:30:00,31.6,30.6,28.97,ENE,68,2.7,3.8,96,0.00,,,0.00,VWS V14.01,2013-02-28 07:30:00,
2013-02-28 02:31:00,31.5,30.7,28.97,NNE,22,2.5,4.7,97,0.00,,,0.00,VWS V14.01,2013-02-28 07:31:00,
2013-02-28 02:32:00,31.5,30.7,28.97,WNW,292,2.0,3.1,97,0.00,,,0.00,VWS V14.01,2013-02-28 07:32:00,
2013-02-28 02:33:00,31.5,30.7,28.97,NNE,22,3.8,4.0,97,0.00,,,0.00,VWS V14.01,2013-02-28 07:33:00,
2013-02-28 02:34:00,31.5,30.7,28.97,NNE,22,3.8,4.0,97,0.00,,,0.00,VWS V14.01,2013-02-28 07:34:00,
2013-02-28 02:35:00,31.5,30.7,28.97,North,0,2.0,3.8,97,0.00,,,0.00,VWS V14.01,2013-02-28 07:35:00,
2013-02-28 02:36:00,31.5,30.7,28.97,NNW,338,3.1,3.8,97,0.00,,,0.00,VWS V14.01,2013-02-28 07:36:00,
2013-02-28 02:37:00,31.5,30.7,28.97,North,0,3.1,3.6,97,0.00,,,0.00,VWS V14.01,2013-02-28 07:37:00,
2013-02-28 02:38:00,31.5,30.7,28.97,NE,45,3.6,3.6,97,0.00,,,0.00,VWS V14.01,2013-02-28 07:38:00,
2013-02-28 02:39:00,31.5,30.7,28.97,NNE,22,1.3,3.6,97,0.00,,,0.00,VWS V14.01,2013-02-28 07:39:00,
2013-02-28 02:40:00,31.5,30.7,28.97,North,0,5.6,5.6,97,0.00,,,0.00,VWS V14.01,2013-02-28 07:40:00,
2013-02-28 02:41:00,31.5,30.7,28.97,North,0,2.7,5.6,97,0.00,,,0.00,VWS V14.01,2013-02-28 07:41:00,
2013-02-28 02:42:00,31.3,30.5,28.97,NE,45,2.7,3.4,97,0.00,,,0.00,VWS V14.01,2013-02-28 07:42:00,
2013-02-28 02:43:00,31.3,30.5,28.97,NNW,338,2.7,3.6,97,0.00,,,0.00,VWS V14.01,2013-02-28 07:43:00,
2013-02-28 02:44:00,31.3,30.5,28.97,NE,45,3.4,4.0,97,0.00,,,0.00,VWS V14.01,2013-02-28 07:44:00,
2013-02-28 02:45:00,31.3,30.5,28.97,North,0,2.2,3.8,97,0.00,,,0.00,VWS V14.01,2013-02-28 07:45:00,
2013-02-28 02:46:00,31.3,30.5,28.97,NE,45,3.1,3.8,97,0.00,,,0.00,VWS V14.01,2013-02-28 07:46:00,
2013-02-28 02:47:00,31.3,30.5,28.97,North,0,3.4,3.4,97,0.00,,,0.00,VWS V14.01,2013-02-28 07:47:00,
2013-02-28 02:48:00,31.3,30.5,28.97,NNW,338,3.6,4.3,97,0.00,,,0.00,VWS V14.01,2013-02-28 07:48:00,
2013-02-28 02:49:00,31.1,30.1,28.97,NNE,22,3.1,4.7,96,0.00,,,0.00,VWS V14.01,2013-02-28 07:49:00,
2013-02-28 02:50:00,31.3,30.5,28.97,NNE,22,4.0,4.0,97,0.00,,,0.00,VWS V14.01,2013-02-28 07:50:00,
2013-02-28 02:51:00,31.3,30.5,28.97,NNE,22,3.4,4.0,97,0.00,,,0.00,VWS V14.01,2013-02-28 07:51:00,
2013-02-28 02:52:00,31.3,30.5,28.97,ENE,68,4.3,4.3,97,0.00,,,0.00,VWS V14.01,2013-02-28 07:52:00,
2013-02-28 02:53:00,31.3,30.5,28.97,NNE,22,4.3,6.0,97,0.00,,,0.00,VWS V14.01,2013-02-28 07:53:00,
2013-02-28 02:54:00,31.3,30.5,28.97,NE,45,3.1,6.0,97,0.00,,,0.00,VWS V14.01,2013-02-28 07:54:00,
2013-02-28 02:55:00,31.3,30.5,28.97,NNE,22,3.4,6.7,97,0.00,,,0.00,VWS V14.01,2013-02-28 07:55:00,
2013-02-28 02:56:00,31.3,30.5,28.97,NE,45,4.3,6.3,97,0.00,,,0.00,VWS V14.01,2013-02-28 07:56:00,
2013-02-28 02:57:00,31.3,30.5,28.97,NE,45,4.3,4.3,97,0.00,,,0.00,VWS V14.01,2013-02-28 07:57:00,
2013-02-28 02:58:00,31.3,30.5,28.97,WNW,292,3.4,4.3,97,0.00,,,0.00,VWS V14.01,2013-02-28 07:58:00,
2013-02-28 02:59:00,31.3,30.5,28.97,WNW,292,3.4,4.3,97,0.00,,,0.00,VWS V14.01,2013-02-28 07:59:00,
2013-02-28 03:00:00,31.3,30.5,28.97,North,0,3.6,3.6,97,0.00,,,0.00,VWS V14.01,2013-02-28 08:00:00,
2013-02-28 03:01:00,31.3,30.5,28.97,NNE,22,3.4,4.5,97,0.00,,,0.00,VWS V14.01,2013-02-28 08:01:00,
2013-02-28 03:02:00,31.3,30.5,28.97,NNE,22,3.1,4.3,97,0.00,,,0.00,VWS V14.01,2013-02-28 08:02:00,
2013-02-28 03:03:00,31.3,30.5,28.97,NNW,338,4.3,6.0,97,0.00,,,0.00,VWS V14.01,2013-02-28 08:03:00,
2013-02-28 03:04:00,31.3,30.5,28.97,NNE,22,4.0,6.0,97,0.00,,,0.00,VWS V14.01,2013-02-28 08:04:00,
2013-02-28 03:05:00,31.3,30.5,28.97,North,0,3.6,6.3,97,0.00,,,0.00,VWS V14.01,2013-02-28 08:05:00,
2013-02-28 03:06:00,31.3,30.5,28.97,North,0,4.7,4.7,97,0.00,,,0.00,VWS V14.01,2013-02-28 08:06:00,
2013-02-28 03:07:00,31.5,30.7,28.97,NW,315,2.5,4.7,97,0.00,,,0.00,VWS V14.01,2013-02-28 08:07:00,
2013-02-28 03:08:00,31.5,30.7,28.97,NE,45,2.7,3.1,97,0.00,,,0.00,VWS V14.01,2013-02-28 08:08:00,
2013-02-28 03:09:00,31.5,30.7,28.97,NNE,22,3.1,3.1,97,0.00,,,0.00,VWS V14.01,2013-02-28 08:09:00,
2013-02-28 03:10:00,31.5,30.7,28.97,North,0,2.5,3.6,97,0.00,,,0.00,VWS V14.01,2013-02-28 08:10:00,
2013-02-28 03:11:00,30.9,29.9,29.00,North,0,3.6,3.8,96,0.00,,,0.00,VWS V14.01,2013-02-28 08:11:00,
2013-02-28 03:12:00,31.5,30.7,28.97,NNW,338,1.3,3.8,97,0.00,,,0.00,VWS V14.01,2013-02-28 08:12:00,
2013-02-28 03:13:00,31.5,30.7,28.97,NE,45,4.3,4.3,97,0.00,,,0.00,VWS V14.01,2013-02-28 08:13:00,
2013-02-28 03:14:00,31.5,30.7,28.97,NE,45,3.4,4.3,97,0.00,,,0.00,VWS V14.01,2013-02-28 08:14:00,
2013-02-28 03:15:00,31.5,30.7,28.97,NNW,338,2.5,3.6,97,0.00,,,0.00,VWS V14.01,2013-02-28 08:15:00,
2013-02-28 03:16:00,31.5,30.7,28.97,NNE,22,2.9,3.4,97,0.00,,,0.00,VWS V14.01,2013-02-28 08:16:00,
2013-02-28 03:17:00,31.5,30.7,28.97,North,0,3.6,3.6,97,0.00,,,0.00,VWS V14.01,2013-02-28 08:17:00,
2013-02-28 03:18:00,31.5,30.7,28.97,North,0,4.0,4.0,97,0.00,,,0.00,VWS V14.01,2013-02-28 08:18:00,
2013-02-28 03:19:00,31.5,30.7,28.97,ESE,112,4.3,4.3,97,0.00,,,0.00,VWS V14.01,2013-02-28 08:19:00,
2013-02-28 03:20:00,31.5,30.7,28.97,NE,45,4.7,4.7,97,0.00,,,0.00,VWS V14.01,2013-02-28 08:20:00,
2013-02-28 03:21:00,31.5,30.7,28.97,North,0,5.4,5.4,97,0.00,,,0.00,VWS V14.01,2013-02-28 08:21:00,
2013-02-28 03:22:00,31.5,30.7,28.97,NNE,22,2.9,5.6,97,0.00,,,0.00,VWS V14.01,2013-02-28 08:22:00,
2013-02-28 03:23:00,31.5,30.7,28.97,North,0,3.1,6.0,97,0.00,,,0.00,VWS V14.01,2013-02-28 08:23:00,
2013-02-28 03:24:00,31.5,30.7,28.97,NNW,338,5.6,5.6,97,0.00,,,0.00,VWS V14.01,2013-02-28 08:24:00,
2013-02-28 03:25:00,30.7,29.7,29.00,NNE,22,2.2,4.0,96,0.00,,,0.00,VWS V14.01,2013-02-28 08:25:00,
2013-02-28 03:26:00,31.5,30.7,28.97,NNE,22,6.3,6.3,97,0.00,,,0.00,VWS V14.01,2013-02-28 08:26:00,
2013-02-28 03:27:00,31.6,30.9,28.97,NNE,22,8.7,8.7,97,0.00,,,0.00,VWS V14.01,2013-02-28 08:27:00,
2013-02-28 03:28:00,31.6,30.9,28.97,NNE,22,3.8,8.7,97,0.00,,,0.00,VWS V14.01,2013-02-28 08:28:00,
2013-02-28 03:29:00,31.6,30.6,28.97,NNE,22,1.3,3.8,96,0.00,,,0.00,VWS V14.01,2013-02-28 08:29:00,
2013-02-28 03:30:00,31.6,30.6,28.97,ENE,68,2.7,3.8,96,0.00,,,0.00,VWS V14.01,2013-02-28 08:30:00,
2013-02-28 03:31:00,31.5,30.5,28.97,North,0,6.5,6.5,96,0.00,,,0.00,VWS V14.01,2013-02-28 08:31:00,
2013-02-28 03:32:00,31.6,30.6,28.97,NNE,22,4.3,6.5,96,0.00,,,0.00,VWS V14.01,2013-02-28 08:32:00,
2013-02-28 03:33:00,31.5,30.5,28.97,ENE,68,3.8,4.9,96,0.00,,,0.00,VWS V14.01,2013-02-28 08:33:00,
2013-02-28 03:34:00,31.5,30.5,28.97,NNE,22,3.6,3.8,96,0.00,,,0.00,VWS V14.01,2013-02-28 08:34:00,
2013-02-28 03:35:00,31.6,30.6,28.97,North,0,3.4,3.4,96,0.00,,,0.00,VWS V14.01,2013-02-28 08:35:00,
2013-02-28 03:36:00,31.6,30.6,28.97,North,0,4.0,4.0,96,0.00,,,0.00,VWS V14.01,2013-02-28 08:36:00,
2013-02-28 03:37:00,31.6,30.6,28.97,NNE,22,4.7,4.7,96,0.00,,,0.00,VWS V14.01,2013-02-28 08:37:00,
2013-02-28 03:38:00,31.5,30.5,28.97,NE,45,3.8,5.6,96,0.00,,,0.00,VWS V14.01,2013-02-28 08:38:00,
2013-02-28 03:39:00,31.5,30.5,28.97,NE,45,3.8,3.8,96,0.00,,,0.00,VWS V14.01,2013-02-28 08:39:00,
2013-02-28 03:40:00,31.5,30.5,28.97,NNE,22,3.4,4.3,96,0.00,,,0.00,VWS V14.01,2013-02-28 08:40:00,
2013-02-28 03:41:00,31.5,30.5,28.97,NE,45,3.8,4.9,96,0.00,,,0.00,VWS V14.01,2013-02-28 08:41:00,
2013-02-28 03:42:00,31.5,30.5,28.97,NNE,22,4.9,4.9,96,0.00,,,0.00,VWS V14.01,2013-02-28 08:42:00,
2013-02-28 03:43:00,31.5,30.5,28.97,NNE,22,2.2,4.9,96,0.00,,,0.00,VWS V14.01,2013-02-28 08:43:00,
2013-02-28 03:44:00,31.5,30.5,28.97,NNE,22,4.7,4.7,96,0.00,,,0.00,VWS V14.01,2013-02-28 08:44:00,
2013-02-28 03:45:00,31.5,30.5,28.97,NNW,338,3.8,4.7,96,0.00,,,0.00,VWS V14.01,2013-02-28 08:45:00,
2013-02-28 03:46:00,31.5,30.5,28.97,NNE,22,2.7,3.8,96,0.00,,,0.00,VWS V14.01,2013-02-28 08:46:00,
2013-02-28 03:47:00,31.5,30.5,28.97,NNE,22,4.0,5.4,96,0.00,,,0.00,VWS V14.01,2013-02-28 08:47:00,
2013-02-28 03:48:00,31.1,30.1,28.97,NE,45,4.7,4.7,96,0.00,,,0.00,VWS V14.01,2013-02-28 08:48:00,
2013-02-28 03:49:00,31.1,30.1,28.97,North,0,2.9,3.1,96,0.00,,,0.00,VWS V14.01,2013-02-28 08:49:00,
2013-02-28 03:50:00,31.1,30.1,28.97,North,0,5.8,5.8,96,0.00,,,0.00,VWS V14.01,2013-02-28 08:50:00,
2013-02-28 03:51:00,31.1,30.1,28.97,NNW,338,3.4,5.8,96,0.00,,,0.00,VWS V14.01,2013-02-28 08:51:00,
2013-02-28 03:52:00,31.1,30.1,28.97,NNE,22,2.7,5.8,96,0.00,,,0.00,VWS V14.01,2013-02-28 08:52:00,
2013-02-28 03:53:00,31.1,30.1,28.97,NW,315,6.0,6.0,96,0.00,,,0.00,VWS V14.01,2013-02-28 08:53:00,
2013-02-28 03:54:00,30.9,29.9,28.97,NNE,22,4.7,4.7,96,0.00,,,0.00,VWS V14.01,2013-02-28 08:54:00,
2013-02-28 03:55:00,30.9,29.9,28.97,North,0,2.9,4.9,96,0.00,,,0.00,VWS V14.01,2013-02-28 08:55:00,
2013-02-28 03:56:00,30.9,29.9,28.97,NE,45,3.6,4.3,96,0.00,,,0.00,VWS V14.01,2013-02-28 08:56:00,
2013-02-28 03:57:00,30.9,29.9,28.97,NNE,22,1.6,3.6,96,0.00,,,0.00,VWS V14.01,2013-02-28 08:57:00,
2013-02-28 03:58:00,30.9,29.9,28.97,NNE,22,3.1,4.3,96,0.00,,,0.00,VWS V14.01,2013-02-28 08:58:00,
2013-02-28 03:59:00,30.9,29.9,28.97,NNW,338,3.4,4.3,96,0.00,,,0.00,VWS V14.01,2013-02-28 08:59:00,
2013-02-28 04:00:00,30.9,29.9,28.97,NNE,22,3.8,4.3,96,0.00,,,0.00,VWS V14.01,2013-02-28 09:00:00,
2013-02-28 04:01:00,30.9,29.9,28.97,NNE,22,3.4,5.4,96,0.00,,,0.00,VWS V14.01,2013-02-28 09:01:00,
2013-02-28 04:02:00,30.9,29.9,28.97,North,0,2.7,4.3,96,0.00,,,0.00,VWS V14.01,2013-02-28 09:02:00,
2013-02-28 04:03:00,30.9,29.9,28.97,NNW,338,3.6,4.7,96,0.00,,,0.00,VWS V14.01,2013-02-28 09:03:00,
2013-02-28 04:04:00,30.9,29.9,28.97,North,0,3.8,3.8,96,0.00,,,0.00,VWS V14.01,2013-02-28 09:04:00,
2013-02-28 04:05:00,30.9,29.9,28.97,NNW,338,3.4,3.8,96,0.00,,,0.00,VWS V14.01,2013-02-28 09:05:00,
2013-02-28 04:06:00,30.9,29.9,28.97,NNW,338,3.4,3.4,96,0.00,,,0.00,VWS V14.01,2013-02-28 09:06:00,
2013-02-28 04:07:00,30.9,29.9,29.00,NNW,338,4.7,4.7,96,0.00,,,0.00,VWS V14.01,2013-02-28 09:07:00,
2013-02-28 04:08:00,30.9,29.9,29.00,NNW,338,1.3,4.7,96,0.00,,,0.00,VWS V14.01,2013-02-28 09:08:00,
2013-02-28 04:09:00,30.9,29.9,29.00,North,0,2.5,4.7,96,0.00,,,0.00,VWS V14.01,2013-02-28 09:09:00,
2013-02-28 04:10:00,30.9,29.9,29.00,NNE,22,3.1,4.7,96,0.00,,,0.00,VWS V14.01,2013-02-28 09:10:00,
2013-02-28 04:11:00,30.9,29.9,29.00,North,0,3.6,3.8,96,0.00,,,0.00,VWS V14.01,2013-02-28 09:11:00,
2013-02-28 04:12:00,30.9,29.9,29.00,NNE,22,3.1,4.0,96,0.00,,,0.00,VWS V14.01,2013-02-28 09:12:00,
2013-02-28 04:13:00,31.1,29.6,29.03,NNE,22,1.6,3.6,94,0.00,,,0.00,VWS V14.01,2013-02-28 09:13:00,
2013-02-28 04:14:00,30.9,29.9,29.00,North,0,2.9,3.1,96,0.00,,,0.00,VWS V14.01,2013-02-28 09:14:00,
2013-02-28 04:15:00,30.9,29.9,29.00,NNE,22,3.1,3.1,96,0.00,,,0.00,VWS V14.01,2013-02-28 09:15:00,
2013-02-28 04:16:00,30.9,29.9,29.00,North,0,2.9,3.4,96,0.00,,,0.00,VWS V14.01,2013-02-28 09:16:00,
2013-02-28 04:17:00,30.9,29.9,29.00,NNW,338,2.7,3.8,96,0.00,,,0.00,VWS V14.01,2013-02-28 09:17:00,
2013-02-28 04:18:00,30.9,29.9,29.00,NE,45,2.9,3.1,96,0.00,,,0.00,VWS V14.01,2013-02-28 09:18:00,
2013-02-28 04:19:00,30.9,29.9,29.00,NNW,338,4.0,4.0,96,0.00,,,0.00,VWS V14.01,2013-02-28 09:19:00,
2013-02-28 04:20:00,30.9,29.9,29.00,NNW,338,4.0,4.0,96,0.00,,,0.00,VWS V14.01,2013-02-28 09:20:00,
2013-02-28 04:21:00,30.9,29.9,29.00,North,0,2.9,4.0,96,0.00,,,0.00,VWS V14.01,2013-02-28 09:21:00,
2013-02-28 04:22:00,30.9,29.9,29.00,SSW,202,3.6,4.3,96,0.00,,,0.00,VWS V14.01,2013-02-28 09:22:00,
2013-02-28 04:23:00,30.7,29.7,29.00,NNE,22,2.5,3.6,96,0.00,,,0.00,VWS V14.01,2013-02-28 09:23:00,
2013-02-28 04:24:00,30.7,29.7,29.00,NNE,22,4.0,4.0,96,0.00,,,0.00,VWS V14.01,2013-02-28 09:24:00,
2013-02-28 04:25:00,30.7,29.7,29.00,NNE,22,2.2,4.0,96,0.00,,,0.00,VWS V14.01,2013-02-28 09:25:00,
2013-02-28 04:26:00,30.7,29.7,29.00,NNE,22,2.7,2.9,96,0.00,,,0.00,VWS V14.01,2013-02-28 09:26:00,
2013-02-28 04:27:00,30.7,29.7,29.00,North,0,3.1,4.0,96,0.00,,,0.00,VWS V14.01,2013-02-28 09:27:00,
2013-02-28 04:28:00,30.7,29.7,29.00,North,0,1.3,3.1,96,0.00,,,0.00,VWS V14.01,2013-02-28 09:28:00,
2013-02-28 04:29:00,30.7,29.7,29.00,North,0,3.8,3.8,96,0.00,,,0.00,VWS V14.01,2013-02-28 09:29:00,
2013-02-28 04:30:00,30.7,29.7,29.00,North,0,3.8,3.8,96,0.00,,,0.00,VWS V14.01,2013-02-28 09:30:00,
2013-02-28 04:31:00,30.7,29.7,29.00,NNE,22,1.6,3.8,96,0.00,,,0.00,VWS V14.01,2013-02-28 09:31:00,
2013-02-28 04:32:00,30.9,29.9,29.00,North,0,3.4,3.4,96,0.00,,,0.00,VWS V14.01,2013-02-28 09:32:00,
2013-02-28 04:33:00,30.9,29.9,29.00,ENE,68,3.1,9.6,96,0.00,,,0.00,VWS V14.01,2013-02-28 09:33:00,
2013-02-28 04:34:00,30.9,29.9,29.00,NNE,22,1.6,3.4,96,0.00,,,0.00,VWS V14.01,2013-02-28 09:34:00,
2013-02-28 04:35:00,30.9,29.9,29.00,NNE,22,1.6,3.4,96,0.00,,,0.00,VWS V14.01,2013-02-28 09:35:00,
2013-02-28 04:36:00,30.9,29.9,29.00,NNW,338,2.9,4.3,96,0.00,,,0.00,VWS V14.01,2013-02-28 09:36:00,
2013-02-28 04:37:00,30.9,29.9,29.00,NNW,338,1.6,3.4,96,0.00,,,0.00,VWS V14.01,2013-02-28 09:37:00,
2013-02-28 04:38:00,30.9,29.9,29.00,NE,45,3.6,3.6,96,0.00,,,0.00,VWS V14.01,2013-02-28 09:38:00,
2013-02-28 04:39:00,30.9,29.9,29.00,North,0,3.4,3.6,96,0.00,,,0.00,VWS V14.01,2013-02-28 09:39:00,
2013-02-28 04:40:00,30.9,29.9,29.00,North,0,3.1,3.6,96,0.00,,,0.00,VWS V14.01,2013-02-28 09:40:00,
2013-02-28 04:41:00,30.9,29.9,29.00,North,0,2.7,3.6,96,0.00,,,0.00,VWS V14.01,2013-02-28 09:41:00,
2013-02-28 04:42:00,30.9,29.9,29.00,North,0,4.0,4.0,96,0.00,,,0.00,VWS V14.01,2013-02-28 09:42:00,
2013-02-28 04:43:00,30.9,29.9,29.00,North,0,3.6,5.4,96,0.00,,,0.00,VWS V14.01,2013-02-28 09:43:00,
2013-02-28 04:44:00,30.9,29.9,29.00,NNE,22,3.1,5.4,96,0.00,,,0.00,VWS V14.01,2013-02-28 09:44:00,
2013-02-28 04:45:00,30.9,28.6,29.03,NNE,22,2.0,3.1,91,0.00,,,0.00,VWS V14.01,2013-02-28 09:45:00,
2013-02-28 04:46:00,30.9,29.9,29.00,North,0,1.6,5.4,96,0.00,,,0.00,VWS V14.01,2013-02-28 09:46:00,
2013-02-28 04:47:00,30.9,29.9,29.00,NNW,338,3.8,3.8,96,0.00,,,0.00,VWS V14.01,2013-02-28 09:47:00,
2013-02-28 04:48:00,30.9,29.9,29.00,North,0,2.9,3.8,96,0.00,,,0.00,VWS V14.01,2013-02-28 09:48:00,
2013-02-28 04:49:00,30.9,29.9,29.00,North,0,3.1,5.8,96,0.00,,,0.00,VWS V14.01,2013-02-28 09:49:00,
2013-02-28 04:50:00,31.1,30.1,29.00,NNE,22,2.0,3.1,96,0.00,,,0.00,VWS V14.01,2013-02-28 09:50:00,
2013-02-28 04:51:00,30.9,29.9,29.00,NNE,22,3.8,4.9,96,0.00,,,0.00,VWS V14.01,2013-02-28 09:51:00,
2013-02-28 04:52:00,31.1,30.1,29.00,NNE,22,3.8,3.8,96,0.00,,,0.00,VWS V14.01,2013-02-28 09:52:00,
2013-02-28 04:53:00,31.1,29.8,29.00,ENE,68,2.9,3.8,95,0.00,,,0.00,VWS V14.01,2013-02-28 09:53:00,
2013-02-28 04:54:00,31.1,29.8,29.00,NNW,338,1.6,3.4,95,0.00,,,0.00,VWS V14.01,2013-02-28 09:54:00,
2013-02-28 04:55:00,31.1,29.8,29.00,North,0,3.4,3.4,95,0.00,,,0.00,VWS V14.01,2013-02-28 09:55:00,
2013-02-28 04:56:00,31.1,29.8,29.00,NNE,22,3.6,3.8,95,0.00,,,0.00,VWS V14.01,2013-02-28 09:56:00,
2013-02-28 04:57:00,31.1,29.8,29.00,NNE,22,3.1,4.0,95,0.00,,,0.00,VWS V14.01,2013-02-28 09:57:00,
2013-02-28 04:58:00,31.1,29.8,29.00,North,0,2.9,3.1,95,0.00,,,0.00,VWS V14.01,2013-02-28 09:58:00,
2013-02-28 04:59:00,31.1,29.8,29.00,NE,45,3.4,4.0,95,0.00,,,0.00,VWS V14.01,2013-02-28 09:59:00,
2013-02-28 05:00:00,31.1,29.8,29.00,North,0,4.0,4.0,95,0.00,,,0.00,VWS V14.01,2013-02-28 10:00:00,
2013-02-28 05:01:00,31.1,29.8,29.00,NNW,338,4.0,4.3,95,0.00,,,0.00,VWS V14.01,2013-02-28 10:01:00,
2013-02-28 05:02:00,31.1,29.8,29.00,North,0,3.8,4.0,95,0.00,,,0.00,VWS V14.01,2013-02-28 10:02:00,
2013-02-28 05:03:00,31.1,29.8,29.00,North,0,2.5,3.8,95,0.00,,,0.00,VWS V14.01,2013-02-28 10:03:00,
2013-02-28 05:04:00,31.1,29.8,29.00,North,0,3.8,3.8,95,0.00,,,0.00,VWS V14.01,2013-02-28 10:04:00,
2013-02-28 05:05:00,31.1,29.8,29.00,North,0,3.1,3.8,95,0.00,,,0.00,VWS V14.01,2013-02-28 10:05:00,
2013-02-28 05:06:00,31.1,29.6,29.00,North,0,3.4,3.4,94,0.00,,,0.00,VWS V14.01,2013-02-28 10:06:00,
2013-02-28 05:07:00,31.1,29.6,29.03,NNE,22,2.0,3.4,94,0.00,,,0.00,VWS V14.01,2013-02-28 10:07:00,
2013-02-28 05:08:00,31.1,29.6,29.03,NNE,22,2.7,3.4,94,0.00,,,0.00,VWS V14.01,2013-02-28 10:08:00,
2013-02-28 05:09:00,31.1,29.6,29.03,NNE,22,2.2,5.8,94,0.00,,,0.00,VWS V14.01,2013-02-28 10:09:00,
2013-02-28 05:10:00,31.1,29.6,29.03,NNW,338,2.9,2.9,94,0.00,,,0.00,VWS V14.01,2013-02-28 10:10:00,
2013-02-28 05:12:00,31.1,29.6,29.03,North,0,1.3,2.9,94,0.00,,,0.00,VWS V14.01,2013-02-28 10:12:00,
2013-02-28 05:13:00,31.1,29.6,29.03,NNE,22,1.6,3.6,94,0.00,,,0.00,VWS V14.01,2013-02-28 10:13:00,
2013-02-28 05:14:00,31.1,29.6,29.03,North,0,3.8,3.8,94,0.00,,,0.00,VWS V14.01,2013-02-28 10:14:00,
2013-02-28 05:15:00,31.1,29.6,29.03,NE,45,4.3,4.3,94,0.00,,,0.00,VWS V14.01,2013-02-28 10:15:00,
2013-02-28 05:16:00,31.1,29.6,29.03,NE,45,3.6,4.3,94,0.00,,,0.00,VWS V14.01,2013-02-28 10:16:00,
2013-02-28 05:17:00,31.1,29.6,29.03,NNE,22,3.6,4.0,94,0.00,,,0.00,VWS V14.01,2013-02-28 10:17:00,
2013-02-28 05:18:00,31.1,29.3,29.03,NNW,338,2.0,4.0,93,0.00,,,0.00,VWS V14.01,2013-02-28 10:18:00,
2013-02-28 05:19:00,31.1,29.3,29.03,NNE,22,2.5,2.5,93,0.00,,,0.00,VWS V14.01,2013-02-28 10:19:00,
2013-02-28 05:20:00,31.1,29.3,29.03,NNE,22,4.9,4.9,93,0.00,,,0.00,VWS V14.01,2013-02-28 10:20:00,
2013-02-28 05:21:00,31.1,29.3,29.03,North,0,4.3,4.9,93,0.00,,,0.00,VWS V14.01,2013-02-28 10:21:00,
2013-02-28 05:22:00,31.1,29.3,29.03,North,0,3.8,4.3,93,0.00,,,0.00,VWS V14.01,2013-02-28 10:22:00,
2013-02-28 05:23:00,31.1,29.3,29.03,NNE,22,2.0,3.8,93,0.00,,,0.00,VWS V14.01,2013-02-28 10:23:00,
2013-02-28 05:24:00,31.1,29.3,29.03,NNE,22,2.7,2.7,93,0.00,,,0.00,VWS V14.01,2013-02-28 10:24:00,
2013-02-28 05:25:00,31.1,29.0,29.03,SE,135,3.1,3.1,92,0.00,,,0.00,VWS V14.01,2013-02-28 10:25:00,
2013-02-28 05:26:00,31.1,29.0,29.03,North,0,2.7,3.1,92,0.00,,,0.00,VWS V14.01,2013-02-28 10:26:00,
2013-02-28 05:27:00,31.1,29.0,29.03,NNE,22,3.6,3.6,92,0.00,,,0.00,VWS V14.01,2013-02-28 10:27:00,
2013-02-28 05:28:00,31.1,29.0,29.03,North,0,2.7,3.6,92,0.00,,,0.00,VWS V14.01,2013-02-28 10:28:00,
2013-02-28 05:29:00,31.1,29.0,29.03,NNW,338,2.9,3.8,92,0.00,,,0.00,VWS V14.01,2013-02-28 10:29:00,
2013-02-28 05:30:00,31.1,29.0,29.03,NE,45,1.1,1.1,92,0.00,,,0.00,VWS V14.01,2013-02-28 10:30:00,
2013-02-28 05:31:00,31.1,29.0,29.03,NNE,22,2.9,2.9,92,0.00,,,0.00,VWS V14.01,2013-02-28 10:31:00,
2013-02-28 05:32:00,31.1,29.0,29.03,North,0,4.3,4.3,92,0.00,,,0.00,VWS V14.01,2013-02-28 10:32:00,
2013-02-28 05:33:00,31.1,29.0,29.03,NNW,338,3.1,4.3,92,0.00,,,0.00,VWS V14.01,2013-02-28 10:33:00,
2013-02-28 05:34:00,31.1,29.0,29.03,NNE,22,6.3,6.3,92,0.00,,,0.00,VWS V14.01,2013-02-28 10:34:00,
2013-02-28 05:35:00,31.1,29.0,29.03,NNW,338,7.2,7.2,92,0.00,,,0.00,VWS V14.01,2013-02-28 10:35:00,
2013-02-28 05:36:00,30.9,28.6,29.03,NNE,22,8.5,8.5,91,0.00,,,0.00,VWS V14.01,2013-02-28 10:36:00,
2013-02-28 05:37:00,30.9,28.6,29.03,NNE,22,2.0,8.5,91,0.00,,,0.00,VWS V14.01,2013-02-28 10:37:00,
2013-02-28 05:38:00,30.9,28.6,29.03,North,0,2.7,3.4,91,0.00,,,0.00,VWS V14.01,2013-02-28 10:38:00,
2013-02-28 05:39:00,30.9,28.6,29.03,NNE,22,3.8,5.8,91,0.00,,,0.00,VWS V14.01,2013-02-28 10:39:00,
2013-02-28 05:40:00,30.9,28.6,29.03,NNE,22,3.8,3.8,91,0.00,,,0.00,VWS V14.01,2013-02-28 10:40:00,
2013-02-28 05:41:00,30.9,28.6,29.03,NE,45,3.4,4.3,91,0.00,,,0.00,VWS V14.01,2013-02-28 10:41:00,
2013-02-28 05:42:00,30.9,28.6,29.03,NNE,22,4.7,4.7,91,0.00,,,0.00,VWS V14.01,2013-02-28 10:42:00,
2013-02-28 05:43:00,30.9,28.6,29.03,NNE,22,3.4,4.7,91,0.00,,,0.00,VWS V14.01,2013-02-28 10:43:00,
2013-02-28 05:44:00,30.9,28.6,29.03,ENE,68,2.5,4.0,91,0.00,,,0.00,VWS V14.01,2013-02-28 10:44:00,
2013-02-28 05:45:00,30.9,28.3,29.03,NNE,22,4.7,4.7,90,0.00,,,0.00,VWS V14.01,2013-02-28 10:45:00,
2013-02-28 05:46:00,30.9,28.3,29.03,NNE,22,4.7,4.7,90,0.00,,,0.00,VWS V14.01,2013-02-28 10:46:00,
2013-02-28 05:47:00,30.9,28.3,29.03,North,0,3.8,4.7,90,0.00,,,0.00,VWS V14.01,2013-02-28 10:47:00,
2013-02-28 05:48:00,30.9,28.3,29.03,NNE,22,4.3,4.3,90,0.00,,,0.00,VWS V14.01,2013-02-28 10:48:00,
2013-02-28 05:49:00,30.9,28.3,29.03,NNW,338,3.6,4.3,90,0.00,,,0.00,VWS V14.01,2013-02-28 10:49:00,
2013-02-28 05:50:00,30.9,28.3,29.03,NNE,22,4.9,4.9,90,0.00,,,0.00,VWS V14.01,2013-02-28 10:50:00,
2013-02-28 05:51:00,30.9,28.3,29.03,East,90,2.9,4.9,90,0.00,,,0.00,VWS V14.01,2013-02-28 10:51:00,
2013-02-28 05:52:00,30.9,28.3,29.03,NNE,22,3.6,3.6,90,0.00,,,0.00,VWS V14.01,2013-02-28 10:52:00,
2013-02-28 05:53:00,30.9,28.3,29.03,NNE,22,2.7,3.6,90,0.00,,,0.00,VWS V14.01,2013-02-28 10:53:00,
2013-02-28 05:54:00,30.9,28.3,29.03,North,0,2.5,3.4,90,0.00,,,0.00,VWS V14.01,2013-02-28 10:54:00,
2013-02-28 05:55:00,30.9,28.3,29.03,NNE,22,2.9,3.6,90,0.00,,,0.00,VWS V14.01,2013-02-28 10:55:00,
2013-02-28 05:56:00,30.4,26.7,29.03,NNE,22,4.3,4.3,86,0.00,,,0.00,VWS V14.01,2013-02-28 10:56:00,
2013-02-28 05:57:00,30.9,28.3,29.03,North,0,2.9,3.6,90,0.00,,,0.00,VWS V14.01,2013-02-28 10:57:00,
2013-02-28 05:58:00,30.9,28.3,29.03,North,0,2.0,4.3,90,0.00,,,0.00,VWS V14.01,2013-02-28 10:58:00,
2013-02-28 05:59:00,30.7,28.2,29.03,North,0,3.4,3.6,90,0.00,,,0.00,VWS V14.01,2013-02-28 10:59:00,
2013-02-28 06:00:00,30.7,27.9,29.03,NNE,22,2.0,4.7,89,0.00,,,0.00,VWS V14.01,2013-02-28 11:00:00,
2013-02-28 06:01:00,30.7,27.9,29.03,NNE,22,4.3,4.7,89,0.00,,,0.00,VWS V14.01,2013-02-28 11:01:00,
2013-02-28 06:02:00,30.7,27.9,29.03,North,0,4.7,4.7,89,0.00,,,0.00,VWS V14.01,2013-02-28 11:02:00,
2013-02-28 06:03:00,30.7,27.9,29.03,NW,315,5.6,5.6,89,0.00,,,0.00,VWS V14.01,2013-02-28 11:03:00,
2013-02-28 06:04:00,30.7,27.9,29.03,NW,315,3.6,5.6,89,0.00,,,0.00,VWS V14.01,2013-02-28 11:04:00,
2013-02-28 06:05:00,30.7,27.9,29.03,NNE,22,3.8,3.8,89,0.00,,,0.00,VWS V14.01,2013-02-28 11:05:00,
2013-02-28 06:06:00,30.7,27.9,29.03,NNE,22,3.4,3.8,89,0.00,,,0.00,VWS V14.01,2013-02-28 11:06:00,
2013-02-28 06:07:00,30.7,27.9,29.03,NE,45,3.4,3.6,89,0.00,,,0.00,VWS V14.01,2013-02-28 11:07:00,
2013-02-28 06:08:00,30.7,27.9,29.03,NNE,22,2.0,3.6,89,0.00,,,0.00,VWS V14.01,2013-02-28 11:08:00,
2013-02-28 06:09:00,30.7,27.9,29.03,NNE,22,3.8,3.8,89,0.00,,,0.00,VWS V14.01,2013-02-28 11:09:00,
2013-02-28 06:10:00,30.7,27.9,29.03,North,0,4.9,4.9,89,0.00,,,0.00,VWS V14.01,2013-02-28 11:10:00,
2013-02-28 06:11:00,30.7,27.9,29.03,North,0,4.0,4.9,89,0.00,,,0.00,VWS V14.01,2013-02-28 11:11:00,
2013-02-28 06:12:00,30.0,26.4,29.06,North,0,3.6,4.9,86,0.00,,,0.00,VWS V14.01,2013-02-28 11:12:00,
2013-02-28 06:13:00,30.7,27.9,29.03,North,0,4.0,4.9,89,0.00,,,0.00,VWS V14.01,2013-02-28 11:13:00,
2013-02-28 06:14:00,30.7,27.9,29.03,NNE,22,4.9,4.9,89,0.00,,,0.00,VWS V14.01,2013-02-28 11:14:00,
2013-02-28 06:15:00,30.7,27.6,29.03,NE,45,3.4,4.9,88,0.00,,,0.00,VWS V14.01,2013-02-28 11:15:00,
2013-02-28 06:16:00,30.7,27.6,29.03,NNW,338,2.5,3.4,88,0.00,,,0.00,VWS V14.01,2013-02-28 11:16:00,
2013-02-28 06:17:00,30.7,27.6,29.03,North,0,2.7,4.3,88,0.00,,,0.00,VWS V14.01,2013-02-28 11:17:00,
2013-02-28 06:18:00,30.7,27.6,29.03,ENE,68,2.9,3.8,88,0.00,,,0.00,VWS V14.01,2013-02-28 11:18:00,
2013-02-28 06:19:00,29.8,26.2,29.06,NNW,338,2.7,5.8,86,0.00,,,0.00,VWS V14.01,2013-02-28 11:19:00,
2013-02-28 06:20:00,30.7,27.6,29.03,ENE,68,3.4,3.6,88,0.00,,,0.00,VWS V14.01,2013-02-28 11:20:00,
2013-02-28 06:21:00,30.6,27.4,29.03,NNW,338,6.3,6.3,88,0.00,,,0.00,VWS V14.01,2013-02-28 11:21:00,
2013-02-28 06:22:00,30.6,27.4,29.00,NNE,22,3.1,6.3,88,0.00,,,0.00,VWS V14.01,2013-02-28 11:22:00,
2013-02-28 06:23:00,30.6,27.4,29.00,NNE,22,3.1,3.1,88,0.00,,,0.00,VWS V14.01,2013-02-28 11:23:00,
2013-02-28 06:24:00,30.6,27.4,29.00,North,0,3.4,4.7,88,0.00,,,0.00,VWS V14.01,2013-02-28 11:24:00,
2013-02-28 06:25:00,30.6,27.4,29.00,NNE,22,3.4,3.6,88,0.00,,,0.00,VWS V14.01,2013-02-28 11:25:00,
2013-02-28 06:26:00,30.6,27.4,29.00,NNE,22,3.4,3.4,88,0.00,,,0.00,VWS V14.01,2013-02-28 11:26:00,
2013-02-28 06:27:00,30.6,27.4,29.00,NE,45,4.3,4.9,88,0.00,,,0.00,VWS V14.01,2013-02-28 11:27:00,
2013-02-28 06:28:00,30.6,27.4,29.00,NNE,22,4.7,5.4,88,0.00,,,0.00,VWS V14.01,2013-02-28 11:28:00,
2013-02-28 06:29:00,30.6,27.4,29.00,NE,45,3.4,4.7,88,0.00,,,0.00,VWS V14.01,2013-02-28 11:29:00,
2013-02-28 06:30:00,30.6,27.4,29.00,North,0,4.0,4.9,88,0.00,,,0.00,VWS V14.01,2013-02-28 11:30:00,
2013-02-28 06:31:00,30.6,27.4,29.00,North,0,4.3,6.7,88,0.00,,,0.00,VWS V14.01,2013-02-28 11:31:00,
2013-02-28 06:32:00,30.6,27.4,29.00,North,0,3.8,4.3,88,0.00,,,0.00,VWS V14.01,2013-02-28 11:32:00,
2013-02-28 06:33:00,30.6,27.4,29.00,NNE,22,3.4,3.8,88,0.00,,,0.00,VWS V14.01,2013-02-28 11:33:00,
2013-02-28 06:34:00,30.6,27.2,29.00,NNW,338,2.7,3.4,87,0.00,,,0.00,VWS V14.01,2013-02-28 11:34:00,
2013-02-28 06:35:00,30.6,27.2,29.00,NNE,22,3.8,3.8,87,0.00,,,0.00,VWS V14.01,2013-02-28 11:35:00,
2013-02-28 06:36:00,30.6,27.2,29.00,NNE,22,2.0,3.8,87,0.00,,,0.00,VWS V14.01,2013-02-28 11:36:00,
2013-02-28 06:37:00,30.6,27.2,29.03,North,0,4.0,4.0,87,0.00,,,0.00,VWS V14.01,2013-02-28 11:37:00,
2013-02-28 06:38:00,30.6,27.2,29.03,ENE,68,6.3,6.3,87,0.00,,,0.00,VWS V14.01,2013-02-28 11:38:00,
2013-02-28 06:39:00,30.6,27.2,29.03,NNW,338,2.9,6.3,87,0.00,,,0.00,VWS V14.01,2013-02-28 11:39:00,
2013-02-28 06:40:00,30.6,27.2,29.03,North,0,3.8,3.8,87,0.00,,,0.00,VWS V14.01,2013-02-28 11:40:00,
2013-02-28 06:41:00,30.6,27.2,29.03,NW,315,0.0,3.8,87,0.00,,,0.00,VWS V14.01,2013-02-28 11:41:00,
2013-02-28 06:42:00,30.6,27.2,29.03,NE,45,4.3,4.3,87,0.00,,,0.00,VWS V14.01,2013-02-28 11:42:00,
2013-02-28 06:43:00,30.6,27.2,29.03,NE,45,3.4,5.4,87,0.00,,,0.00,VWS V14.01,2013-02-28 11:43:00,
2013-02-28 06:44:00,30.6,27.2,29.03,North,0,4.3,4.3,87,0.00,,,0.00,VWS V14.01,2013-02-28 11:44:00,
2013-02-28 06:45:00,30.6,27.2,29.03,NNW,338,2.7,4.3,87,0.00,,,0.00,VWS V14.01,2013-02-28 11:45:00,
2013-02-28 06:46:00,30.6,27.2,29.03,NNW,338,4.0,5.8,87,0.00,,,0.00,VWS V14.01,2013-02-28 11:46:00,
2013-02-28 06:47:00,30.6,26.9,29.03,ENE,68,2.2,5.8,86,0.00,,,0.00,VWS V14.01,2013-02-28 11:47:00,
2013-02-28 06:48:00,29.8,26.5,29.06,NNE,22,4.9,5.6,87,0.00,,,0.00,VWS V14.01,2013-02-28 11:48:00,
2013-02-28 06:49:00,30.4,26.7,29.03,NE,45,3.8,3.8,86,0.00,,,0.00,VWS V14.01,2013-02-28 11:49:00,
2013-02-28 06:50:00,30.4,26.7,29.03,North,0,2.9,3.8,86,0.00,,,0.00,VWS V14.01,2013-02-28 11:50:00,
2013-02-28 06:51:00,30.4,26.7,29.03,North,0,2.9,4.0,86,0.00,,,0.00,VWS V14.01,2013-02-28 11:51:00,
2013-02-28 06:52:00,30.4,26.7,29.03,North,0,4.3,4.3,86,0.00,,,0.00,VWS V14.01,2013-02-28 11:52:00,
2013-02-28 06:53:00,30.4,26.7,29.03,NE,45,3.4,4.3,86,0.00,,,0.00,VWS V14.01,2013-02-28 11:53:00,
2013-02-28 06:54:00,30.4,26.7,29.03,NNE,22,3.4,5.4,86,0.00,,,0.00,VWS V14.01,2013-02-28 11:54:00,
2013-02-28 06:55:00,30.4,26.7,29.03,NNE,22,3.4,3.8,86,0.00,,,0.00,VWS V14.01,2013-02-28 11:55:00,
2013-02-28 06:56:00,30.4,26.7,29.03,ENE,68,3.8,4.3,86,0.00,,,0.00,VWS V14.01,2013-02-28 11:56:00,
2013-02-28 06:57:00,29.8,26.2,29.09,North,0,3.6,6.5,86,0.00,,,0.00,VWS V14.01,2013-02-28 11:57:00,
2013-02-28 06:58:00,30.4,26.7,29.03,NNW,338,3.6,4.3,86,0.00,,,0.00,VWS V14.01,2013-02-28 11:58:00,
2013-02-28 06:59:00,30.4,26.7,29.03,North,0,4.3,4.3,86,0.00,,,0.00,VWS V14.01,2013-02-28 11:59:00,
2013-02-28 07:00:00,30.4,26.7,29.03,North,0,3.1,4.3,86,0.00,,,0.00,VWS V14.01,2013-02-28 12:00:00,
2013-02-28 07:01:00,30.4,26.7,29.03,NNW,338,2.5,3.4,86,0.00,,,0.00,VWS V14.01,2013-02-28 12:01:00,
2013-02-28 07:02:00,30.4,26.7,29.03,NNE,22,2.7,3.4,86,0.00,,,0.00,VWS V14.01,2013-02-28 12:02:00,
2013-02-28 07:03:00,30.4,26.7,29.03,NNE,22,8.5,8.5,86,0.00,,,0.00,VWS V14.01,2013-02-28 12:03:00,
2013-02-28 07:04:00,30.4,26.7,29.03,NNE,22,2.7,8.5,86,0.00,,,0.00,VWS V14.01,2013-02-28 12:04:00,
2013-02-28 07:05:00,30.2,26.5,29.03,North,0,5.4,5.4,86,0.00,,,0.00,VWS V14.01,2013-02-28 12:05:00,
2013-02-28 07:06:00,30.2,26.5,29.03,East,90,2.7,3.1,86,0.00,,,0.00,VWS V14.01,2013-02-28 12:06:00,
2013-02-28 07:07:00,30.2,26.5,29.06,North,0,3.8,3.8,86,0.00,,,0.00,VWS V14.01,2013-02-28 12:07:00,
2013-02-28 07:08:00,30.2,26.5,29.06,North,0,3.4,4.7,86,0.00,,,0.00,VWS V14.01,2013-02-28 12:08:00,
2013-02-28 07:09:00,30.2,26.5,29.06,NNW,338,2.7,3.4,86,0.00,,,0.00,VWS V14.01,2013-02-28 12:09:00,
2013-02-28 07:10:00,30.2,26.5,29.06,NNW,338,4.7,4.9,86,0.00,,,0.00,VWS V14.01,2013-02-28 12:10:00,
2013-02-28 07:11:00,30.0,26.4,29.06,NNE,22,3.6,4.0,86,0.00,,,0.00,VWS V14.01,2013-02-28 12:11:00,
2013-02-28 07:12:00,30.0,26.4,29.06,North,0,3.6,4.9,86,0.00,,,0.00,VWS V14.01,2013-02-28 12:12:00,
2013-02-28 07:13:00,30.0,26.4,29.06,NNE,22,3.1,4.9,86,0.00,,,0.00,VWS V14.01,2013-02-28 12:13:00,
2013-02-28 07:14:00,30.0,26.4,29.06,NNE,22,2.9,3.1,86,0.00,,,0.00,VWS V14.01,2013-02-28 12:14:00,
2013-02-28 07:15:00,30.2,26.2,29.12,North,0,4.0,5.4,85,0.00,,,0.00,VWS V14.01,2013-02-28 12:15:00,
2013-02-28 07:16:00,30.0,26.4,29.06,NNE,22,3.4,4.0,86,0.00,,,0.00,VWS V14.01,2013-02-28 12:16:00,
2013-02-28 07:17:00,30.0,26.4,29.06,NNE,22,2.0,4.0,86,0.00,,,0.00,VWS V14.01,2013-02-28 12:17:00,
2013-02-28 07:18:00,29.8,26.2,29.06,NNE,22,4.0,5.4,86,0.00,,,0.00,VWS V14.01,2013-02-28 12:18:00,
2013-02-28 07:19:00,29.8,26.2,29.06,NNW,338,2.7,5.8,86,0.00,,,0.00,VWS V14.01,2013-02-28 12:19:00,
2013-02-28 07:20:00,29.8,26.2,29.06,NNE,22,3.1,3.6,86,0.00,,,0.00,VWS V14.01,2013-02-28 12:20:00,
2013-02-28 07:21:00,29.8,26.2,29.06,NE,45,2.0,5.8,86,0.00,,,0.00,VWS V14.01,2013-02-28 12:21:00,
2013-02-28 07:22:00,29.8,26.2,29.06,North,0,3.6,5.8,86,0.00,,,0.00,VWS V14.01,2013-02-28 12:22:00,
2013-02-28 07:23:00,29.8,26.2,29.06,NW,315,4.0,4.3,86,0.00,,,0.00,VWS V14.01,2013-02-28 12:23:00,
2013-02-28 07:24:00,29.8,26.2,29.06,NNW,338,3.4,5.4,86,0.00,,,0.00,VWS V14.01,2013-02-28 12:24:00,
2013-02-28 07:25:00,29.8,26.2,29.06,NNE,22,7.4,7.4,86,0.00,,,0.00,VWS V14.01,2013-02-28 12:25:00,
2013-02-28 07:26:00,29.7,26.0,29.06,NNE,22,3.4,3.4,86,0.00,,,0.00,VWS V14.01,2013-02-28 12:26:00,
2013-02-28 07:27:00,29.7,26.0,29.06,North,0,3.8,3.8,86,0.00,,,0.00,VWS V14.01,2013-02-28 12:27:00,
2013-02-28 07:28:00,29.7,26.0,29.06,North,0,3.8,3.8,86,0.00,,,0.00,VWS V14.01,2013-02-28 12:28:00,
2013-02-28 07:29:00,29.7,26.0,29.06,North,0,2.7,3.8,86,0.00,,,0.00,VWS V14.01,2013-02-28 12:29:00,
2013-02-28 07:30:00,29.7,26.0,29.06,North,0,2.9,2.9,86,0.00,,,0.00,VWS V14.01,2013-02-28 12:30:00,
2013-02-28 07:31:00,29.8,26.5,29.06,NNE,22,3.1,3.6,87,0.00,,,0.00,VWS V14.01,2013-02-28 12:31:00,
2013-02-28 07:32:00,29.8,26.5,29.06,NNE,22,3.1,3.6,87,0.00,,,0.00,VWS V14.01,2013-02-28 12:32:00,
2013-02-28 07:33:00,29.8,26.5,29.06,North,0,4.9,4.9,87,0.00,,,0.00,VWS V14.01,2013-02-28 12:33:00,
2013-02-28 07:34:00,29.7,26.3,29.06,NNW,338,3.6,6.3,87,0.00,,,0.00,VWS V14.01,2013-02-28 12:34:00,
2013-02-28 07:35:00,29.8,26.5,29.06,North,0,4.0,7.6,87,0.00,,,0.00,VWS V14.01,2013-02-28 12:35:00,
2013-02-28 07:36:00,29.8,26.5,29.06,North,0,4.3,4.3,87,0.00,,,0.00,VWS V14.01,2013-02-28 12:36:00,
2013-02-28 07:37:00,29.8,26.5,29.06,NNE,22,4.3,4.3,87,0.00,,,0.00,VWS V14.01,2013-02-28 12:37:00,
2013-02-28 07:38:00,29.8,26.5,29.06,NNE,22,5.6,5.6,87,0.00,,,0.00,VWS V14.01,2013-02-28 12:38:00,
2013-02-28 07:39:00,29.8,26.5,29.06,NNE,22,3.6,5.6,87,0.00,,,0.00,VWS V14.01,2013-02-28 12:39:00,
2013-02-28 07:40:00,30.6,26.3,29.09,NNW,338,3.6,4.0,84,0.00,,,0.00,VWS V14.01,2013-02-28 12:40:00,
2013-02-28 07:41:00,29.8,26.5,29.06,North,0,2.9,4.3,87,0.00,,,0.00,VWS V14.01,2013-02-28 12:41:00,
2013-02-28 07:42:00,29.8,26.5,29.06,NNE,22,3.8,4.3,87,0.00,,,0.00,VWS V14.01,2013-02-28 12:42:00,
2013-02-28 07:43:00,29.8,26.5,29.06,NNE,22,2.7,4.3,87,0.00,,,0.00,VWS V14.01,2013-02-28 12:43:00,
2013-02-28 07:44:00,29.8,26.5,29.06,NNE,22,2.7,2.7,87,0.00,,,0.00,VWS V14.01,2013-02-28 12:44:00,
2013-02-28 07:45:00,29.8,26.5,29.06,NNW,338,2.9,4.3,87,0.00,,,0.00,VWS V14.01,2013-02-28 12:45:00,
2013-02-28 07:46:00,29.8,26.5,29.06,North,0,2.5,8.5,87,0.00,,,0.00,VWS V14.01,2013-02-28 12:46:00,
2013-02-28 07:47:00,29.8,26.5,29.06,North,0,2.9,8.5,87,0.00,,,0.00,VWS V14.01,2013-02-28 12:47:00,
2013-02-28 07:48:00,29.8,26.5,29.06,NNE,22,4.9,5.6,87,0.00,,,0.00,VWS V14.01,2013-02-28 12:48:00,
2013-02-28 07:49:00,29.8,26.5,29.06,North,0,4.9,4.9,87,0.00,,,0.00,VWS V14.01,2013-02-28 12:49:00,
2013-02-28 07:50:00,30.2,25.7,29.09,NNE,22,5.4,5.4,83,0.00,,,0.00,VWS V14.01,2013-02-28 12:50:00,
2013-02-28 07:51:00,29.8,26.2,29.06,North,0,4.3,6.0,86,0.00,,,0.00,VWS V14.01,2013-02-28 12:51:00,
2013-02-28 07:52:00,29.8,26.2,29.06,North,0,2.7,6.0,86,0.00,,,0.00,VWS V14.01,2013-02-28 12:52:00,
2013-02-28 07:53:00,29.8,26.2,29.09,NNE,22,2.5,3.6,86,0.00,,,0.00,VWS V14.01,2013-02-28 12:53:00,
2013-02-28 07:54:00,29.8,26.2,29.09,NNE,22,3.6,4.0,86,0.00,,,0.00,VWS V14.01,2013-02-28 12:54:00,
2013-02-28 07:55:00,30.6,25.7,29.09,NNE,22,4.0,4.7,82,0.00,,,0.00,VWS V14.01,2013-02-28 12:55:00,
2013-02-28 07:56:00,29.8,26.2,29.09,NNE,22,4.7,6.5,86,0.00,,,0.00,VWS V14.01,2013-02-28 12:56:00,
2013-02-28 07:57:00,29.8,26.2,29.09,North,0,3.6,6.5,86,0.00,,,0.00,VWS V14.01,2013-02-28 12:57:00,
2013-02-28 07:58:00,30.0,26.4,29.09,North,0,3.6,3.6,86,0.00,,,0.00,VWS V14.01,2013-02-28 12:58:00,
2013-02-28 07:59:00,30.0,26.4,29.09,NNW,338,2.9,3.6,86,0.00,,,0.00,VWS V14.01,2013-02-28 12:59:00,
2013-02-28 08:00:00,30.0,26.4,29.09,North,0,2.9,3.8,86,0.00,,,0.00,VWS V14.01,2013-02-28 13:00:00,
2013-02-28 08:01:00,30.0,26.4,29.09,NW,315,4.5,4.5,86,0.00,,,0.00,VWS V14.01,2013-02-28 13:01:00,
2013-02-28 08:02:00,30.0,26.4,29.09,NW,315,4.5,4.5,86,0.00,,,0.00,VWS V14.01,2013-02-28 13:02:00,
2013-02-28 08:03:00,30.0,26.4,29.09,North,0,4.3,6.3,86,0.00,,,0.00,VWS V14.01,2013-02-28 13:03:00,
2013-02-28 08:04:00,30.0,26.1,29.09,North,0,2.7,5.6,85,0.00,,,0.00,VWS V14.01,2013-02-28 13:04:00,
2013-02-28 08:05:00,30.0,26.1,29.09,NNE,22,2.9,5.8,85,0.00,,,0.00,VWS V14.01,2013-02-28 13:05:00,
2013-02-28 08:06:00,30.0,26.1,29.12,NNW,338,4.0,4.0,85,0.00,,,0.00,VWS V14.01,2013-02-28 13:06:00,
2013-02-28 08:07:00,30.0,26.1,29.12,NNE,22,4.0,4.0,85,0.00,,,0.00,VWS V14.01,2013-02-28 13:07:00,
2013-02-28 08:08:00,30.0,26.1,29.12,North,0,3.8,4.3,85,0.00,,,0.00,VWS V14.01,2013-02-28 13:08:00,
2013-02-28 08:09:00,30.0,26.1,29.12,NNE,22,3.6,3.8,85,0.00,,,0.00,VWS V14.01,2013-02-28 13:09:00,
2013-02-28 08:10:00,30.2,26.2,29.12,NE,45,3.4,3.6,85,0.00,,,0.00,VWS V14.01,2013-02-28 13:10:00,
2013-02-28 08:11:00,30.2,26.2,29.12,NNW,338,2.7,3.8,85,0.00,,,0.00,VWS V14.01,2013-02-28 13:11:00,
2013-02-28 08:12:00,30.2,26.2,29.12,NNW,338,2.7,3.8,85,0.00,,,0.00,VWS V14.01,2013-02-28 13:12:00,
2013-02-28 08:13:00,30.2,26.2,29.12,NNE,22,3.6,4.0,85,0.00,,,0.00,VWS V14.01,2013-02-28 13:13:00,
2013-02-28 08:14:00,30.2,26.2,29.12,North,0,5.4,5.4,85,0.00,,,0.00,VWS V14.01,2013-02-28 13:14:00,
2013-02-28 08:15:00,30.2,26.2,29.12,North,0,4.0,5.4,85,0.00,,,0.00,VWS V14.01,2013-02-28 13:15:00,
2013-02-28 08:16:00,30.2,26.2,29.12,North,0,4.3,4.3,85,0.00,,,0.00,VWS V14.01,2013-02-28 13:16:00,
2013-02-28 08:17:00,30.2,26.2,29.12,NW,315,3.8,4.3,85,0.00,,,0.00,VWS V14.01,2013-02-28 13:17:00,
2013-02-28 08:18:00,30.2,26.2,29.12,North,0,3.1,3.4,85,0.00,,,0.00,VWS V14.01,2013-02-28 13:18:00,
2013-02-28 08:19:00,30.2,26.2,29.12,North,0,3.4,4.7,85,0.00,,,0.00,VWS V14.01,2013-02-28 13:19:00,
2013-02-28 08:20:00,30.4,26.1,29.12,North,0,3.4,3.4,84,0.00,,,0.00,VWS V14.01,2013-02-28 13:20:00,
2013-02-28 08:21:00,30.4,26.1,29.12,NNW,338,3.4,3.6,84,0.00,,,0.00,VWS V14.01,2013-02-28 13:21:00,
2013-02-28 08:22:00,30.4,26.1,29.09,NE,45,2.7,3.8,84,0.00,,,0.00,VWS V14.01,2013-02-28 13:22:00,
2013-02-28 08:23:00,30.4,26.1,29.09,North,0,4.7,4.7,84,0.00,,,0.00,VWS V14.01,2013-02-28 13:23:00,
2013-02-28 08:24:00,30.4,26.1,29.09,NNW,338,3.4,4.7,84,0.00,,,0.00,VWS V14.01,2013-02-28 13:24:00,
2013-02-28 08:25:00,30.4,26.1,29.09,NNW,338,2.2,3.6,84,0.00,,,0.00,VWS V14.01,2013-02-28 13:25:00,
2013-02-28 08:26:00,30.4,26.1,29.09,NNW,338,1.3,2.2,84,0.00,,,0.00,VWS V14.01,2013-02-28 13:26:00,
2013-02-28 08:27:00,30.4,26.1,29.09,NNE,22,4.0,4.0,84,0.00,,,0.00,VWS V14.01,2013-02-28 13:27:00,
2013-02-28 08:28:00,30.6,26.3,29.09,NNW,338,1.3,3.8,84,0.00,,,0.00,VWS V14.01,2013-02-28 13:28:00,
2013-02-28 08:29:00,30.6,26.3,29.09,NNW,338,3.4,3.6,84,0.00,,,0.00,VWS V14.01,2013-02-28 13:29:00,
2013-02-28 08:30:00,30.7,26.5,29.09,NE,45,2.9,3.4,84,0.00,,,0.00,VWS V14.01,2013-02-28 13:30:00,
2013-02-28 08:31:00,30.7,26.5,29.09,NNW,338,2.5,3.1,84,0.00,,,0.00,VWS V14.01,2013-02-28 13:31:00,
2013-02-28 08:32:00,30.7,26.5,29.09,NE,45,2.5,3.1,84,0.00,,,0.00,VWS V14.01,2013-02-28 13:32:00,
2013-02-28 08:33:00,30.7,26.5,29.09,NNE,22,3.1,3.6,84,0.00,,,0.00,VWS V14.01,2013-02-28 13:33:00,
2013-02-28 08:34:00,30.7,26.5,29.09,North,0,1.1,3.1,84,0.00,,,0.00,VWS V14.01,2013-02-28 13:34:00,
2013-02-28 08:35:00,30.7,26.5,29.09,NE,45,2.5,3.6,84,0.00,,,0.00,VWS V14.01,2013-02-28 13:35:00,
2013-02-28 08:36:00,30.6,26.3,29.09,ENE,68,3.1,4.0,84,0.00,,,0.00,VWS V14.01,2013-02-28 13:36:00,
2013-02-28 08:37:00,30.6,26.3,29.09,North,0,2.9,3.1,84,0.00,,,0.00,VWS V14.01,2013-02-28 13:37:00,
2013-02-28 08:38:00,30.6,26.3,29.09,NNE,22,3.4,3.4,84,0.00,,,0.00,VWS V14.01,2013-02-28 13:38:00,
2013-02-28 08:39:00,30.6,26.3,29.09,NNE,22,4.0,4.3,84,0.00,,,0.00,VWS V14.01,2013-02-28 13:39:00,
2013-02-28 08:40:00,30.6,26.3,29.09,NNW,338,3.6,4.0,84,0.00,,,0.00,VWS V14.01,2013-02-28 13:40:00,
2013-02-28 08:41:00,30.4,25.9,29.09,NNE,22,2.7,3.6,83,0.00,,,0.00,VWS V14.01,2013-02-28 13:41:00,
2013-02-28 08:42:00,30.4,25.9,29.09,NNW,338,4.0,4.0,83,0.00,,,0.00,VWS V14.01,2013-02-28 13:42:00,
2013-02-28 08:43:00,30.4,25.9,29.09,North,0,6.0,6.0,83,0.00,,,0.00,VWS V14.01,2013-02-28 13:43:00,
2013-02-28 08:44:00,30.4,25.9,29.09,North,0,6.0,6.0,83,0.00,,,0.00,VWS V14.01,2013-02-28 13:44:00,
2013-02-28 08:45:00,30.4,25.9,29.09,NNW,338,3.4,6.0,83,0.00,,,0.00,VWS V14.01,2013-02-28 13:45:00,
2013-02-28 08:46:00,30.4,25.9,29.09,NNW,338,3.4,3.4,83,0.00,,,0.00,VWS V14.01,2013-02-28 13:46:00,
2013-02-28 08:47:00,30.2,25.7,29.09,NNE,22,3.6,3.8,83,0.00,,,0.00,VWS V14.01,2013-02-28 13:47:00,
2013-02-28 08:48:00,30.2,25.7,29.09,North,0,5.4,5.4,83,0.00,,,0.00,VWS V14.01,2013-02-28 13:48:00,
2013-02-28 08:49:00,30.2,25.7,29.09,NNE,22,4.3,5.4,83,0.00,,,0.00,VWS V14.01,2013-02-28 13:49:00,
2013-02-28 08:50:00,30.2,25.7,29.09,NNE,22,5.4,5.4,83,0.00,,,0.00,VWS V14.01,2013-02-28 13:50:00,
2013-02-28 08:51:00,30.4,25.5,29.09,North,0,3.6,5.4,82,0.00,,,0.00,VWS V14.01,2013-02-28 13:51:00,
2013-02-28 08:52:00,30.4,25.5,29.09,North,0,6.7,6.7,82,0.00,,,0.00,VWS V14.01,2013-02-28 13:52:00,
2013-02-28 08:53:00,30.4,25.5,29.09,North,0,6.7,6.7,82,0.00,,,0.00,VWS V14.01,2013-02-28 13:53:00,
2013-02-28 08:54:00,30.6,25.7,29.09,North,0,2.9,6.7,82,0.00,,,0.00,VWS V14.01,2013-02-28 13:54:00,
2013-02-28 08:55:00,30.6,25.7,29.09,NNE,22,4.0,4.7,82,0.00,,,0.00,VWS V14.01,2013-02-28 13:55:00,
2013-02-28 08:56:00,30.7,25.9,29.09,North,0,2.7,4.0,82,0.00,,,0.00,VWS V14.01,2013-02-28 13:56:00,
2013-02-28 08:57:00,30.7,25.9,29.09,North,0,2.9,2.9,82,0.00,,,0.00,VWS V14.01,2013-02-28 13:57:00,
2013-02-28 08:58:00,30.7,25.9,29.09,North,0,3.6,3.6,82,0.00,,,0.00,VWS V14.01,2013-02-28 13:58:00,
2013-02-28 08:59:00,30.7,25.9,29.09,NNE,22,3.4,3.6,82,0.00,,,0.00,VWS V14.01,2013-02-28 13:59:00,
2013-02-28 09:00:00,30.7,25.6,29.09,NNW,338,5.6,5.6,81,0.00,,,0.00,VWS V14.01,2013-02-28 14:00:00,
2013-02-28 09:01:00,30.7,25.6,29.09,NNE,22,3.1,5.6,81,0.00,,,0.00,VWS V14.01,2013-02-28 14:01:00,
2013-02-28 09:02:00,30.7,25.6,29.09,NNE,22,3.4,3.4,81,0.00,,,0.00,VWS V14.01,2013-02-28 14:02:00,
2013-02-28 09:03:00,30.9,25.8,29.09,NNE,22,2.0,3.8,81,0.00,,,0.00,VWS V14.01,2013-02-28 14:03:00,
2013-02-28 09:04:00,30.9,25.8,29.09,NE,45,2.0,2.0,81,0.00,,,0.00,VWS V14.01,2013-02-28 14:04:00,
2013-02-28 09:05:00,30.9,25.8,29.09,North,0,3.1,3.1,81,0.00,,,0.00,VWS V14.01,2013-02-28 14:05:00,
2013-02-28 09:06:00,31.1,26.0,29.09,North,0,2.7,3.1,81,0.00,,,0.00,VWS V14.01,2013-02-28 14:06:00,
2013-02-28 09:07:00,31.1,25.7,29.09,North,0,6.0,6.0,80,0.00,,,0.00,VWS V14.01,2013-02-28 14:07:00,
2013-02-28 09:08:00,31.3,25.8,29.09,North,0,2.9,6.0,80,0.00,,,0.00,VWS V14.01,2013-02-28 14:08:00,
2013-02-28 09:09:00,31.3,25.8,29.09,NNE,22,4.7,4.7,80,0.00,,,0.00,VWS V14.01,2013-02-28 14:09:00,
2013-02-28 09:10:00,32.5,25.2,29.12,NNW,338,4.9,4.9,74,0.00,,,0.00,VWS V14.01,2013-02-28 14:10:00,
2013-02-28 09:11:00,31.1,25.7,29.09,North,0,2.7,4.7,80,0.00,,,0.00,VWS V14.01,2013-02-28 14:11:00,
2013-02-28 09:12:00,31.3,25.5,29.09,North,0,2.7,4.3,79,0.00,,,0.00,VWS V14.01,2013-02-28 14:12:00,
2013-02-28 09:13:00,31.3,25.5,29.09,NNW,338,4.7,4.7,79,0.00,,,0.00,VWS V14.01,2013-02-28 14:13:00,
2013-02-28 09:14:00,31.3,25.5,29.09,NNE,22,3.6,4.7,79,0.00,,,0.00,VWS V14.01,2013-02-28 14:14:00,
2013-02-28 09:15:00,31.5,25.7,29.09,NNE,22,2.5,3.6,79,0.00,,,0.00,VWS V14.01,2013-02-28 14:15:00,
2013-02-28 09:16:00,31.5,25.7,29.09,NNE,22,2.7,2.7,79,0.00,,,0.00,VWS V14.01,2013-02-28 14:16:00,
2013-02-28 09:17:00,31.6,25.9,29.09,NW,315,2.7,2.7,79,0.00,,,0.00,VWS V14.01,2013-02-28 14:17:00,
2013-02-28 09:18:00,31.8,26.1,29.09,North,0,6.0,6.0,79,0.00,,,0.00,VWS V14.01,2013-02-28 14:18:00,
2013-02-28 09:19:00,31.8,26.1,29.09,NNE,22,2.5,6.0,79,0.00,,,0.00,VWS V14.01,2013-02-28 14:19:00,
2013-02-28 09:20:00,31.8,26.1,29.09,NNE,22,6.5,6.5,79,0.00,,,0.00,VWS V14.01,2013-02-28 14:20:00,
2013-02-28 09:21:00,32.0,25.9,29.09,NNE,22,1.1,6.5,78,0.00,,,0.00,VWS V14.01,2013-02-28 14:21:00,
2013-02-28 09:22:00,32.0,26.2,29.12,NNW,338,7.2,7.2,79,0.00,,,0.00,VWS V14.01,2013-02-28 14:22:00,
2013-02-28 09:23:00,32.0,26.2,29.12,NNE,22,2.9,9.6,79,0.00,,,0.00,VWS V14.01,2013-02-28 14:23:00,
2013-02-28 09:24:00,32.2,26.4,29.12,North,0,1.6,3.1,79,0.00,,,0.00,VWS V14.01,2013-02-28 14:24:00,
2013-02-28 09:25:00,32.2,26.4,29.12,North,0,1.6,2.5,79,0.00,,,0.00,VWS V14.01,2013-02-28 14:25:00,
2013-02-28 09:26:00,32.2,26.4,29.12,North,0,1.3,2.5,79,0.00,,,0.00,VWS V14.01,2013-02-28 14:26:00,
2013-02-28 09:27:00,32.2,26.4,29.12,WNW,292,2.9,3.8,79,0.00,,,0.00,VWS V14.01,2013-02-28 14:27:00,
2013-02-28 09:28:00,32.4,26.3,29.12,NNE,22,3.1,3.8,78,0.00,,,0.00,VWS V14.01,2013-02-28 14:28:00,
2013-02-28 09:29:00,32.4,22.6,29.12,NNW,338,2.2,2.9,67,0.00,,,0.00,VWS V14.01,2013-02-28 14:29:00,
2013-02-28 09:30:00,32.2,26.1,29.12,NW,315,2.7,4.9,78,0.00,,,0.00,VWS V14.01,2013-02-28 14:30:00,
2013-02-28 09:31:00,32.2,26.1,29.12,NW,315,2.7,2.7,78,0.00,,,0.00,VWS V14.01,2013-02-28 14:31:00,
2013-02-28 09:32:00,32.2,26.1,29.12,NE,45,2.2,2.7,78,0.00,,,0.00,VWS V14.01,2013-02-28 14:32:00,
2013-02-28 09:33:00,32.2,26.1,29.12,NNE,22,2.2,2.7,78,0.00,,,0.00,VWS V14.01,2013-02-28 14:33:00,
2013-02-28 09:34:00,32.2,25.8,29.12,NE,45,2.9,6.5,77,0.00,,,0.00,VWS V14.01,2013-02-28 14:34:00,
2013-02-28 09:35:00,32.2,25.8,29.12,North,0,2.7,2.9,77,0.00,,,0.00,VWS V14.01,2013-02-28 14:35:00,
2013-02-28 09:36:00,32.0,25.6,29.12,WNW,292,3.1,3.8,77,0.00,,,0.00,VWS V14.01,2013-02-28 14:36:00,
2013-02-28 09:37:00,32.2,25.8,29.12,NW,315,4.0,4.0,77,0.00,,,0.00,VWS V14.01,2013-02-28 14:37:00,
2013-02-28 09:38:00,32.2,25.8,29.12,NNW,338,2.2,2.2,77,0.00,,,0.00,VWS V14.01,2013-02-28 14:38:00,
2013-02-28 09:39:00,32.2,25.8,29.12,NNW,338,2.9,4.7,77,0.00,,,0.00,VWS V14.01,2013-02-28 14:39:00,
2013-02-28 09:40:00,32.2,25.8,29.12,NW,315,3.6,3.6,77,0.00,,,0.00,VWS V14.01,2013-02-28 14:40:00,
2013-02-28 09:41:00,32.2,25.8,29.12,North,0,2.7,3.6,77,0.00,,,0.00,VWS V14.01,2013-02-28 14:41:00,
2013-02-28 09:42:00,32.5,26.1,29.12,WNW,292,2.7,2.7,77,0.00,,,0.00,VWS V14.01,2013-02-28 14:42:00,
2013-02-28 09:43:00,32.5,26.1,29.12,WNW,292,2.7,2.7,77,0.00,,,0.00,VWS V14.01,2013-02-28 14:43:00,
2013-02-28 09:44:00,32.5,26.1,29.12,North,0,3.8,5.8,77,0.00,,,0.00,VWS V14.01,2013-02-28 14:44:00,
2013-02-28 09:45:00,32.5,26.1,29.12,NNW,338,2.5,3.8,77,0.00,,,0.00,VWS V14.01,2013-02-28 14:45:00,
2013-02-28 09:46:00,32.5,26.1,29.12,North,0,1.6,2.5,77,0.00,,,0.00,VWS V14.01,2013-02-28 14:46:00,
2013-02-28 09:47:00,32.5,26.1,29.12,NNW,338,2.5,2.5,77,0.00,,,0.00,VWS V14.01,2013-02-28 14:47:00,
2013-02-28 09:48:00,32.5,26.1,29.12,NNE,22,2.7,2.7,77,0.00,,,0.00,VWS V14.01,2013-02-28 14:48:00,
2013-02-28 09:49:00,32.5,22.5,29.12,NNW,338,3.6,6.3,66,0.00,,,0.00,VWS V14.01,2013-02-28 14:49:00,
2013-02-28 09:50:00,32.5,25.8,29.12,WNW,292,2.7,2.7,76,0.00,,,0.00,VWS V14.01,2013-02-28 14:50:00,
2013-02-28 09:51:00,32.5,25.8,29.12,North,0,3.1,3.8,76,0.00,,,0.00,VWS V14.01,2013-02-28 14:51:00,
2013-02-28 09:52:00,32.5,25.8,29.12,North,0,3.4,3.4,76,0.00,,,0.00,VWS V14.01,2013-02-28 14:52:00,
2013-02-28 09:53:00,32.5,25.8,29.12,NNE,22,0.9,3.4,76,0.00,,,0.00,VWS V14.01,2013-02-28 14:53:00,
2013-02-28 09:54:00,32.5,25.8,29.12,NNE,22,0.9,0.9,76,0.00,,,0.00,VWS V14.01,2013-02-28 14:54:00,
2013-02-28 09:55:00,32.5,25.5,29.12,NNW,338,1.1,2.9,75,0.00,,,0.00,VWS V14.01,2013-02-28 14:55:00,
2013-02-28 09:56:00,32.5,25.5,29.12,NNW,338,3.8,3.8,75,0.00,,,0.00,VWS V14.01,2013-02-28 14:56:00,
2013-02-28 09:57:00,32.5,25.5,29.12,North,0,3.1,3.1,75,0.00,,,0.00,VWS V14.01,2013-02-28 14:57:00,
2013-02-28 09:58:00,32.5,25.5,29.12,WNW,292,2.9,3.1,75,0.00,,,0.00,VWS V14.01,2013-02-28 14:58:00,
2013-02-28 09:59:00,32.5,25.5,29.12,NE,45,2.9,2.9,75,0.00,,,0.00,VWS V14.01,2013-02-28 14:59:00,
2013-02-28 10:00:00,32.5,25.5,29.12,NE,45,2.9,2.9,75,0.00,,,0.00,VWS V14.01,2013-02-28 15:00:00,
2013-02-28 10:01:00,32.7,25.7,29.12,NNW,338,1.3,3.1,75,0.00,,,0.00,VWS V14.01,2013-02-28 15:01:00,
2013-02-28 10:02:00,32.7,25.7,29.12,North,0,1.1,3.4,75,0.00,,,0.00,VWS V14.01,2013-02-28 15:02:00,
2013-02-28 10:03:00,32.7,25.7,29.12,ENE,68,3.1,4.0,75,0.00,,,0.00,VWS V14.01,2013-02-28 15:03:00,
2013-02-28 10:04:00,32.7,25.7,29.12,NW,315,0.0,3.4,75,0.00,,,0.00,VWS V14.01,2013-02-28 15:04:00,
2013-02-28 10:05:00,32.5,25.2,29.12,NE,45,1.6,2.7,74,0.00,,,0.00,VWS V14.01,2013-02-28 15:05:00,
2013-02-28 10:06:00,32.5,25.2,29.12,NE,45,1.6,1.6,74,0.00,,,0.00,VWS V14.01,2013-02-28 15:06:00,
2013-02-28 10:07:00,32.5,25.2,29.12,North,0,2.7,2.9,74,0.00,,,0.00,VWS V14.01,2013-02-28 15:07:00,
2013-02-28 10:08:00,32.5,25.2,29.12,NNE,22,2.9,2.9,74,0.00,,,0.00,VWS V14.01,2013-02-28 15:08:00,
2013-02-28 10:09:00,32.7,21.1,29.12,NNE,22,2.7,3.4,62,0.00,,,0.00,VWS V14.01,2013-02-28 15:09:00,
2013-02-28 10:10:00,32.5,25.2,29.12,NNW,338,4.9,4.9,74,0.00,,,0.00,VWS V14.01,2013-02-28 15:10:00,
2013-02-28 10:11:00,32.5,25.2,29.12,NNE,22,1.6,4.9,74,0.00,,,0.00,VWS V14.01,2013-02-28 15:11:00,
2013-02-28 10:12:00,32.5,24.5,29.12,North,0,2.0,2.7,72,0.00,,,0.00,VWS V14.01,2013-02-28 15:12:00,
2013-02-28 10:13:00,32.5,24.5,29.12,North,0,2.0,2.7,72,0.00,,,0.00,VWS V14.01,2013-02-28 15:13:00,
2013-02-28 10:14:00,32.7,24.4,29.12,North,0,3.1,3.1,71,0.00,,,0.00,VWS V14.01,2013-02-28 15:14:00,
2013-02-28 10:15:00,32.7,24.4,29.12,NE,45,2.7,3.1,71,0.00,,,0.00,VWS V14.01,2013-02-28 15:15:00,
2013-02-28 10:16:00,32.5,24.2,29.12,North,0,5.6,5.6,71,0.00,,,0.00,VWS V14.01,2013-02-28 15:16:00,
2013-02-28 10:17:00,32.5,24.2,29.12,North,0,2.5,2.9,71,0.00,,,0.00,VWS V14.01,2013-02-28 15:17:00,
2013-02-28 10:18:00,32.5,24.2,29.12,North,0,2.5,2.9,71,0.00,,,0.00,VWS V14.01,2013-02-28 15:18:00,
2013-02-28 10:19:00,32.7,24.0,29.12,NNW,338,3.1,3.1,70,0.00,,,0.00,VWS V14.01,2013-02-28 15:19:00,
2013-02-28 10:20:00,32.5,23.9,29.12,North,0,4.7,4.7,70,0.00,,,0.00,VWS V14.01,2013-02-28 15:20:00,
2013-02-28 10:21:00,32.5,23.5,29.12,North,0,3.6,4.7,69,0.00,,,0.00,VWS V14.01,2013-02-28 15:21:00,
2013-02-28 10:22:00,32.7,24.0,29.12,NW,315,1.6,2.5,70,0.00,,,0.00,VWS V14.01,2013-02-28 15:22:00,
2013-02-28 10:23:00,32.7,24.0,29.12,NW,315,1.6,2.5,70,0.00,,,0.00,VWS V14.01,2013-02-28 15:23:00,
2013-02-28 10:24:00,32.7,24.0,29.12,NNE,22,2.9,2.9,70,0.00,,,0.00,VWS V14.01,2013-02-28 15:24:00,
2013-02-28 10:25:00,32.5,23.5,29.12,NNW,338,3.6,3.6,69,0.00,,,0.00,VWS V14.01,2013-02-28 15:25:00,
2013-02-28 10:26:00,32.5,23.5,29.12,NNE,22,2.0,3.6,69,0.00,,,0.00,VWS V14.01,2013-02-28 15:26:00,
2013-02-28 10:27:00,32.5,23.2,29.12,NNE,22,6.0,6.0,68,0.00,,,0.00,VWS V14.01,2013-02-28 15:27:00,
2013-02-28 10:28:00,32.5,23.2,29.12,NNE,22,2.9,6.0,68,0.00,,,0.00,VWS V14.01,2013-02-28 15:28:00,
2013-02-28 10:29:00,32.4,22.6,29.12,NNW,338,2.2,2.9,67,0.00,,,0.00,VWS V14.01,2013-02-28 15:29:00,
2013-02-28 10:30:00,32.5,22.8,29.12,North,0,3.1,4.3,67,0.00,,,0.00,VWS V14.01,2013-02-28 15:30:00,
2013-02-28 10:31:00,32.5,22.8,29.12,NNW,338,3.4,4.0,67,0.00,,,0.00,VWS V14.01,2013-02-28 15:31:00,
2013-02-28 10:32:00,32.5,22.8,29.12,NNE,22,2.9,4.3,67,0.00,,,0.00,VWS V14.01,2013-02-28 15:32:00,
2013-02-28 10:33:00,32.4,22.6,29.12,NE,45,4.0,4.3,67,0.00,,,0.00,VWS V14.01,2013-02-28 15:33:00,
2013-02-28 10:34:00,31.8,20.3,29.14,WNW,292,4.0,4.9,62,0.00,,,0.00,VWS V14.01,2013-02-28 15:34:00,
2013-02-28 10:35:00,32.4,22.3,29.12,WNW,292,2.5,3.6,66,0.00,,,0.00,VWS V14.01,2013-02-28 15:35:00,
2013-02-28 10:36:00,32.2,22.1,29.12,NNE,22,3.8,4.0,66,0.00,,,0.00,VWS V14.01,2013-02-28 15:36:00,
2013-02-28 10:37:00,31.8,20.3,29.14,NE,45,3.6,3.8,62,0.00,,,0.00,VWS V14.01,2013-02-28 15:37:00,
2013-02-28 10:38:00,32.2,22.1,29.12,NNE,22,2.5,3.8,66,0.00,,,0.00,VWS V14.01,2013-02-28 15:38:00,
2013-02-28 10:39:00,32.2,22.1,29.12,NNW,338,4.0,4.0,66,0.00,,,0.00,VWS V14.01,2013-02-28 15:39:00,
2013-02-28 10:40:00,32.2,22.1,29.12,ENE,68,2.7,4.0,66,0.00,,,0.00,VWS V14.01,2013-02-28 15:40:00,
2013-02-28 10:41:00,32.2,22.1,29.12,NNE,22,2.5,3.4,66,0.00,,,0.00,VWS V14.01,2013-02-28 15:41:00,
2013-02-28 10:42:00,32.2,22.1,29.12,NNW,338,2.9,4.3,66,0.00,,,0.00,VWS V14.01,2013-02-28 15:42:00,
2013-02-28 10:43:00,32.2,22.1,29.12,NNE,22,4.3,7.2,66,0.00,,,0.00,VWS V14.01,2013-02-28 15:43:00,
2013-02-28 10:44:00,32.2,22.1,29.12,NW,315,2.9,5.8,66,0.00,,,0.00,VWS V14.01,2013-02-28 15:44:00,
2013-02-28 10:45:00,32.0,20.9,29.14,WNW,292,3.6,3.6,63,0.00,,,0.00,VWS V14.01,2013-02-28 15:45:00,
2013-02-28 10:46:00,32.2,22.1,29.12,North,0,3.4,3.4,66,0.00,,,0.00,VWS V14.01,2013-02-28 15:46:00,
2013-02-28 10:47:00,32.2,22.1,29.12,NNE,22,4.3,5.4,66,0.00,,,0.00,VWS V14.01,2013-02-28 15:47:00,
2013-02-28 10:48:00,32.2,22.1,29.12,NNE,22,4.3,4.3,66,0.00,,,0.00,VWS V14.01,2013-02-28 15:48:00,
2013-02-28 10:49:00,32.5,22.5,29.12,NNW,338,3.6,6.3,66,0.00,,,0.00,VWS V14.01,2013-02-28 15:49:00,
2013-02-28 10:50:00,32.4,21.9,29.12,NNE,22,6.5,7.8,65,0.00,,,0.00,VWS V14.01,2013-02-28 15:50:00,
2013-02-28 10:51:00,32.4,21.6,29.12,NNW,338,4.0,6.5,64,0.00,,,0.00,VWS V14.01,2013-02-28 15:51:00,
2013-02-28 10:52:00,32.4,21.6,29.12,North,0,2.9,7.4,64,0.00,,,0.00,VWS V14.01,2013-02-28 15:52:00,
2013-02-28 10:53:00,32.4,21.6,29.12,North,0,2.9,2.9,64,0.00,,,0.00,VWS V14.01,2013-02-28 15:53:00,
2013-02-28 10:54:00,32.5,21.7,29.12,NNW,338,3.6,4.5,64,0.00,,,0.00,VWS V14.01,2013-02-28 15:54:00,
2013-02-28 10:55:00,32.2,21.0,29.14,NNW,338,5.4,5.4,63,0.00,,,0.00,VWS V14.01,2013-02-28 15:55:00,
2013-02-28 10:56:00,32.5,22.1,29.12,NNW,338,2.7,3.8,65,0.00,,,0.00,VWS V14.01,2013-02-28 15:56:00,
2013-02-28 10:57:00,32.7,22.3,29.12,NNW,338,3.8,3.8,65,0.00,,,0.00,VWS V14.01,2013-02-28 15:57:00,
2013-02-28 10:58:00,32.9,22.1,29.12,NE,45,3.8,3.8,64,0.00,,,0.00,VWS V14.01,2013-02-28 15:58:00,
2013-02-28 10:59:00,33.1,21.9,29.14,NNW,338,4.0,4.3,63,0.00,,,0.00,VWS V14.01,2013-02-28 15:59:00,
2013-02-28 11:00:00,33.1,22.2,29.12,WNW,292,3.6,3.8,64,0.00,,,0.00,VWS V14.01,2013-02-28 16:00:00,
2013-02-28 11:01:00,33.1,22.2,29.12,NNE,22,2.7,5.4,64,0.00,,,0.00,VWS V14.01,2013-02-28 16:01:00,
2013-02-28 11:02:00,33.1,22.2,29.12,NNE,22,8.7,8.7,64,0.00,,,0.00,VWS V14.01,2013-02-28 16:02:00,
2013-02-28 11:03:00,33.1,22.2,29.12,North,0,4.0,4.3,64,0.00,,,0.00,VWS V14.01,2013-02-28 16:03:00,
2013-02-28 11:04:00,32.9,21.7,29.12,NNE,22,3.1,4.3,63,0.00,,,0.00,VWS V14.01,2013-02-28 16:04:00,
2013-02-28 11:05:00,32.9,21.7,29.12,NNE,22,3.6,3.8,63,0.00,,,0.00,VWS V14.01,2013-02-28 16:05:00,
2013-02-28 11:06:00,32.9,21.7,29.12,NW,315,3.1,6.3,63,0.00,,,0.00,VWS V14.01,2013-02-28 16:06:00,
2013-02-28 11:07:00,32.7,21.1,29.12,NE,45,5.8,5.8,62,0.00,,,0.00,VWS V14.01,2013-02-28 16:07:00,
2013-02-28 11:08:00,32.7,21.1,29.12,North,0,3.1,3.4,62,0.00,,,0.00,VWS V14.01,2013-02-28 16:08:00,
2013-02-28 11:09:00,32.7,21.1,29.12,NNE,22,2.7,3.4,62,0.00,,,0.00,VWS V14.01,2013-02-28 16:09:00,
2013-02-28 11:10:00,32.7,21.5,29.12,NNW,338,2.7,4.0,63,0.00,,,0.00,VWS V14.01,2013-02-28 16:10:00,
2013-02-28 11:11:00,32.5,21.0,29.12,NW,315,2.7,5.8,62,0.00,,,0.00,VWS V14.01,2013-02-28 16:11:00,
2013-02-28 11:12:00,32.5,21.0,29.12,NNE,22,2.9,3.8,62,0.00,,,0.00,VWS V14.01,2013-02-28 16:12:00,
2013-02-28 11:13:00,32.2,20.6,29.12,NNW,338,2.0,4.0,62,0.00,,,0.00,VWS V14.01,2013-02-28 16:13:00,
2013-02-28 11:14:00,32.2,20.3,29.12,NNW,338,4.7,6.7,61,0.00,,,0.00,VWS V14.01,2013-02-28 16:14:00,
2013-02-28 11:15:00,32.0,20.1,29.12,NNW,338,4.3,4.7,61,0.00,,,0.00,VWS V14.01,2013-02-28 16:15:00,
2013-02-28 11:16:00,32.0,20.1,29.12,NNE,22,4.0,8.1,61,0.00,,,0.00,VWS V14.01,2013-02-28 16:16:00,
2013-02-28 11:17:00,31.8,19.9,29.12,NNW,338,5.4,5.4,61,0.00,,,0.00,VWS V14.01,2013-02-28 16:17:00,
2013-02-28 11:18:00,31.6,19.8,29.12,NNW,338,3.1,3.8,61,0.00,,,0.00,VWS V14.01,2013-02-28 16:18:00,
2013-02-28 11:19:00,31.6,19.8,29.12,WNW,292,2.0,3.8,61,0.00,,,0.00,VWS V14.01,2013-02-28 16:19:00,
2013-02-28 11:20:00,31.6,19.8,29.12,NNW,338,2.0,2.5,61,0.00,,,0.00,VWS V14.01,2013-02-28 16:20:00,
2013-02-28 11:21:00,31.6,19.8,29.12,North,0,2.0,3.1,61,0.00,,,0.00,VWS V14.01,2013-02-28 16:21:00,
2013-02-28 11:22:00,32.0,20.1,29.14,North,0,4.3,6.3,61,0.00,,,0.00,VWS V14.01,2013-02-28 16:22:00,
2013-02-28 11:23:00,31.8,19.9,29.14,NNW,338,3.4,3.6,61,0.00,,,0.00,VWS V14.01,2013-02-28 16:23:00,
2013-02-28 11:24:00,31.8,19.9,29.14,NNW,338,6.3,6.3,61,0.00,,,0.00,VWS V14.01,2013-02-28 16:24:00,
2013-02-28 11:25:00,32.0,20.5,29.14,NNE,22,4.9,6.3,62,0.00,,,0.00,VWS V14.01,2013-02-28 16:25:00,
2013-02-28 11:26:00,32.0,20.5,29.14,NNE,22,1.3,4.9,62,0.00,,,0.00,VWS V14.01,2013-02-28 16:26:00,
2013-02-28 11:27:00,32.0,20.1,29.14,North,0,3.1,4.3,61,0.00,,,0.00,VWS V14.01,2013-02-28 16:27:00,
2013-02-28 11:28:00,31.8,19.9,29.14,ENE,68,4.3,5.6,61,0.00,,,0.00,VWS V14.01,2013-02-28 16:28:00,
2013-02-28 11:29:00,32.0,20.5,29.14,ENE,68,4.0,5.6,62,0.00,,,0.00,VWS V14.01,2013-02-28 16:29:00,
2013-02-28 11:30:00,32.0,20.5,29.14,NE,45,2.9,4.0,62,0.00,,,0.00,VWS V14.01,2013-02-28 16:30:00,
2013-02-28 11:31:00,32.2,20.6,29.14,NNW,338,3.6,4.3,62,0.00,,,0.00,VWS V14.01,2013-02-28 16:31:00,
2013-02-28 11:32:00,32.2,20.6,29.14,NNW,338,3.6,6.0,62,0.00,,,0.00,VWS V14.01,2013-02-28 16:32:00,
2013-02-28 11:33:00,31.8,20.3,29.14,NW,315,4.9,4.9,62,0.00,,,0.00,VWS V14.01,2013-02-28 16:33:00,
2013-02-28 11:34:00,31.8,20.3,29.14,WNW,292,4.0,4.9,62,0.00,,,0.00,VWS V14.01,2013-02-28 16:34:00,
2013-02-28 11:35:00,31.8,20.3,29.14,NW,315,3.8,4.0,62,0.00,,,0.00,VWS V14.01,2013-02-28 16:35:00,
2013-02-28 11:36:00,31.8,20.3,29.14,NNW,338,3.6,3.8,62,0.00,,,0.00,VWS V14.01,2013-02-28 16:36:00,
2013-02-28 11:37:00,31.8,20.3,29.14,NE,45,3.6,3.8,62,0.00,,,0.00,VWS V14.01,2013-02-28 16:37:00,
2013-02-28 11:38:00,31.8,20.3,29.14,NNW,338,5.8,5.8,62,0.00,,,0.00,VWS V14.01,2013-02-28 16:38:00,
2013-02-28 11:39:00,31.6,20.1,29.14,NNW,338,6.3,6.3,62,0.00,,,0.00,VWS V14.01,2013-02-28 16:39:00,
2013-02-28 11:40:00,31.6,20.1,29.14,NNW,338,3.8,6.3,62,0.00,,,0.00,VWS V14.01,2013-02-28 16:40:00,
2013-02-28 11:41:00,31.8,20.3,29.14,WNW,292,3.6,3.8,62,0.00,,,0.00,VWS V14.01,2013-02-28 16:41:00,
2013-02-28 11:42:00,31.8,20.3,29.14,NW,315,6.0,6.0,62,0.00,,,0.00,VWS V14.01,2013-02-28 16:42:00,
2013-02-28 11:43:00,32.0,20.5,29.14,NE,45,1.6,4.0,62,0.00,,,0.00,VWS V14.01,2013-02-28 16:43:00,
2013-02-28 11:44:00,32.0,20.5,29.14,NW,315,3.1,4.0,62,0.00,,,0.00,VWS V14.01,2013-02-28 16:44:00,
2013-02-28 11:45:00,32.0,20.9,29.14,WNW,292,3.6,3.6,63,0.00,,,0.00,VWS V14.01,2013-02-28 16:45:00,
2013-02-28 11:46:00,32.2,21.0,29.14,NW,315,2.9,3.6,63,0.00,,,0.00,VWS V14.01,2013-02-28 16:46:00,
2013-02-28 11:47:00,32.0,20.9,29.14,NW,315,3.6,5.6,63,0.00,,,0.00,VWS V14.01,2013-02-28 16:47:00,
2013-02-28 11:48:00,32.0,20.9,29.14,NNE,22,5.4,7.2,63,0.00,,,0.00,VWS V14.01,2013-02-28 16:48:00,
2013-02-28 11:49:00,32.0,20.9,29.14,NNE,22,5.4,7.2,63,0.00,,,0.00,VWS V14.01,2013-02-28 16:49:00,
2013-02-28 11:50:00,32.0,20.9,29.14,NNW,338,2.7,5.4,63,0.00,,,0.00,VWS V14.01,2013-02-28 16:50:00,
2013-02-28 11:51:00,31.8,20.7,29.14,NNW,338,2.7,3.1,63,0.00,,,0.00,VWS V14.01,2013-02-28 16:51:00,
2013-02-28 11:52:00,31.8,20.7,29.14,NNW,338,2.7,2.7,63,0.00,,,0.00,VWS V14.01,2013-02-28 16:52:00,
2013-02-28 11:53:00,32.2,21.0,29.14,NNW,338,5.4,5.4,63,0.00,,,0.00,VWS V14.01,2013-02-28 16:53:00,
2013-02-28 11:54:00,33.6,19.2,29.12,NNE,22,2.0,3.4,55,0.00,,,0.00,VWS V14.01,2013-02-28 16:54:00,
2013-02-28 11:55:00,32.2,21.0,29.14,NNW,338,5.4,5.4,63,0.00,,,0.00,VWS V14.01,2013-02-28 16:55:00,
2013-02-28 11:56:00,32.2,21.0,29.14,NNW,338,5.4,5.4,63,0.00,,,0.00,VWS V14.01,2013-02-28 16:56:00,
2013-02-28 11:57:00,32.7,21.5,29.14,North,0,2.5,5.4,63,0.00,,,0.00,VWS V14.01,2013-02-28 16:57:00,
2013-02-28 11:58:00,33.1,21.9,29.14,NW,315,2.9,4.3,63,0.00,,,0.00,VWS V14.01,2013-02-28 16:58:00,
2013-02-28 11:59:00,33.1,21.9,29.14,NNW,338,4.0,4.3,63,0.00,,,0.00,VWS V14.01,2013-02-28 16:59:00,
2013-02-28 12:00:00,33.1,21.1,29.14,NW,315,4.3,4.3,61,0.00,,,0.00,VWS V14.01,2013-02-28 17:00:00,
2013-02-28 12:01:00,33.3,21.3,29.14,NNW,338,2.7,4.3,61,0.00,,,0.00,VWS V14.01,2013-02-28 17:01:00,
2013-02-28 12:02:00,33.3,21.3,29.14,NNW,338,2.5,6.0,61,0.00,,,0.00,VWS V14.01,2013-02-28 17:02:00,
2013-02-28 12:03:00,33.1,20.7,29.14,North,0,2.5,5.4,60,0.00,,,0.00,VWS V14.01,2013-02-28 17:03:00,
2013-02-28 12:04:00,33.1,20.7,29.14,North,0,3.6,5.4,60,0.00,,,0.00,VWS V14.01,2013-02-28 17:04:00,
2013-02-28 12:05:00,33.3,20.9,29.14,NNE,22,3.6,4.0,60,0.00,,,0.00,VWS V14.01,2013-02-28 17:05:00,
2013-02-28 12:06:00,33.1,20.3,29.14,NNE,22,3.1,3.6,59,0.00,,,0.00,VWS V14.01,2013-02-28 17:06:00,
2013-02-28 12:07:00,33.1,20.3,29.14,NNE,22,5.4,5.4,59,0.00,,,0.00,VWS V14.01,2013-02-28 17:07:00,
2013-02-28 12:08:00,32.9,19.8,29.14,NNW,338,3.1,6.0,58,0.00,,,0.00,VWS V14.01,2013-02-28 17:08:00,
2013-02-28 12:09:00,32.9,19.8,29.14,NNW,338,3.1,6.0,58,0.00,,,0.00,VWS V14.01,2013-02-28 17:09:00,
2013-02-28 12:10:00,33.1,19.9,29.14,North,0,2.7,3.1,58,0.00,,,0.00,VWS V14.01,2013-02-28 17:10:00,
2013-02-28 12:11:00,32.9,19.8,29.14,NNE,22,1.1,3.6,58,0.00,,,0.00,VWS V14.01,2013-02-28 17:11:00,
2013-02-28 12:12:00,33.1,18.3,29.14,NNW,338,2.9,6.3,54,0.00,,,0.00,VWS V14.01,2013-02-28 17:12:00,
2013-02-28 12:13:00,32.7,19.6,29.14,NNE,22,4.0,5.8,58,0.00,,,0.00,VWS V14.01,2013-02-28 17:13:00,
2013-02-28 12:14:00,32.7,19.6,29.14,NNE,22,4.0,5.8,58,0.00,,,0.00,VWS V14.01,2013-02-28 17:14:00,
2013-02-28 12:15:00,32.9,19.8,29.14,NNE,22,3.1,4.0,58,0.00,,,0.00,VWS V14.01,2013-02-28 17:15:00,
2013-02-28 12:16:00,32.7,19.6,29.14,North,0,4.3,4.3,58,0.00,,,0.00,VWS V14.01,2013-02-28 17:16:00,
2013-02-28 12:17:00,32.7,19.6,29.14,North,0,2.9,4.3,58,0.00,,,0.00,VWS V14.01,2013-02-28 17:17:00,
2013-02-28 12:18:00,32.9,19.8,29.14,NNW,338,2.9,3.1,58,0.00,,,0.00,VWS V14.01,2013-02-28 17:18:00,
2013-02-28 12:19:00,32.9,19.8,29.14,NNE,22,2.7,3.1,58,0.00,,,0.00,VWS V14.01,2013-02-28 17:19:00,
2013-02-28 12:20:00,32.9,19.8,29.14,NE,45,2.5,2.7,58,0.00,,,0.00,VWS V14.01,2013-02-28 17:20:00,
2013-02-28 12:21:00,32.9,19.8,29.14,NNW,338,5.8,5.8,58,0.00,,,0.00,VWS V14.01,2013-02-28 17:21:00,
2013-02-28 12:22:00,32.9,19.8,29.12,NNE,22,1.6,5.8,58,0.00,,,0.00,VWS V14.01,2013-02-28 17:22:00,
2013-02-28 12:23:00,32.9,19.8,29.12,NNE,22,2.9,4.7,58,0.00,,,0.00,VWS V14.01,2013-02-28 17:23:00,
2013-02-28 12:24:00,32.9,19.8,29.12,North,0,4.0,4.0,58,0.00,,,0.00,VWS V14.01,2013-02-28 17:24:00,
2013-02-28 12:25:00,33.1,19.9,29.12,North,0,2.0,4.0,58,0.00,,,0.00,VWS V14.01,2013-02-28 17:25:00,
2013-02-28 12:26:00,33.1,19.9,29.12,NNE,22,3.4,4.3,58,0.00,,,0.00,VWS V14.01,2013-02-28 17:26:00,
2013-02-28 12:27:00,33.1,19.5,29.12,NNE,22,2.9,3.4,57,0.00,,,0.00,VWS V14.01,2013-02-28 17:27:00,
2013-02-28 12:28:00,33.3,19.7,29.12,NNW,338,2.9,3.1,57,0.00,,,0.00,VWS V14.01,2013-02-28 17:28:00,
2013-02-28 12:29:00,33.3,19.7,29.12,NNE,22,3.4,4.0,57,0.00,,,0.00,VWS V14.01,2013-02-28 17:29:00,
2013-02-28 12:30:00,33.3,19.7,29.12,NNE,22,2.9,3.8,57,0.00,,,0.00,VWS V14.01,2013-02-28 17:30:00,
2013-02-28 12:31:00,33.4,19.9,29.12,NNE,22,3.6,5.6,57,0.00,,,0.00,VWS V14.01,2013-02-28 17:31:00,
2013-02-28 12:32:00,33.4,19.9,29.12,North,0,2.9,3.6,57,0.00,,,0.00,VWS V14.01,2013-02-28 17:32:00,
2013-02-28 12:33:00,33.6,20.0,29.12,North,0,3.1,3.1,57,0.00,,,0.00,VWS V14.01,2013-02-28 17:33:00,
2013-02-28 12:34:00,33.4,19.4,29.12,North,0,3.6,3.8,56,0.00,,,0.00,VWS V14.01,2013-02-28 17:34:00,
2013-02-28 12:35:00,33.3,19.3,29.12,NNE,22,3.6,4.9,56,0.00,,,0.00,VWS V14.01,2013-02-28 17:35:00,
2013-02-28 12:36:00,33.1,18.7,29.12,NNE,22,1.3,3.8,55,0.00,,,0.00,VWS V14.01,2013-02-28 17:36:00,
2013-02-28 12:37:00,33.3,19.3,29.12,NNW,338,2.7,2.7,56,0.00,,,0.00,VWS V14.01,2013-02-28 17:37:00,
2013-02-28 12:38:00,33.3,19.3,29.12,NW,315,2.7,5.8,56,0.00,,,0.00,VWS V14.01,2013-02-28 17:38:00,
2013-02-28 12:39:00,33.3,19.3,29.12,North,0,4.7,4.7,56,0.00,,,0.00,VWS V14.01,2013-02-28 17:39:00,
2013-02-28 12:40:00,33.3,19.3,29.12,North,0,2.9,4.7,56,0.00,,,0.00,VWS V14.01,2013-02-28 17:40:00,
2013-02-28 12:41:00,33.3,19.3,29.12,NNW,338,2.0,4.0,56,0.00,,,0.00,VWS V14.01,2013-02-28 17:41:00,
2013-02-28 12:42:00,33.3,19.3,29.12,NNE,22,1.3,2.5,56,0.00,,,0.00,VWS V14.01,2013-02-28 17:42:00,
2013-02-28 12:43:00,33.3,19.3,29.12,NE,45,2.7,5.8,56,0.00,,,0.00,VWS V14.01,2013-02-28 17:43:00,
2013-02-28 12:44:00,33.3,19.3,29.12,NNW,338,2.9,2.9,56,0.00,,,0.00,VWS V14.01,2013-02-28 17:44:00,
2013-02-28 12:45:00,33.6,19.6,29.12,WNW,292,2.9,3.8,56,0.00,,,0.00,VWS V14.01,2013-02-28 17:45:00,
2013-02-28 12:46:00,33.4,19.4,29.12,North,0,3.6,4.7,56,0.00,,,0.00,VWS V14.01,2013-02-28 17:46:00,
2013-02-28 12:47:00,33.6,19.6,29.12,NNW,338,3.6,3.6,56,0.00,,,0.00,VWS V14.01,2013-02-28 17:47:00,
2013-02-28 12:48:00,33.4,19.0,29.12,NNE,22,3.4,5.6,55,0.00,,,0.00,VWS V14.01,2013-02-28 17:48:00,
2013-02-28 12:49:00,33.3,18.9,29.12,North,0,4.0,4.3,55,0.00,,,0.00,VWS V14.01,2013-02-28 17:49:00,
2013-02-28 12:50:00,33.3,18.9,29.12,North,0,2.5,4.0,55,0.00,,,0.00,VWS V14.01,2013-02-28 17:50:00,
2013-02-28 12:51:00,33.4,19.0,29.12,NNE,22,2.9,4.7,55,0.00,,,0.00,VWS V14.01,2013-02-28 17:51:00,
2013-02-28 12:52:00,33.4,19.0,29.12,NNE,22,2.7,3.8,55,0.00,,,0.00,VWS V14.01,2013-02-28 17:52:00,
2013-02-28 12:53:00,33.4,19.0,29.12,NNE,22,2.7,2.7,55,0.00,,,0.00,VWS V14.01,2013-02-28 17:53:00,
2013-02-28 12:54:00,33.6,19.2,29.12,WNW,292,2.5,2.5,55,0.00,,,0.00,VWS V14.01,2013-02-28 17:54:00,
2013-02-28 12:55:00,32.7,17.9,29.14,NNW,338,1.6,3.4,54,0.00,,,0.00,VWS V14.01,2013-02-28 17:55:00,
2013-02-28 12:56:00,32.7,17.9,29.14,NE,45,3.6,4.9,54,0.00,,,0.00,VWS V14.01,2013-02-28 17:56:00,
2013-02-28 12:57:00,32.7,17.9,29.14,NNE,22,4.0,5.6,54,0.00,,,0.00,VWS V14.01,2013-02-28 17:57:00,
2013-02-28 12:58:00,32.9,18.1,29.14,North,0,2.5,4.0,54,0.00,,,0.00,VWS V14.01,2013-02-28 17:58:00,
2013-02-28 12:59:00,33.4,18.6,29.12,ENE,68,3.8,4.9,54,0.00,,,0.00,VWS V14.01,2013-02-28 17:59:00,
2013-02-28 13:00:00,33.4,18.6,29.12,North,0,2.5,3.8,54,0.00,,,0.00,VWS V14.01,2013-02-28 18:00:00,
2013-02-28 13:02:00,33.4,18.6,29.12,NNW,338,1.6,3.4,54,0.00,,,0.00,VWS V14.01,2013-02-28 18:02:00,
2013-02-28 13:03:00,33.4,19.0,29.12,NNE,22,3.6,3.6,55,0.00,,,0.00,VWS V14.01,2013-02-28 18:03:00,
2013-02-28 13:04:00,33.4,19.0,29.12,NE,45,3.6,3.6,55,0.00,,,0.00,VWS V14.01,2013-02-28 18:04:00,
2013-02-28 13:05:00,33.4,19.0,29.12,NNE,22,2.5,3.6,55,0.00,,,0.00,VWS V14.01,2013-02-28 18:05:00,
2013-02-28 13:06:00,33.4,19.0,29.12,NNW,338,3.6,3.6,55,0.00,,,0.00,VWS V14.01,2013-02-28 18:06:00,
2013-02-28 13:07:00,33.4,19.0,29.14,North,0,3.1,6.0,55,0.00,,,0.00,VWS V14.01,2013-02-28 18:07:00,
2013-02-28 13:08:00,33.3,18.4,29.14,NNE,22,2.7,7.4,54,0.00,,,0.00,VWS V14.01,2013-02-28 18:08:00,
2013-02-28 13:09:00,33.1,18.3,29.14,North,0,3.8,3.8,54,0.00,,,0.00,VWS V14.01,2013-02-28 18:09:00,
2013-02-28 13:10:00,33.1,18.3,29.14,NNW,338,4.0,4.0,54,0.00,,,0.00,VWS V14.01,2013-02-28 18:10:00,
2013-02-28 13:11:00,33.1,18.3,29.14,North,0,3.4,4.0,54,0.00,,,0.00,VWS V14.01,2013-02-28 18:11:00,
2013-02-28 13:12:00,33.1,18.3,29.14,NNW,338,2.9,6.3,54,0.00,,,0.00,VWS V14.01,2013-02-28 18:12:00,
2013-02-28 13:13:00,33.1,18.3,29.14,NE,45,2.7,2.9,54,0.00,,,0.00,VWS V14.01,2013-02-28 18:13:00,
2013-02-28 13:14:00,33.4,18.6,29.14,NNE,22,3.4,3.6,54,0.00,,,0.00,VWS V14.01,2013-02-28 18:14:00,
2013-02-28 13:15:00,33.6,19.2,29.14,North,0,2.7,3.6,55,0.00,,,0.00,VWS V14.01,2013-02-28 18:15:00,
2013-02-28 13:16:00,33.6,19.2,29.14,NNW,338,2.7,2.7,55,0.00,,,0.00,VWS V14.01,2013-02-28 18:16:00,
2013-02-28 13:17:00,33.4,19.0,29.14,North,0,4.3,4.3,55,0.00,,,0.00,VWS V14.01,2013-02-28 18:17:00,
2013-02-28 13:18:00,33.3,18.4,29.14,NNE,22,3.4,4.3,54,0.00,,,0.00,VWS V14.01,2013-02-28 18:18:00,
2013-02-28 13:19:00,33.3,18.4,29.14,NNE,22,3.1,3.1,54,0.00,,,0.00,VWS V14.01,2013-02-28 18:19:00,
2013-02-28 13:20:00,33.3,18.4,29.14,NNE,22,1.6,3.1,54,0.00,,,0.00,VWS V14.01,2013-02-28 18:20:00,
2013-02-28 13:21:00,33.3,18.4,29.14,North,0,3.6,3.8,54,0.00,,,0.00,VWS V14.01,2013-02-28 18:21:00,
2013-02-28 13:22:00,33.3,18.4,29.14,NNW,338,3.8,3.8,54,0.00,,,0.00,VWS V14.01,2013-02-28 18:22:00,
2013-02-28 13:23:00,33.1,18.3,29.14,NNE,22,2.5,4.0,54,0.00,,,0.00,VWS V14.01,2013-02-28 18:23:00,
2013-02-28 13:24:00,33.1,18.3,29.14,North,0,2.7,3.8,54,0.00,,,0.00,VWS V14.01,2013-02-28 18:24:00,
2013-02-28 13:25:00,33.1,18.3,29.14,NW,315,3.1,3.8,54,0.00,,,0.00,VWS V14.01,2013-02-28 18:25:00,
2013-02-28 13:26:00,33.1,18.3,29.14,NNW,338,3.8,4.0,54,0.00,,,0.00,VWS V14.01,2013-02-28 18:26:00,
2013-02-28 13:27:00,33.1,18.3,29.14,North,0,3.6,4.3,54,0.00,,,0.00,VWS V14.01,2013-02-28 18:27:00,
2013-02-28 13:28:00,32.7,17.9,29.14,North,0,4.3,5.8,54,0.00,,,0.00,VWS V14.01,2013-02-28 18:28:00,
2013-02-28 13:29:00,32.5,17.8,29.14,North,0,4.3,4.3,54,0.00,,,0.00,VWS V14.01,2013-02-28 18:29:00,
2013-02-28 13:30:00,32.5,17.8,29.14,North,0,2.7,4.3,54,0.00,,,0.00,VWS V14.01,2013-02-28 18:30:00,
2013-02-28 13:31:00,32.5,17.8,29.14,North,0,2.7,2.7,54,0.00,,,0.00,VWS V14.01,2013-02-28 18:31:00,
2013-02-28 13:32:00,32.5,17.8,29.14,NW,315,2.7,3.8,54,0.00,,,0.00,VWS V14.01,2013-02-28 18:32:00,
2013-02-28 13:33:00,33.6,17.9,29.14,NNE,22,4.0,4.3,52,0.00,,,0.00,VWS V14.01,2013-02-28 18:33:00,
2013-02-28 13:34:00,32.5,17.8,29.14,NNW,338,2.5,4.0,54,0.00,,,0.00,VWS V14.01,2013-02-28 18:34:00,
2013-02-28 13:35:00,32.5,17.8,29.14,NW,315,2.5,4.0,54,0.00,,,0.00,VWS V14.01,2013-02-28 18:35:00,
2013-02-28 13:36:00,32.5,17.8,29.14,North,0,4.0,4.7,54,0.00,,,0.00,VWS V14.01,2013-02-28 18:36:00,
2013-02-28 13:37:00,32.5,17.8,29.14,NE,45,2.2,4.3,54,0.00,,,0.00,VWS V14.01,2013-02-28 18:37:00,
2013-02-28 13:38:00,32.5,17.8,29.14,WNW,292,2.9,6.5,54,0.00,,,0.00,VWS V14.01,2013-02-28 18:38:00,
2013-02-28 13:39:00,33.8,18.0,29.17,North,0,1.6,4.3,52,0.00,,,0.00,VWS V14.01,2013-02-28 18:39:00,
2013-02-28 13:40:00,32.5,17.8,29.14,North,0,3.4,4.0,54,0.00,,,0.00,VWS V14.01,2013-02-28 18:40:00,
2013-02-28 13:41:00,32.5,17.8,29.14,North,0,2.5,3.6,54,0.00,,,0.00,VWS V14.01,2013-02-28 18:41:00,
2013-02-28 13:42:00,32.7,17.9,29.14,NNE,22,2.9,3.4,54,0.00,,,0.00,VWS V14.01,2013-02-28 18:42:00,
2013-02-28 13:43:00,32.7,17.9,29.14,North,0,2.5,3.6,54,0.00,,,0.00,VWS V14.01,2013-02-28 18:43:00,
2013-02-28 13:44:00,33.4,17.7,29.17,NNE,22,2.9,3.4,52,0.00,,,0.00,VWS V14.01,2013-02-28 18:44:00,
2013-02-28 13:45:00,32.7,17.9,29.14,East,90,3.8,4.3,54,0.00,,,0.00,VWS V14.01,2013-02-28 18:45:00,
2013-02-28 13:46:00,32.9,18.1,29.14,North,0,2.9,3.8,54,0.00,,,0.00,VWS V14.01,2013-02-28 18:46:00,
2013-02-28 13:47:00,32.9,18.1,29.14,North,0,1.6,3.6,54,0.00,,,0.00,VWS V14.01,2013-02-28 18:47:00,
2013-02-28 13:48:00,32.9,18.1,29.14,North,0,2.7,2.7,54,0.00,,,0.00,VWS V14.01,2013-02-28 18:48:00,
2013-02-28 13:49:00,32.9,18.1,29.14,WNW,292,3.1,3.1,54,0.00,,,0.00,VWS V14.01,2013-02-28 18:49:00,
2013-02-28 13:50:00,32.9,18.1,29.14,NNW,338,3.8,4.0,54,0.00,,,0.00,VWS V14.01,2013-02-28 18:50:00,
2013-02-28 13:51:00,32.7,17.9,29.14,NNE,22,2.5,3.8,54,0.00,,,0.00,VWS V14.01,2013-02-28 18:51:00,
2013-02-28 13:52:00,32.9,18.1,29.14,NNE,22,3.6,3.8,54,0.00,,,0.00,VWS V14.01,2013-02-28 18:52:00,
2013-02-28 13:53:00,32.7,17.9,29.14,NNE,22,2.5,6.3,54,0.00,,,0.00,VWS V14.01,2013-02-28 18:53:00,
2013-02-28 13:54:00,32.7,17.9,29.14,NNE,22,1.3,4.9,54,0.00,,,0.00,VWS V14.01,2013-02-28 18:54:00,
2013-02-28 13:55:00,32.7,17.9,29.14,NNW,338,1.6,3.4,54,0.00,,,0.00,VWS V14.01,2013-02-28 18:55:00,
2013-02-28 13:56:00,32.7,17.9,29.14,NE,45,3.6,4.9,54,0.00,,,0.00,VWS V14.01,2013-02-28 18:56:00,
2013-02-28 13:57:00,32.7,17.9,29.14,NNE,22,4.0,5.6,54,0.00,,,0.00,VWS V14.01,2013-02-28 18:57:00,
2013-02-28 13:58:00,32.9,18.1,29.14,North,0,2.5,4.0,54,0.00,,,0.00,VWS V14.01,2013-02-28 18:58:00,
2013-02-28 13:59:00,33.1,18.3,29.14,ENE,68,2.5,3.1,54,0.00,,,0.00,VWS V14.01,2013-02-28 18:59:00,
2013-02-28 14:00:00,33.1,18.3,29.14,North,0,4.3,4.3,54,0.00,,,0.00,VWS V14.01,2013-02-28 19:00:00,
2013-02-28 14:01:00,33.1,17.4,29.17,North,0,4.7,5.8,52,0.00,,,0.00,VWS V14.01,2013-02-28 19:01:00,
2013-02-28 14:02:00,32.9,17.7,29.14,NNE,22,4.3,6.5,53,0.00,,,0.00,VWS V14.01,2013-02-28 19:02:00,
2013-02-28 14:03:00,32.9,17.7,29.14,NNE,22,2.5,4.3,53,0.00,,,0.00,VWS V14.01,2013-02-28 19:03:00,
2013-02-28 14:04:00,32.7,17.0,29.17,West,270,3.6,3.6,52,0.00,,,0.00,VWS V14.01,2013-02-28 19:04:00,
2013-02-28 14:05:00,32.9,17.7,29.14,NNE,22,3.6,3.6,53,0.00,,,0.00,VWS V14.01,2013-02-28 19:05:00,
2013-02-28 14:06:00,32.7,17.0,29.17,NW,315,1.6,2.5,52,0.00,,,0.00,VWS V14.01,2013-02-28 19:06:00,
2013-02-28 14:07:00,33.1,17.8,29.14,NNE,22,3.8,3.8,53,0.00,,,0.00,VWS V14.01,2013-02-28 19:07:00,
2013-02-28 14:08:00,33.1,17.8,29.14,NW,315,3.4,3.8,53,0.00,,,0.00,VWS V14.01,2013-02-28 19:08:00,
2013-02-28 14:09:00,32.7,17.0,29.20,NW,315,3.8,3.8,52,0.00,,,0.00,VWS V14.01,2013-02-28 19:09:00,
2013-02-28 14:10:00,33.1,17.8,29.14,NNE,22,3.1,3.1,53,0.00,,,0.00,VWS V14.01,2013-02-28 19:10:00,
2013-02-28 14:11:00,32.7,17.0,29.20,NE,45,3.4,3.4,52,0.00,,,0.00,VWS V14.01,2013-02-28 19:11:00,
2013-02-28 14:12:00,32.5,16.9,29.20,North,0,1.6,4.9,52,0.00,,,0.00,VWS V14.01,2013-02-28 19:12:00,
2013-02-28 14:13:00,32.7,17.0,29.14,North,0,3.4,4.7,52,0.00,,,0.00,VWS V14.01,2013-02-28 19:13:00,
2013-02-28 14:14:00,32.9,17.2,29.14,NNE,22,3.8,3.8,52,0.00,,,0.00,VWS V14.01,2013-02-28 19:14:00,
2013-02-28 14:15:00,32.9,17.7,29.14,NNW,338,1.3,2.9,53,0.00,,,0.00,VWS V14.01,2013-02-28 19:15:00,
2013-02-28 14:16:00,32.9,17.7,29.14,North,0,2.7,3.6,53,0.00,,,0.00,VWS V14.01,2013-02-28 19:16:00,
2013-02-28 14:17:00,32.9,17.7,29.14,North,0,3.1,3.8,53,0.00,,,0.00,VWS V14.01,2013-02-28 19:17:00,
2013-02-28 14:18:00,32.9,17.7,29.14,NNW,338,2.7,3.1,53,0.00,,,0.00,VWS V14.01,2013-02-28 19:18:00,
2013-02-28 14:19:00,32.9,17.7,29.14,NE,45,2.5,2.7,53,0.00,,,0.00,VWS V14.01,2013-02-28 19:19:00,
2013-02-28 14:20:00,32.9,17.7,29.14,ENE,68,2.9,2.9,53,0.00,,,0.00,VWS V14.01,2013-02-28 19:20:00,
2013-02-28 14:21:00,32.9,17.7,29.14,NNE,22,2.7,2.9,53,0.00,,,0.00,VWS V14.01,2013-02-28 19:21:00,
2013-02-28 14:22:00,31.6,15.6,29.20,NNE,22,3.4,4.3,51,0.00,,,0.00,VWS V14.01,2013-02-28 19:22:00,
2013-02-28 14:23:00,32.9,17.7,29.14,NNE,22,1.6,3.1,53,0.00,,,0.00,VWS V14.01,2013-02-28 19:23:00,
2013-02-28 14:24:00,31.3,15.3,29.20,NE,45,3.1,6.0,51,0.00,,,0.00,VWS V14.01,2013-02-28 19:24:00,
2013-02-28 14:25:00,33.1,17.4,29.14,North,0,5.4,5.4,52,0.00,,,0.00,VWS V14.01,2013-02-28 19:25:00,
2013-02-28 14:26:00,33.3,17.5,29.14,NNE,22,2.7,5.4,52,0.00,,,0.00,VWS V14.01,2013-02-28 19:26:00,
2013-02-28 14:27:00,33.3,18.0,29.14,NNW,338,3.8,4.0,53,0.00,,,0.00,VWS V14.01,2013-02-28 19:27:00,
2013-02-28 14:28:00,33.6,18.3,29.14,NNW,338,2.9,3.8,53,0.00,,,0.00,VWS V14.01,2013-02-28 19:28:00,
2013-02-28 14:29:00,33.6,18.3,29.14,North,0,3.4,3.6,53,0.00,,,0.00,VWS V14.01,2013-02-28 19:29:00,
2013-02-28 14:30:00,33.6,18.3,29.14,North,0,3.4,3.4,53,0.00,,,0.00,VWS V14.01,2013-02-28 19:30:00,
2013-02-28 14:31:00,33.6,17.9,29.14,North,0,2.2,3.4,52,0.00,,,0.00,VWS V14.01,2013-02-28 19:31:00,
2013-02-28 14:32:00,33.6,17.9,29.14,NW,315,3.8,3.8,52,0.00,,,0.00,VWS V14.01,2013-02-28 19:32:00,
2013-02-28 14:33:00,33.6,17.9,29.14,NNE,22,4.0,4.3,52,0.00,,,0.00,VWS V14.01,2013-02-28 19:33:00,
2013-02-28 14:34:00,33.6,17.9,29.14,NNW,338,2.0,4.0,52,0.00,,,0.00,VWS V14.01,2013-02-28 19:34:00,
2013-02-28 14:35:00,33.8,18.0,29.14,NNW,338,2.2,3.6,52,0.00,,,0.00,VWS V14.01,2013-02-28 19:35:00,
2013-02-28 14:36:00,33.8,18.0,29.14,North,0,2.5,3.6,52,0.00,,,0.00,VWS V14.01,2013-02-28 19:36:00,
2013-02-28 14:37:00,34.0,18.2,29.17,NNW,338,1.6,2.5,52,0.00,,,0.00,VWS V14.01,2013-02-28 19:37:00,
2013-02-28 14:38:00,34.0,18.2,29.17,NNW,338,2.7,2.7,52,0.00,,,0.00,VWS V14.01,2013-02-28 19:38:00,
2013-02-28 14:39:00,33.8,18.0,29.17,North,0,1.6,4.3,52,0.00,,,0.00,VWS V14.01,2013-02-28 19:39:00,
2013-02-28 14:40:00,33.8,18.0,29.17,North,0,2.9,4.0,52,0.00,,,0.00,VWS V14.01,2013-02-28 19:40:00,
2013-02-28 14:41:00,33.6,17.4,29.17,NNW,338,3.6,4.0,51,0.00,,,0.00,VWS V14.01,2013-02-28 19:41:00,
2013-02-28 14:42:00,33.4,17.3,29.17,NNE,22,1.1,6.5,51,0.00,,,0.00,VWS V14.01,2013-02-28 19:42:00,
2013-02-28 14:43:00,33.4,17.7,29.17,NW,315,1.3,4.0,52,0.00,,,0.00,VWS V14.01,2013-02-28 19:43:00,
2013-02-28 14:44:00,33.4,17.7,29.17,NNE,22,2.9,3.4,52,0.00,,,0.00,VWS V14.01,2013-02-28 19:44:00,
2013-02-28 14:45:00,33.4,17.7,29.17,NW,315,1.3,2.2,52,0.00,,,0.00,VWS V14.01,2013-02-28 19:45:00,
2013-02-28 14:46:00,33.4,17.7,29.17,NNW,338,3.6,3.6,52,0.00,,,0.00,VWS V14.01,2013-02-28 19:46:00,
2013-02-28 14:47:00,33.4,17.7,29.17,NW,315,3.1,3.6,52,0.00,,,0.00,VWS V14.01,2013-02-28 19:47:00,
2013-02-28 14:48:00,33.4,17.7,29.17,North,0,0.0,3.1,52,0.00,,,0.00,VWS V14.01,2013-02-28 19:48:00,
2013-02-28 14:49:00,33.4,17.7,29.17,NNE,22,1.3,2.5,52,0.00,,,0.00,VWS V14.01,2013-02-28 19:49:00,
2013-02-28 14:50:00,33.4,17.7,29.17,NNE,22,1.3,3.1,52,0.00,,,0.00,VWS V14.01,2013-02-28 19:50:00,
2013-02-28 14:51:00,33.4,17.7,29.17,NNE,22,2.2,3.1,52,0.00,,,0.00,VWS V14.01,2013-02-28 19:51:00,
2013-02-28 14:52:00,33.3,17.5,29.17,North,0,2.5,2.9,52,0.00,,,0.00,VWS V14.01,2013-02-28 19:52:00,
2013-02-28 14:53:00,33.3,17.5,29.17,NNE,22,4.9,4.9,52,0.00,,,0.00,VWS V14.01,2013-02-28 19:53:00,
2013-02-28 14:54:00,33.1,16.9,29.17,NW,315,2.7,4.9,51,0.00,,,0.00,VWS V14.01,2013-02-28 19:54:00,
2013-02-28 14:55:00,33.1,16.9,29.17,NNE,22,3.1,3.4,51,0.00,,,0.00,VWS V14.01,2013-02-28 19:55:00,
2013-02-28 14:56:00,33.1,16.9,29.17,NE,45,2.0,3.4,51,0.00,,,0.00,VWS V14.01,2013-02-28 19:56:00,
2013-02-28 14:57:00,33.1,16.9,29.17,North,0,2.7,4.0,51,0.00,,,0.00,VWS V14.01,2013-02-28 19:57:00,
2013-02-28 14:58:00,33.1,17.4,29.17,NW,315,1.3,2.7,52,0.00,,,0.00,VWS V14.01,2013-02-28 19:58:00,
2013-02-28 14:59:00,33.1,17.4,29.17,NNE,22,0.0,1.3,52,0.00,,,0.00,VWS V14.01,2013-02-28 19:59:00,
2013-02-28 15:00:00,33.3,17.5,29.17,North,0,4.7,5.8,52,0.00,,,0.00,VWS V14.01,2013-02-28 20:00:00,
2013-02-28 15:01:00,33.1,17.4,29.17,North,0,4.7,5.8,52,0.00,,,0.00,VWS V14.01,2013-02-28 20:01:00,
2013-02-28 15:02:00,32.7,16.6,29.17,NNE,22,3.1,4.7,51,0.00,,,0.00,VWS V14.01,2013-02-28 20:02:00,
2013-02-28 15:03:00,32.7,17.0,29.17,North,0,2.5,4.0,52,0.00,,,0.00,VWS V14.01,2013-02-28 20:03:00,
2013-02-28 15:04:00,32.7,17.0,29.17,West,270,3.6,3.6,52,0.00,,,0.00,VWS V14.01,2013-02-28 20:04:00,
2013-02-28 15:05:00,32.7,17.0,29.17,NNW,338,2.0,4.0,52,0.00,,,0.00,VWS V14.01,2013-02-28 20:05:00,
2013-02-28 15:06:00,32.7,17.0,29.17,NW,315,1.6,2.5,52,0.00,,,0.00,VWS V14.01,2013-02-28 20:06:00,
2013-02-28 15:07:00,32.7,17.0,29.20,NW,315,3.4,3.4,52,0.00,,,0.00,VWS V14.01,2013-02-28 20:07:00,
2013-02-28 15:08:00,32.7,17.0,29.20,North,0,2.2,3.4,52,0.00,,,0.00,VWS V14.01,2013-02-28 20:08:00,
2013-02-28 15:09:00,32.7,17.0,29.20,NW,315,3.8,3.8,52,0.00,,,0.00,VWS V14.01,2013-02-28 20:09:00,
2013-02-28 15:10:00,32.7,17.0,29.20,NNE,22,1.6,3.8,52,0.00,,,0.00,VWS V14.01,2013-02-28 20:10:00,
2013-02-28 15:11:00,32.7,17.0,29.20,NE,45,3.4,3.4,52,0.00,,,0.00,VWS V14.01,2013-02-28 20:11:00,
2013-02-28 15:12:00,32.5,16.9,29.20,North,0,1.6,4.9,52,0.00,,,0.00,VWS V14.01,2013-02-28 20:12:00,
2013-02-28 15:13:00,32.5,16.9,29.20,North,0,1.6,1.6,52,0.00,,,0.00,VWS V14.01,2013-02-28 20:13:00,
2013-02-28 15:14:00,32.5,16.9,29.20,NNW,338,2.9,2.9,52,0.00,,,0.00,VWS V14.01,2013-02-28 20:14:00,
2013-02-28 15:15:00,32.4,16.7,29.20,North,0,3.1,4.3,52,0.00,,,0.00,VWS V14.01,2013-02-28 20:15:00,
2013-02-28 15:16:00,32.4,16.7,29.20,NNW,338,3.4,4.7,52,0.00,,,0.00,VWS V14.01,2013-02-28 20:16:00,
2013-02-28 15:17:00,30.2,15.1,29.17,NNW,338,4.3,4.7,53,0.00,,,0.00,VWS V14.01,2013-02-28 20:17:00,
2013-02-28 15:18:00,30.2,15.1,29.17,NW,315,3.4,4.3,53,0.00,,,0.00,VWS V14.01,2013-02-28 20:18:00,
2013-02-28 15:19:00,32.4,16.7,29.20,NNE,22,3.8,5.6,52,0.00,,,0.00,VWS V14.01,2013-02-28 20:19:00,
2013-02-28 15:20:00,31.8,15.8,29.20,NW,315,3.4,5.4,51,0.00,,,0.00,VWS V14.01,2013-02-28 20:20:00,
2013-02-28 15:21:00,31.8,15.8,29.20,NE,45,3.6,3.8,51,0.00,,,0.00,VWS V14.01,2013-02-28 20:21:00,
2013-02-28 15:22:00,31.6,15.6,29.20,NNE,22,3.4,4.3,51,0.00,,,0.00,VWS V14.01,2013-02-28 20:22:00,
2013-02-28 15:23:00,31.5,15.4,29.20,North,0,2.5,3.4,51,0.00,,,0.00,VWS V14.01,2013-02-28 20:23:00,
2013-02-28 15:24:00,31.3,15.3,29.20,NE,45,3.1,6.0,51,0.00,,,0.00,VWS V14.01,2013-02-28 20:24:00,
2013-02-28 15:25:00,31.1,15.1,29.20,NNW,338,2.9,4.9,51,0.00,,,0.00,VWS V14.01,2013-02-28 20:25:00,
2013-02-28 15:26:00,31.1,15.1,29.20,North,0,1.6,2.2,51,0.00,,,0.00,VWS V14.01,2013-02-28 20:26:00,
2013-02-28 15:27:00,31.1,15.1,29.20,North,0,3.6,3.6,51,0.00,,,0.00,VWS V14.01,2013-02-28 20:27:00,
2013-02-28 15:28:00,31.1,15.1,29.20,NNW,338,10.1,10.1,51,0.00,,,0.00,VWS V14.01,2013-02-28 20:28:00,
2013-02-28 15:29:00,30.9,15.4,29.20,NNW,338,2.7,10.1,52,0.00,,,0.00,VWS V14.01,2013-02-28 20:29:00,
2013-02-28 15:30:00,31.1,15.5,29.20,NNW,338,4.3,4.3,52,0.00,,,0.00,VWS V14.01,2013-02-28 20:30:00,
2013-02-28 15:31:00,30.7,15.2,29.20,North,0,6.0,7.2,52,0.00,,,0.00,VWS V14.01,2013-02-28 20:31:00,
2013-02-28 15:32:00,30.6,15.0,29.20,NW,315,2.5,6.0,52,0.00,,,0.00,VWS V14.01,2013-02-28 20:32:00,
2013-02-28 15:33:00,30.6,15.0,29.20,NNE,22,3.6,3.8,52,0.00,,,0.00,VWS V14.01,2013-02-28 20:33:00,
2013-02-28 15:34:00,30.6,15.5,29.20,North,0,3.1,3.6,53,0.00,,,0.00,VWS V14.01,2013-02-28 20:34:00,
2013-02-28 15:35:00,30.7,15.6,29.20,North,0,2.0,3.1,53,0.00,,,0.00,VWS V14.01,2013-02-28 20:35:00,
2013-02-28 15:36:00,30.6,15.5,29.20,NNW,338,3.1,3.1,53,0.00,,,0.00,VWS V14.01,2013-02-28 20:36:00,
2013-02-28 15:37:00,30.7,15.6,29.20,North,0,3.8,3.8,53,0.00,,,0.00,VWS V14.01,2013-02-28 20:37:00,
2013-02-28 15:38:00,30.7,15.6,29.20,NNE,22,6.3,6.3,53,0.00,,,0.00,VWS V14.01,2013-02-28 20:38:00,
2013-02-28 15:39:00,30.6,15.5,29.20,WNW,292,3.1,6.3,53,0.00,,,0.00,VWS V14.01,2013-02-28 20:39:00,
2013-02-28 15:40:00,30.4,15.3,29.20,North,0,4.0,4.3,53,0.00,,,0.00,VWS V14.01,2013-02-28 20:40:00,
2013-02-28 15:41:00,30.4,15.3,29.20,North,0,5.6,5.6,53,0.00,,,0.00,VWS V14.01,2013-02-28 20:41:00,
2013-02-28 15:42:00,30.4,15.3,29.20,North,0,5.4,5.8,53,0.00,,,0.00,VWS V14.01,2013-02-28 20:42:00,
2013-02-28 15:43:00,30.4,14.9,29.20,NNE,22,3.4,5.4,52,0.00,,,0.00,VWS V14.01,2013-02-28 20:43:00,
2013-02-28 15:44:00,30.4,14.9,29.20,NNE,22,2.7,6.3,52,0.00,,,0.00,VWS V14.01,2013-02-28 20:44:00,
2013-02-28 15:45:00,30.4,15.3,29.20,North,0,2.9,4.3,53,0.00,,,0.00,VWS V14.01,2013-02-28 20:45:00,
2013-02-28 15:46:00,30.4,15.3,29.20,NNW,338,3.4,6.0,53,0.00,,,0.00,VWS V14.01,2013-02-28 20:46:00,
2013-02-28 15:47:00,30.0,15.4,29.20,NNW,338,2.5,2.5,54,0.00,,,0.00,VWS V14.01,2013-02-28 20:47:00,
2013-02-28 15:48:00,30.4,15.3,29.20,ENE,68,3.6,6.0,53,0.00,,,0.00,VWS V14.01,2013-02-28 20:48:00,
2013-02-28 15:49:00,30.2,15.1,29.20,NNE,22,3.6,7.8,53,0.00,,,0.00,VWS V14.01,2013-02-28 20:49:00,
2013-02-28 15:50:00,30.2,15.1,29.20,NNE,22,3.8,5.6,53,0.00,,,0.00,VWS V14.01,2013-02-28 20:50:00,
2013-02-28 15:51:00,30.2,15.1,29.20,NNW,338,3.6,4.3,53,0.00,,,0.00,VWS V14.01,2013-02-28 20:51:00,
2013-02-28 15:52:00,30.2,15.1,29.23,NNW,338,3.6,4.3,53,0.00,,,0.00,VWS V14.01,2013-02-28 20:52:00,
2013-02-28 15:53:00,30.2,15.1,29.23,NW,315,4.7,6.3,53,0.00,,,0.00,VWS V14.01,2013-02-28 20:53:00,
2013-02-28 15:54:00,30.2,15.1,29.23,NNE,22,1.3,4.7,53,0.00,,,0.00,VWS V14.01,2013-02-28 20:54:00,
2013-02-28 15:55:00,30.2,15.1,29.23,NNE,22,3.8,6.3,53,0.00,,,0.00,VWS V14.01,2013-02-28 20:55:00,
2013-02-28 15:56:00,30.2,15.1,29.23,North,0,2.5,2.7,53,0.00,,,0.00,VWS V14.01,2013-02-28 20:56:00,
2013-02-28 15:57:00,30.2,15.1,29.23,NNW,338,6.3,6.3,53,0.00,,,0.00,VWS V14.01,2013-02-28 20:57:00,
2013-02-28 15:58:00,29.5,14.9,29.20,NNW,338,4.9,5.4,54,0.00,,,0.00,VWS V14.01,2013-02-28 20:58:00,
2013-02-28 15:59:00,30.2,15.1,29.23,NNE,22,5.8,6.3,53,0.00,,,0.00,VWS V14.01,2013-02-28 20:59:00,
2013-02-28 16:00:00,30.2,15.1,29.23,NNE,22,5.6,5.8,53,0.00,,,0.00,VWS V14.01,2013-02-28 21:00:00,
2013-02-28 16:01:00,30.4,15.3,29.23,North,0,4.0,4.0,53,0.00,,,0.00,VWS V14.01,2013-02-28 21:01:00,
2013-02-28 16:02:00,30.4,15.3,29.23,NNW,338,3.4,4.9,53,0.00,,,0.00,VWS V14.01,2013-02-28 21:02:00,
2013-02-28 16:03:00,30.4,15.3,29.23,NNE,22,3.6,4.0,53,0.00,,,0.00,VWS V14.01,2013-02-28 21:03:00,
2013-02-28 16:04:00,30.6,15.5,29.23,WSW,248,3.6,4.0,53,0.00,,,0.00,VWS V14.01,2013-02-28 21:04:00,
2013-02-28 16:05:00,30.6,15.0,29.23,NNW,338,3.4,5.6,52,0.00,,,0.00,VWS V14.01,2013-02-28 21:05:00,
2013-02-28 16:06:00,30.4,15.3,29.17,SE,135,2.7,6.3,53,0.00,,,0.00,VWS V14.01,2013-02-28 21:06:00,
2013-02-28 16:07:00,30.4,15.3,29.17,NNW,338,3.4,6.3,53,0.00,,,0.00,VWS V14.01,2013-02-28 21:07:00,
2013-02-28 16:08:00,30.4,15.3,29.17,NW,315,3.4,4.3,53,0.00,,,0.00,VWS V14.01,2013-02-28 21:08:00,
2013-02-28 16:09:00,30.4,14.9,29.17,NNW,338,3.1,5.6,52,0.00,,,0.00,VWS V14.01,2013-02-28 21:09:00,
2013-02-28 16:10:00,30.2,14.7,29.17,North,0,6.0,6.0,52,0.00,,,0.00,VWS V14.01,2013-02-28 21:10:00,
2013-02-28 16:11:00,30.2,14.7,29.17,NW,315,4.0,4.0,52,0.00,,,0.00,VWS V14.01,2013-02-28 21:11:00,
2013-02-28 16:12:00,30.2,14.7,29.17,North,0,4.0,4.0,52,0.00,,,0.00,VWS V14.01,2013-02-28 21:12:00,
2013-02-28 16:13:00,30.2,15.1,29.17,North,0,1.6,4.0,53,0.00,,,0.00,VWS V14.01,2013-02-28 21:13:00,
2013-02-28 16:14:00,30.2,15.1,29.17,NNW,338,6.0,6.0,53,0.00,,,0.00,VWS V14.01,2013-02-28 21:14:00,
2013-02-28 16:15:00,30.2,15.1,29.17,NNW,338,2.7,6.0,53,0.00,,,0.00,VWS V14.01,2013-02-28 21:15:00,
2013-02-28 16:16:00,30.2,15.1,29.17,NNE,22,3.4,4.7,53,0.00,,,0.00,VWS V14.01,2013-02-28 21:16:00,
2013-02-28 16:17:00,30.2,15.1,29.17,NNW,338,4.3,4.7,53,0.00,,,0.00,VWS V14.01,2013-02-28 21:17:00,
2013-02-28 16:18:00,30.2,15.1,29.17,NW,315,3.4,4.3,53,0.00,,,0.00,VWS V14.01,2013-02-28 21:18:00,
2013-02-28 16:19:00,30.0,15.0,29.17,North,0,3.6,6.5,53,0.00,,,0.00,VWS V14.01,2013-02-28 21:19:00,
2013-02-28 16:20:00,30.0,15.0,29.17,North,0,3.6,3.6,53,0.00,,,0.00,VWS V14.01,2013-02-28 21:20:00,
2013-02-28 16:21:00,30.0,15.4,29.17,NW,315,2.9,5.8,54,0.00,,,0.00,VWS V14.01,2013-02-28 21:21:00,
2013-02-28 16:22:00,30.0,15.4,29.17,NNE,22,2.0,5.8,54,0.00,,,0.00,VWS V14.01,2013-02-28 21:22:00,
2013-02-28 16:23:00,30.0,15.4,29.17,North,0,3.6,4.3,54,0.00,,,0.00,VWS V14.01,2013-02-28 21:23:00,
2013-02-28 16:24:00,30.0,15.4,29.17,NNW,338,3.8,3.8,54,0.00,,,0.00,VWS V14.01,2013-02-28 21:24:00,
2013-02-28 16:25:00,30.0,15.4,29.17,WNW,292,3.8,4.9,54,0.00,,,0.00,VWS V14.01,2013-02-28 21:25:00,
2013-02-28 16:26:00,29.8,15.2,29.17,NNW,338,2.7,3.4,54,0.00,,,0.00,VWS V14.01,2013-02-28 21:26:00,
2013-02-28 16:27:00,29.8,15.2,29.17,NNW,338,3.4,3.4,54,0.00,,,0.00,VWS V14.01,2013-02-28 21:27:00,
2013-02-28 16:28:00,30.0,15.4,29.17,North,0,1.3,3.4,54,0.00,,,0.00,VWS V14.01,2013-02-28 21:28:00,
2013-02-28 16:29:00,30.0,15.4,29.17,NNE,22,4.7,4.7,54,0.00,,,0.00,VWS V14.01,2013-02-28 21:29:00,
2013-02-28 16:30:00,30.0,15.4,29.17,NNW,338,5.8,5.8,54,0.00,,,0.00,VWS V14.01,2013-02-28 21:30:00,
2013-02-28 16:31:00,30.0,15.4,29.17,NE,45,2.7,4.9,54,0.00,,,0.00,VWS V14.01,2013-02-28 21:31:00,
2013-02-28 16:32:00,30.0,15.4,29.17,North,0,3.1,4.9,54,0.00,,,0.00,VWS V14.01,2013-02-28 21:32:00,
2013-02-28 16:33:00,30.2,15.6,29.17,NNE,22,2.5,3.1,54,0.00,,,0.00,VWS V14.01,2013-02-28 21:33:00,
2013-02-28 16:34:00,30.2,15.6,29.17,NW,315,3.6,3.8,54,0.00,,,0.00,VWS V14.01,2013-02-28 21:34:00,
2013-02-28 16:35:00,30.2,15.6,29.17,NNW,338,2.7,3.8,54,0.00,,,0.00,VWS V14.01,2013-02-28 21:35:00,
2013-02-28 16:36:00,30.0,15.4,29.20,NNE,22,2.7,3.8,54,0.00,,,0.00,VWS V14.01,2013-02-28 21:36:00,
2013-02-28 16:37:00,30.0,15.4,29.20,NNE,22,2.7,3.8,54,0.00,,,0.00,VWS V14.01,2013-02-28 21:37:00,
2013-02-28 16:38:00,30.0,15.4,29.20,North,0,5.4,5.4,54,0.00,,,0.00,VWS V14.01,2013-02-28 21:38:00,
2013-02-28 16:39:00,30.0,15.4,29.20,North,0,2.9,5.4,54,0.00,,,0.00,VWS V14.01,2013-02-28 21:39:00,
2013-02-28 16:40:00,30.0,15.4,29.20,North,0,3.6,3.6,54,0.00,,,0.00,VWS V14.01,2013-02-28 21:40:00,
2013-02-28 16:41:00,30.0,15.4,29.20,NNE,22,2.7,3.6,54,0.00,,,0.00,VWS V14.01,2013-02-28 21:41:00,
2013-02-28 16:42:00,30.0,15.4,29.20,NNE,22,3.6,3.6,54,0.00,,,0.00,VWS V14.01,2013-02-28 21:42:00,
2013-02-28 16:43:00,30.0,15.4,29.20,West,270,2.9,4.0,54,0.00,,,0.00,VWS V14.01,2013-02-28 21:43:00,
2013-02-28 16:44:00,30.0,15.4,29.20,North,0,3.4,3.4,54,0.00,,,0.00,VWS V14.01,2013-02-28 21:44:00,
2013-02-28 16:45:00,30.0,15.4,29.20,NNE,22,3.1,4.9,54,0.00,,,0.00,VWS V14.01,2013-02-28 21:45:00,
2013-02-28 16:46:00,30.0,15.4,29.20,NNW,338,2.5,5.8,54,0.00,,,0.00,VWS V14.01,2013-02-28 21:46:00,
2013-02-28 16:47:00,30.0,15.4,29.20,NNW,338,2.5,2.5,54,0.00,,,0.00,VWS V14.01,2013-02-28 21:47:00,
2013-02-28 16:48:00,29.7,15.1,29.20,NNW,338,4.9,4.9,54,0.00,,,0.00,VWS V14.01,2013-02-28 21:48:00,
2013-02-28 16:49:00,29.7,15.1,29.20,North,0,3.4,7.6,54,0.00,,,0.00,VWS V14.01,2013-02-28 21:49:00,
2013-02-28 16:50:00,29.5,14.9,29.20,NNE,22,6.5,6.5,54,0.00,,,0.00,VWS V14.01,2013-02-28 21:50:00,
2013-02-28 16:51:00,29.5,14.9,29.20,NW,315,2.7,6.5,54,0.00,,,0.00,VWS V14.01,2013-02-28 21:51:00,
2013-02-28 16:52:00,29.5,14.9,29.20,North,0,6.5,6.5,54,0.00,,,0.00,VWS V14.01,2013-02-28 21:52:00,
2013-02-28 16:53:00,29.5,14.9,29.20,NNW,338,3.4,7.8,54,0.00,,,0.00,VWS V14.01,2013-02-28 21:53:00,
2013-02-28 16:54:00,29.5,14.9,29.20,NNW,338,3.4,5.4,54,0.00,,,0.00,VWS V14.01,2013-02-28 21:54:00,
2013-02-28 16:55:00,29.5,14.9,29.20,NNW,338,5.6,5.6,54,0.00,,,0.00,VWS V14.01,2013-02-28 21:55:00,
2013-02-28 16:56:00,28.2,12.9,29.23,NNE,22,4.3,6.5,52,0.00,,,0.00,VWS V14.01,2013-02-28 21:56:00,
2013-02-28 16:57:00,29.5,14.9,29.20,North,0,5.4,5.6,54,0.00,,,0.00,VWS V14.01,2013-02-28 21:57:00,
2013-02-28 16:58:00,29.5,14.9,29.20,NNW,338,4.9,5.4,54,0.00,,,0.00,VWS V14.01,2013-02-28 21:58:00,
2013-02-28 16:59:00,29.3,14.7,29.20,North,0,3.6,4.9,54,0.00,,,0.00,VWS V14.01,2013-02-28 21:59:00,
2013-02-28 17:00:00,29.5,14.9,29.20,North,0,3.1,3.6,54,0.00,,,0.00,VWS V14.01,2013-02-28 22:00:00,
2013-02-28 17:01:00,29.3,14.7,29.20,WNW,292,3.8,3.8,54,0.00,,,0.00,VWS V14.01,2013-02-28 22:01:00,
2013-02-28 17:02:00,29.3,14.3,29.20,WNW,292,3.8,3.8,53,0.00,,,0.00,VWS V14.01,2013-02-28 22:02:00,
2013-02-28 17:03:00,29.3,14.3,29.20,NNW,338,2.9,3.8,53,0.00,,,0.00,VWS V14.01,2013-02-28 22:03:00,
2013-02-28 17:04:00,29.1,14.1,29.20,NNE,22,5.6,5.6,53,0.00,,,0.00,VWS V14.01,2013-02-28 22:04:00,
2013-02-28 17:05:00,29.1,14.1,29.20,NNW,338,4.0,5.8,53,0.00,,,0.00,VWS V14.01,2013-02-28 22:05:00,
2013-02-28 17:06:00,29.1,14.1,29.20,NW,315,4.3,4.3,53,0.00,,,0.00,VWS V14.01,2013-02-28 22:06:00,
2013-02-28 17:07:00,29.1,14.1,29.20,NNW,338,3.1,3.1,53,0.00,,,0.00,VWS V14.01,2013-02-28 22:07:00,
2013-02-28 17:08:00,29.1,14.1,29.20,NNE,22,4.5,4.5,53,0.00,,,0.00,VWS V14.01,2013-02-28 22:08:00,
2013-02-28 17:09:00,29.1,14.1,29.20,NE,45,4.7,4.7,53,0.00,,,0.00,VWS V14.01,2013-02-28 22:09:00,
2013-02-28 17:10:00,29.3,14.3,29.20,NW,315,6.3,6.3,53,0.00,,,0.00,VWS V14.01,2013-02-28 22:10:00,
2013-02-28 17:11:00,29.1,14.1,29.20,NNW,338,4.0,6.3,53,0.00,,,0.00,VWS V14.01,2013-02-28 22:11:00,
2013-02-28 17:12:00,29.1,14.1,29.20,North,0,2.9,3.4,53,0.00,,,0.00,VWS V14.01,2013-02-28 22:12:00,
2013-02-28 17:13:00,29.1,14.1,29.20,NNW,338,5.8,5.8,53,0.00,,,0.00,VWS V14.01,2013-02-28 22:13:00,
2013-02-28 17:14:00,29.1,14.1,29.20,NE,45,3.8,5.8,53,0.00,,,0.00,VWS V14.01,2013-02-28 22:14:00,
2013-02-28 17:15:00,29.1,14.1,29.20,North,0,5.6,6.5,53,0.00,,,0.00,VWS V14.01,2013-02-28 22:15:00,
2013-02-28 17:16:00,29.1,14.1,29.20,NE,45,3.1,5.6,53,0.00,,,0.00,VWS V14.01,2013-02-28 22:16:00,
2013-02-28 17:17:00,29.1,14.1,29.20,NNE,22,3.6,3.6,53,0.00,,,0.00,VWS V14.01,2013-02-28 22:17:00,
2013-02-28 17:18:00,29.1,14.1,29.20,North,0,7.4,7.4,53,0.00,,,0.00,VWS V14.01,2013-02-28 22:18:00,
2013-02-28 17:19:00,29.1,14.1,29.20,NNW,338,3.8,7.4,53,0.00,,,0.00,VWS V14.01,2013-02-28 22:19:00,
2013-02-28 17:20:00,29.1,14.1,29.20,NE,45,3.8,4.0,53,0.00,,,0.00,VWS V14.01,2013-02-28 22:20:00,
2013-02-28 17:21:00,28.9,14.0,29.20,NNW,338,3.6,4.7,53,0.00,,,0.00,VWS V14.01,2013-02-28 22:21:00,
2013-02-28 17:22:00,28.9,14.0,29.23,NNW,338,3.6,3.6,53,0.00,,,0.00,VWS V14.01,2013-02-28 22:22:00,
2013-02-28 17:23:00,28.9,14.0,29.23,NNE,22,3.1,3.6,53,0.00,,,0.00,VWS V14.01,2013-02-28 22:23:00,
2013-02-28 17:24:00,28.9,14.0,29.23,North,0,2.9,3.8,53,0.00,,,0.00,VWS V14.01,2013-02-28 22:24:00,
2013-02-28 17:25:00,28.9,14.4,29.23,North,0,2.9,5.4,54,0.00,,,0.00,VWS V14.01,2013-02-28 22:25:00,
2013-02-28 17:26:00,28.9,14.4,29.23,North,0,2.7,4.0,54,0.00,,,0.00,VWS V14.01,2013-02-28 22:26:00,
2013-02-28 17:27:00,28.9,14.4,29.23,NNE,22,3.1,3.1,54,0.00,,,0.00,VWS V14.01,2013-02-28 22:27:00,
2013-02-28 17:28:00,28.8,14.2,29.23,NW,315,3.8,5.8,54,0.00,,,0.00,VWS V14.01,2013-02-28 22:28:00,
2013-02-28 17:29:00,28.8,14.2,29.23,NNW,338,3.6,4.7,54,0.00,,,0.00,VWS V14.01,2013-02-28 22:29:00,
2013-02-28 17:30:00,28.8,14.2,29.23,NNE,22,4.0,7.6,54,0.00,,,0.00,VWS V14.01,2013-02-28 22:30:00,
2013-02-28 17:31:00,28.6,13.6,29.23,North,0,4.7,5.6,53,0.00,,,0.00,VWS V14.01,2013-02-28 22:31:00,
2013-02-28 17:32:00,28.6,13.6,29.23,WNW,292,3.6,3.6,53,0.00,,,0.00,VWS V14.01,2013-02-28 22:32:00,
2013-02-28 17:33:00,28.6,13.6,29.23,North,0,3.6,4.3,53,0.00,,,0.00,VWS V14.01,2013-02-28 22:33:00,
2013-02-28 17:34:00,28.6,13.6,29.23,NNE,22,3.8,4.3,53,0.00,,,0.00,VWS V14.01,2013-02-28 22:34:00,
2013-02-28 17:35:00,28.6,13.6,29.23,NNE,22,5.4,5.4,53,0.00,,,0.00,VWS V14.01,2013-02-28 22:35:00,
2013-02-28 17:36:00,28.6,13.6,29.23,North,0,2.7,5.4,53,0.00,,,0.00,VWS V14.01,2013-02-28 22:36:00,
2013-02-28 17:37:00,28.6,13.6,29.23,ENE,68,3.8,3.8,53,0.00,,,0.00,VWS V14.01,2013-02-28 22:37:00,
2013-02-28 17:38:00,28.6,13.6,29.23,ENE,68,3.8,3.8,53,0.00,,,0.00,VWS V14.01,2013-02-28 22:38:00,
2013-02-28 17:39:00,28.6,13.6,29.23,North,0,3.4,6.0,53,0.00,,,0.00,VWS V14.01,2013-02-28 22:39:00,
2013-02-28 17:40:00,28.6,13.6,29.23,NNE,22,2.9,6.5,53,0.00,,,0.00,VWS V14.01,2013-02-28 22:40:00,
2013-02-28 17:41:00,28.6,13.6,29.23,NNE,22,4.3,6.3,53,0.00,,,0.00,VWS V14.01,2013-02-28 22:41:00,
2013-02-28 17:42:00,28.6,13.6,29.23,North,0,2.7,3.8,53,0.00,,,0.00,VWS V14.01,2013-02-28 22:42:00,
2013-02-28 17:43:00,28.4,13.5,29.23,NNE,22,4.0,4.0,53,0.00,,,0.00,VWS V14.01,2013-02-28 22:43:00,
2013-02-28 17:44:00,28.4,13.5,29.23,NNE,22,5.6,6.0,53,0.00,,,0.00,VWS V14.01,2013-02-28 22:44:00,
2013-02-28 17:45:00,28.4,13.5,29.23,NNE,22,2.5,5.6,53,0.00,,,0.00,VWS V14.01,2013-02-28 22:45:00,
2013-02-28 17:46:00,28.4,13.5,29.23,North,0,6.3,6.3,53,0.00,,,0.00,VWS V14.01,2013-02-28 22:46:00,
2013-02-28 17:47:00,28.4,13.5,29.23,WNW,292,3.6,3.6,53,0.00,,,0.00,VWS V14.01,2013-02-28 22:47:00,
2013-02-28 17:48:00,28.4,13.5,29.23,ESE,112,3.8,5.8,53,0.00,,,0.00,VWS V14.01,2013-02-28 22:48:00,
2013-02-28 17:49:00,28.2,13.3,29.23,North,0,5.6,5.6,53,0.00,,,0.00,VWS V14.01,2013-02-28 22:49:00,
2013-02-28 17:50:00,28.2,13.3,29.23,NNE,22,3.4,5.6,53,0.00,,,0.00,VWS V14.01,2013-02-28 22:50:00,
2013-02-28 17:51:00,28.2,13.3,29.23,North,0,3.8,6.3,53,0.00,,,0.00,VWS V14.01,2013-02-28 22:51:00,
2013-02-28 17:52:00,28.2,12.9,29.23,NNW,338,3.8,4.7,52,0.00,,,0.00,VWS V14.01,2013-02-28 22:52:00,
2013-02-28 17:53:00,28.2,12.9,29.23,North,0,4.0,4.7,52,0.00,,,0.00,VWS V14.01,2013-02-28 22:53:00,
2013-02-28 17:54:00,28.2,12.9,29.23,NNW,338,2.9,4.3,52,0.00,,,0.00,VWS V14.01,2013-02-28 22:54:00,
2013-02-28 17:55:00,28.2,12.9,29.23,NNE,22,6.5,6.5,52,0.00,,,0.00,VWS V14.01,2013-02-28 22:55:00,
2013-02-28 17:56:00,28.2,12.9,29.23,NNE,22,4.3,6.5,52,0.00,,,0.00,VWS V14.01,2013-02-28 22:56:00,
2013-02-28 17:57:00,28.2,12.9,29.23,North,0,5.6,5.6,52,0.00,,,0.00,VWS V14.01,2013-02-28 22:57:00,
2013-02-28 17:58:00,28.2,12.9,29.23,NNE,22,4.0,5.6,52,0.00,,,0.00,VWS V14.01,2013-02-28 22:58:00,
2013-02-28 17:59:00,28.2,12.9,29.23,NNE,22,3.1,5.6,52,0.00,,,0.00,VWS V14.01,2013-02-28 22:59:00,
2013-02-28 18:00:00,27.1,12.7,29.26,NNE,22,4.7,4.7,54,0.00,,,0.00,VWS V14.01,2013-02-28 23:00:00,
2013-02-28 18:01:00,28.2,12.9,29.23,North,0,4.3,4.3,52,0.00,,,0.00,VWS V14.01,2013-02-28 23:01:00,
2013-02-28 18:02:00,28.2,12.4,29.23,NNE,22,3.8,6.0,51,0.00,,,0.00,VWS V14.01,2013-02-28 23:02:00,
2013-02-28 18:03:00,28.2,12.4,29.23,North,0,4.3,6.0,51,0.00,,,0.00,VWS V14.01,2013-02-28 23:03:00,
2013-02-28 18:04:00,28.2,12.4,29.23,NNE,22,2.9,4.3,51,0.00,,,0.00,VWS V14.01,2013-02-28 23:04:00,
2013-02-28 18:05:00,28.2,12.4,29.23,North,0,3.8,3.8,51,0.00,,,0.00,VWS V14.01,2013-02-28 23:05:00,
2013-02-28 18:06:00,28.2,12.4,29.23,North,0,2.9,3.8,51,0.00,,,0.00,VWS V14.01,2013-02-28 23:06:00,
2013-02-28 18:07:00,28.2,12.4,29.26,North,0,3.8,3.8,51,0.00,,,0.00,VWS V14.01,2013-02-28 23:07:00,
2013-02-28 18:08:00,28.2,12.4,29.26,NNE,22,2.0,3.8,51,0.00,,,0.00,VWS V14.01,2013-02-28 23:08:00,
2013-02-28 18:09:00,28.2,12.4,29.26,NNW,338,3.4,3.4,51,0.00,,,0.00,VWS V14.01,2013-02-28 23:09:00,
2013-02-28 18:10:00,28.2,12.4,29.26,NNE,22,3.4,3.4,51,0.00,,,0.00,VWS V14.01,2013-02-28 23:10:00,
2013-02-28 18:11:00,28.0,12.7,29.26,NNE,22,3.1,4.3,52,0.00,,,0.00,VWS V14.01,2013-02-28 23:11:00,
2013-02-28 18:12:00,28.0,12.3,29.26,NNE,22,2.9,4.3,51,0.00,,,0.00,VWS V14.01,2013-02-28 23:12:00,
2013-02-28 18:13:00,28.0,12.3,29.26,NNE,22,2.9,4.3,51,0.00,,,0.00,VWS V14.01,2013-02-28 23:13:00,
2013-02-28 18:14:00,28.0,12.3,29.26,North,0,3.8,3.8,51,0.00,,,0.00,VWS V14.01,2013-02-28 23:14:00,
2013-02-28 18:15:00,27.9,12.5,29.26,North,0,3.8,3.8,52,0.00,,,0.00,VWS V14.01,2013-02-28 23:15:00,
2013-02-28 18:16:00,27.9,12.5,29.26,NNE,22,3.1,3.8,52,0.00,,,0.00,VWS V14.01,2013-02-28 23:16:00,
2013-02-28 18:17:00,27.9,12.5,29.26,NNW,338,3.1,4.0,52,0.00,,,0.00,VWS V14.01,2013-02-28 23:17:00,
2013-02-28 18:18:00,27.9,12.5,29.26,ENE,68,2.5,4.0,52,0.00,,,0.00,VWS V14.01,2013-02-28 23:18:00,
2013-02-28 18:19:00,27.9,12.5,29.26,NE,45,3.4,4.9,52,0.00,,,0.00,VWS V14.01,2013-02-28 23:19:00,
2013-02-28 18:20:00,27.9,12.1,29.26,North,0,6.3,6.3,51,0.00,,,0.00,VWS V14.01,2013-02-28 23:20:00,
2013-02-28 18:21:00,27.9,12.1,29.26,North,0,4.9,6.3,51,0.00,,,0.00,VWS V14.01,2013-02-28 23:21:00,
2013-02-28 18:22:00,27.9,12.1,29.26,NNE,22,2.9,4.0,51,0.00,,,0.00,VWS V14.01,2013-02-28 23:22:00,
2013-02-28 18:23:00,27.9,12.1,29.26,NNE,22,2.9,4.0,51,0.00,,,0.00,VWS V14.01,2013-02-28 23:23:00,
2013-02-28 18:24:00,27.9,12.1,29.26,ENE,68,1.6,3.1,51,0.00,,,0.00,VWS V14.01,2013-02-28 23:24:00,
2013-02-28 18:25:00,27.7,11.9,29.26,ENE,68,3.6,6.5,51,0.00,,,0.00,VWS V14.01,2013-02-28 23:25:00,
2013-02-28 18:26:00,27.7,12.4,29.26,NNW,338,4.0,8.5,52,0.00,,,0.00,VWS V14.01,2013-02-28 23:26:00,
2013-02-28 18:27:00,27.7,12.4,29.26,NNW,338,4.3,4.3,52,0.00,,,0.00,VWS V14.01,2013-02-28 23:27:00,
2013-02-28 18:28:00,27.7,12.4,29.26,NNW,338,3.1,4.3,52,0.00,,,0.00,VWS V14.01,2013-02-28 23:28:00,
2013-02-28 18:29:00,27.7,12.4,29.26,NW,315,2.5,4.3,52,0.00,,,0.00,VWS V14.01,2013-02-28 23:29:00,
2013-02-28 18:30:00,27.7,12.4,29.26,North,0,2.5,5.8,52,0.00,,,0.00,VWS V14.01,2013-02-28 23:30:00,
2013-02-28 18:31:00,27.5,12.2,29.26,NNE,22,3.6,3.6,52,0.00,,,0.00,VWS V14.01,2013-02-28 23:31:00,
2013-02-28 18:32:00,27.5,12.2,29.26,NNE,22,2.5,3.6,52,0.00,,,0.00,VWS V14.01,2013-02-28 23:32:00,
2013-02-28 18:33:00,27.5,12.2,29.26,NNE,22,3.4,3.4,52,0.00,,,0.00,VWS V14.01,2013-02-28 23:33:00,
2013-02-28 18:34:00,27.5,12.6,29.26,NNE,22,2.5,6.3,53,0.00,,,0.00,VWS V14.01,2013-02-28 23:34:00,
2013-02-28 18:35:00,27.5,12.6,29.26,West,270,3.1,3.8,53,0.00,,,0.00,VWS V14.01,2013-02-28 23:35:00,
2013-02-28 18:36:00,27.5,12.6,29.26,NNE,22,4.3,5.8,53,0.00,,,0.00,VWS V14.01,2013-02-28 23:36:00,
2013-02-28 18:37:00,27.5,12.6,29.26,NNW,338,3.6,4.3,53,0.00,,,0.00,VWS V14.01,2013-02-28 23:37:00,
2013-02-28 18:38:00,27.5,12.6,29.26,WNW,292,2.9,3.6,53,0.00,,,0.00,VWS V14.01,2013-02-28 23:38:00,
2013-02-28 18:39:00,27.5,12.6,29.26,NNW,338,2.0,4.3,53,0.00,,,0.00,VWS V14.01,2013-02-28 23:39:00,
2013-02-28 18:40:00,27.5,12.6,29.26,NNW,338,2.7,3.8,53,0.00,,,0.00,VWS V14.01,2013-02-28 23:40:00,
2013-02-28 18:41:00,27.3,12.5,29.26,North,0,2.7,3.1,53,0.00,,,0.00,VWS V14.01,2013-02-28 23:41:00,
2013-02-28 18:42:00,27.3,12.5,29.26,North,0,3.1,3.1,53,0.00,,,0.00,VWS V14.01,2013-02-28 23:42:00,
2013-02-28 18:43:00,27.3,12.5,29.26,NNE,22,3.1,3.6,53,0.00,,,0.00,VWS V14.01,2013-02-28 23:43:00,
2013-02-28 18:44:00,27.3,12.5,29.26,NNE,22,2.9,3.8,53,0.00,,,0.00,VWS V14.01,2013-02-28 23:44:00,
2013-02-28 18:45:00,27.3,12.5,29.26,NW,315,2.9,3.6,53,0.00,,,0.00,VWS V14.01,2013-02-28 23:45:00,
2013-02-28 18:46:00,26.6,11.8,29.29,NNW,338,3.6,3.8,53,0.00,,,0.00,VWS V14.01,2013-02-28 23:46:00,
2013-02-28 18:47:00,27.3,12.5,29.26,North,0,2.5,6.5,53,0.00,,,0.00,VWS V14.01,2013-02-28 23:47:00,
2013-02-28 18:48:00,27.3,12.5,29.26,NNE,22,2.9,2.9,53,0.00,,,0.00,VWS V14.01,2013-02-28 23:48:00,
2013-02-28 18:49:00,27.3,12.5,29.26,North,0,3.1,4.3,53,0.00,,,0.00,VWS V14.01,2013-02-28 23:49:00,
2013-02-28 18:50:00,27.3,12.5,29.26,NNE,22,4.3,4.3,53,0.00,,,0.00,VWS V14.01,2013-02-28 23:50:00,
2013-02-28 18:51:00,27.3,12.5,29.26,North,0,3.4,4.3,53,0.00,,,0.00,VWS V14.01,2013-02-28 23:51:00,
2013-02-28 18:52:00,27.3,12.5,29.26,NNE,22,3.4,4.3,53,0.00,,,0.00,VWS V14.01,2013-02-28 23:52:00,
2013-02-28 18:53:00,27.3,12.5,29.26,NE,45,6.9,6.9,53,0.00,,,0.00,VWS V14.01,2013-02-28 23:53:00,
2013-02-28 18:54:00,27.3,12.5,29.26,NNE,22,5.4,6.9,53,0.00,,,0.00,VWS V14.01,2013-02-28 23:54:00,
2013-02-28 18:55:00,27.3,12.5,29.26,NNE,22,1.3,5.4,53,0.00,,,0.00,VWS V14.01,2013-02-28 23:55:00,
2013-02-28 18:56:00,27.1,12.7,29.26,North,0,2.9,3.8,54,0.00,,,0.00,VWS V14.01,2013-02-28 23:56:00,
2013-02-28 18:57:00,27.1,12.7,29.26,NE,45,3.1,4.0,54,0.00,,,0.00,VWS V14.01,2013-02-28 23:57:00,
2013-02-28 18:58:00,27.1,12.7,29.26,NW,315,3.8,3.8,54,0.00,,,0.00,VWS V14.01,2013-02-28 23:58:00,
2013-02-28 18:59:00,27.1,12.7,29.26,North,0,4.0,6.0,54,0.00,,,0.00,VWS V14.01,2013-02-28 23:59:00,
2013-02-28 19:00:00,27.1,12.7,29.26,NNE,22,4.7,4.7,54,0.00,,,0.00,VWS V14.01,2013-03-01 00:00:00,
2013-02-28 19:01:00,27.1,12.7,29.26,NNW,338,2.9,4.7,54,0.00,,,0.00,VWS V14.01,2013-03-01 00:01:00,
2013-02-28 19:02:00,27.1,12.7,29.26,NNE,22,2.5,3.6,54,0.00,,,0.00,VWS V14.01,2013-03-01 00:02:00,
2013-02-28 19:03:00,27.1,12.7,29.26,North,0,4.0,4.0,54,0.00,,,0.00,VWS V14.01,2013-03-01 00:03:00,
2013-02-28 19:04:00,27.1,12.7,29.26,NNE,22,3.4,4.3,54,0.00,,,0.00,VWS V14.01,2013-03-01 00:04:00,
2013-02-28 19:05:00,27.1,12.7,29.26,NNE,22,2.0,4.0,54,0.00,,,0.00,VWS V14.01,2013-03-01 00:05:00,
2013-02-28 19:06:00,27.1,12.7,29.26,NNE,22,3.6,3.6,54,0.00,,,0.00,VWS V14.01,2013-03-01 00:06:00,
2013-02-28 19:07:00,27.1,12.7,29.26,North,0,3.1,4.7,54,0.00,,,0.00,VWS V14.01,2013-03-01 00:07:00,
2013-02-28 19:08:00,27.1,12.7,29.26,NE,45,3.1,3.1,54,0.00,,,0.00,VWS V14.01,2013-03-01 00:08:00,
2013-02-28 19:09:00,27.1,12.7,29.26,SE,135,2.5,3.1,54,0.00,,,0.00,VWS V14.01,2013-03-01 00:09:00,
2013-02-28 19:10:00,27.1,12.7,29.26,NNW,338,2.9,3.1,54,0.00,,,0.00,VWS V14.01,2013-03-01 00:10:00,
2013-02-28 19:11:00,27.1,13.1,29.26,North,0,3.1,3.8,55,0.00,,,0.00,VWS V14.01,2013-03-01 00:11:00,
2013-02-28 19:12:00,27.1,13.1,29.26,WNW,292,2.9,3.1,55,0.00,,,0.00,VWS V14.01,2013-03-01 00:12:00,
2013-02-28 19:13:00,27.1,13.1,29.26,NE,45,3.1,3.1,55,0.00,,,0.00,VWS V14.01,2013-03-01 00:13:00,
2013-02-28 19:14:00,27.1,13.1,29.26,NNE,22,4.0,4.0,55,0.00,,,0.00,VWS V14.01,2013-03-01 00:14:00,
2013-02-28 19:15:00,27.1,12.7,29.26,NNE,22,6.7,7.2,54,0.00,,,0.00,VWS V14.01,2013-03-01 00:15:00,
2013-02-28 19:16:00,27.1,12.7,29.26,NNW,338,3.6,6.7,54,0.00,,,0.00,VWS V14.01,2013-03-01 00:16:00,
2013-02-28 19:17:00,27.1,12.3,29.26,North,0,6.3,6.3,53,0.00,,,0.00,VWS V14.01,2013-03-01 00:17:00,
2013-02-28 19:18:00,27.1,12.3,29.26,North,0,3.1,6.3,53,0.00,,,0.00,VWS V14.01,2013-03-01 00:18:00,
2013-02-28 19:19:00,27.1,12.3,29.26,North,0,3.1,6.3,53,0.00,,,0.00,VWS V14.01,2013-03-01 00:19:00,
2013-02-28 19:20:00,27.3,12.5,29.26,North,0,4.7,4.7,53,0.00,,,0.00,VWS V14.01,2013-03-01 00:20:00,
2013-02-28 19:21:00,27.3,12.5,29.26,NW,315,5.6,6.5,53,0.00,,,0.00,VWS V14.01,2013-03-01 00:21:00,
2013-02-28 19:22:00,27.3,12.5,29.26,NNW,338,3.6,5.6,53,0.00,,,0.00,VWS V14.01,2013-03-01 00:22:00,
2013-02-28 19:23:00,27.3,12.5,29.26,NE,45,4.3,4.7,53,0.00,,,0.00,VWS V14.01,2013-03-01 00:23:00,
2013-02-28 19:24:00,27.3,12.0,29.26,NNW,338,3.8,4.7,52,0.00,,,0.00,VWS V14.01,2013-03-01 00:24:00,
2013-02-28 19:25:00,27.1,12.3,29.26,NE,45,5.6,5.6,53,0.00,,,0.00,VWS V14.01,2013-03-01 00:25:00,
2013-02-28 19:26:00,27.1,12.3,29.26,NNW,338,2.5,5.6,53,0.00,,,0.00,VWS V14.01,2013-03-01 00:26:00,
2013-02-28 19:27:00,27.1,12.3,29.26,NE,45,3.1,3.6,53,0.00,,,0.00,VWS V14.01,2013-03-01 00:27:00,
2013-02-28 19:28:00,27.1,12.3,29.26,ENE,68,3.8,3.8,53,0.00,,,0.00,VWS V14.01,2013-03-01 00:28:00,
2013-02-28 19:29:00,27.1,12.3,29.26,North,0,4.0,4.0,53,0.00,,,0.00,VWS V14.01,2013-03-01 00:29:00,
2013-02-28 19:30:00,27.1,12.3,29.26,NNW,338,2.0,5.4,53,0.00,,,0.00,VWS V14.01,2013-03-01 00:30:00,
2013-02-28 19:31:00,27.1,12.3,29.26,ENE,68,6.0,6.0,53,0.00,,,0.00,VWS V14.01,2013-03-01 00:31:00,
2013-02-28 19:32:00,27.1,12.3,29.26,North,0,3.8,6.5,53,0.00,,,0.00,VWS V14.01,2013-03-01 00:32:00,
2013-02-28 19:33:00,27.1,12.3,29.26,NNW,338,2.0,3.8,53,0.00,,,0.00,VWS V14.01,2013-03-01 00:33:00,
2013-02-28 19:34:00,27.1,12.3,29.26,NNW,338,2.0,3.8,53,0.00,,,0.00,VWS V14.01,2013-03-01 00:34:00,
2013-02-28 19:35:00,27.0,12.1,29.26,NNE,22,4.0,5.6,53,0.00,,,0.00,VWS V14.01,2013-03-01 00:35:00,
2013-02-28 19:36:00,27.0,12.1,29.26,North,0,7.8,7.8,53,0.00,,,0.00,VWS V14.01,2013-03-01 00:36:00,
2013-02-28 19:37:00,27.0,11.7,29.29,NNE,22,5.8,7.8,52,0.00,,,0.00,VWS V14.01,2013-03-01 00:37:00,
2013-02-28 19:38:00,27.0,11.7,29.29,North,0,3.4,5.8,52,0.00,,,0.00,VWS V14.01,2013-03-01 00:38:00,
2013-02-28 19:39:00,27.0,11.7,29.29,ESE,112,3.1,5.8,52,0.00,,,0.00,VWS V14.01,2013-03-01 00:39:00,
2013-02-28 19:40:00,27.0,11.7,29.29,West,270,3.8,6.5,52,0.00,,,0.00,VWS V14.01,2013-03-01 00:40:00,
2013-02-28 19:41:00,27.0,11.7,29.29,North,0,4.3,4.3,52,0.00,,,0.00,VWS V14.01,2013-03-01 00:41:00,
2013-02-28 19:42:00,26.8,11.5,29.29,ESE,112,5.8,6.5,52,0.00,,,0.00,VWS V14.01,2013-03-01 00:42:00,
2013-02-28 19:43:00,26.8,11.5,29.29,North,0,4.0,4.3,52,0.00,,,0.00,VWS V14.01,2013-03-01 00:43:00,
2013-02-28 19:44:00,26.6,11.4,29.29,North,0,4.5,4.5,52,0.00,,,0.00,VWS V14.01,2013-03-01 00:44:00,
2013-02-28 19:45:00,26.6,11.8,29.29,North,0,3.8,5.4,53,0.00,,,0.00,VWS V14.01,2013-03-01 00:45:00,
2013-02-28 19:46:00,26.6,11.8,29.29,NNW,338,3.6,3.8,53,0.00,,,0.00,VWS V14.01,2013-03-01 00:46:00,
2013-02-28 19:47:00,26.4,11.6,29.29,NNW,338,4.0,4.0,53,0.00,,,0.00,VWS V14.01,2013-03-01 00:47:00,
2013-02-28 19:48:00,26.2,11.4,29.29,NNW,338,3.6,3.6,53,0.00,,,0.00,VWS V14.01,2013-03-01 00:48:00,
2013-02-28 19:49:00,26.2,11.4,29.29,NNE,22,6.0,6.0,53,0.00,,,0.00,VWS V14.01,2013-03-01 00:49:00,
2013-02-28 19:50:00,26.2,11.4,29.29,NNE,22,6.0,6.0,53,0.00,,,0.00,VWS V14.01,2013-03-01 00:50:00,
2013-02-28 19:51:00,26.2,11.4,29.29,NNE,22,3.8,6.0,53,0.00,,,0.00,VWS V14.01,2013-03-01 00:51:00,
2013-02-28 19:52:00,26.2,11.4,29.29,NNE,22,3.4,4.9,53,0.00,,,0.00,VWS V14.01,2013-03-01 00:52:00,
2013-02-28 19:53:00,26.1,11.3,29.29,NNW,338,5.4,5.4,53,0.00,,,0.00,VWS V14.01,2013-03-01 00:53:00,
2013-02-28 19:54:00,26.1,11.3,29.29,NNE,22,4.0,5.8,53,0.00,,,0.00,VWS V14.01,2013-03-01 00:54:00,
2013-02-28 19:55:00,26.1,11.3,29.29,North,0,3.8,4.0,53,0.00,,,0.00,VWS V14.01,2013-03-01 00:55:00,
2013-02-28 19:56:00,26.1,11.3,29.29,NNE,22,4.3,4.3,53,0.00,,,0.00,VWS V14.01,2013-03-01 00:56:00,
2013-02-28 19:57:00,26.1,11.3,29.29,North,0,2.7,4.3,53,0.00,,,0.00,VWS V14.01,2013-03-01 00:57:00,
2013-02-28 19:58:00,25.9,11.1,29.29,NW,315,3.6,4.9,53,0.00,,,0.00,VWS V14.01,2013-03-01 00:58:00,
2013-02-28 19:59:00,25.9,11.1,29.29,NNW,338,8.1,8.1,53,0.00,,,0.00,VWS V14.01,2013-03-01 00:59:00,
2013-02-28 20:00:00,24.4,9.8,29.32,NNE,22,4.3,4.3,53,0.00,,,0.00,VWS V14.01,2013-03-01 01:00:00,
2013-02-28 20:01:00,25.9,11.1,29.29,ENE,68,3.6,8.1,53,0.00,,,0.00,VWS V14.01,2013-03-01 01:01:00,
2013-02-28 20:02:00,25.9,11.1,29.29,NNW,338,3.4,5.4,53,0.00,,,0.00,VWS V14.01,2013-03-01 01:02:00,
2013-02-28 20:03:00,25.9,11.1,29.29,North,0,2.9,3.4,53,0.00,,,0.00,VWS V14.01,2013-03-01 01:03:00,
2013-02-28 20:04:00,25.9,11.1,29.29,North,0,4.0,4.0,53,0.00,,,0.00,VWS V14.01,2013-03-01 01:04:00,
2013-02-28 20:05:00,25.7,10.9,29.29,North,0,5.6,6.3,53,0.00,,,0.00,VWS V14.01,2013-03-01 01:05:00,
2013-02-28 20:06:00,25.7,10.9,29.29,North,0,3.6,5.6,53,0.00,,,0.00,VWS V14.01,2013-03-01 01:06:00,
2013-02-28 20:07:00,25.7,10.9,29.29,North,0,5.8,6.5,53,0.00,,,0.00,VWS V14.01,2013-03-01 01:07:00,
2013-02-28 20:08:00,25.7,10.9,29.32,NNW,338,5.8,7.6,53,0.00,,,0.00,VWS V14.01,2013-03-01 01:08:00,
2013-02-28 20:09:00,25.7,10.9,29.32,North,0,4.9,7.6,53,0.00,,,0.00,VWS V14.01,2013-03-01 01:09:00,
2013-02-28 20:10:00,25.7,10.9,29.32,NNE,22,4.0,6.0,53,0.00,,,0.00,VWS V14.01,2013-03-01 01:10:00,
2013-02-28 20:11:00,25.7,10.9,29.32,NE,45,3.6,5.4,53,0.00,,,0.00,VWS V14.01,2013-03-01 01:11:00,
2013-02-28 20:12:00,25.7,10.9,29.32,NE,45,3.6,3.6,53,0.00,,,0.00,VWS V14.01,2013-03-01 01:12:00,
2013-02-28 20:13:00,25.5,10.8,29.32,North,0,4.3,4.9,53,0.00,,,0.00,VWS V14.01,2013-03-01 01:13:00,
2013-02-28 20:14:00,25.5,10.8,29.32,North,0,3.4,4.9,53,0.00,,,0.00,VWS V14.01,2013-03-01 01:14:00,
2013-02-28 20:15:00,25.5,10.8,29.32,North,0,3.4,6.5,53,0.00,,,0.00,VWS V14.01,2013-03-01 01:15:00,
2013-02-28 20:16:00,25.5,10.8,29.32,NNE,22,4.3,5.8,53,0.00,,,0.00,VWS V14.01,2013-03-01 01:16:00,
2013-02-28 20:17:00,25.5,10.8,29.32,NNE,22,3.6,4.3,53,0.00,,,0.00,VWS V14.01,2013-03-01 01:17:00,
2013-02-28 20:18:00,25.5,10.4,29.32,WNW,292,4.3,6.9,52,0.00,,,0.00,VWS V14.01,2013-03-01 01:18:00,
2013-02-28 20:19:00,25.5,10.4,29.32,NNE,22,3.4,6.9,52,0.00,,,0.00,VWS V14.01,2013-03-01 01:19:00,
2013-02-28 20:20:00,25.5,10.4,29.32,NNE,22,3.4,3.4,52,0.00,,,0.00,VWS V14.01,2013-03-01 01:20:00,
2013-02-28 20:21:00,25.5,10.4,29.32,NNE,22,3.4,7.6,52,0.00,,,0.00,VWS V14.01,2013-03-01 01:21:00,
2013-02-28 20:22:00,25.3,10.6,29.32,North,0,5.8,5.8,53,0.00,,,0.00,VWS V14.01,2013-03-01 01:22:00,
2013-02-28 20:23:00,25.3,10.2,29.32,NE,45,8.1,8.1,52,0.00,,,0.00,VWS V14.01,2013-03-01 01:23:00,
2013-02-28 20:24:00,25.3,10.2,29.32,NE,45,8.1,8.1,52,0.00,,,0.00,VWS V14.01,2013-03-01 01:24:00,
2013-02-28 20:25:00,25.3,10.2,29.32,North,0,4.9,8.1,52,0.00,,,0.00,VWS V14.01,2013-03-01 01:25:00,
2013-02-28 20:26:00,25.3,10.2,29.32,NNE,22,4.9,7.8,52,0.00,,,0.00,VWS V14.01,2013-03-01 01:26:00,
2013-02-28 20:27:00,25.3,10.2,29.32,NNE,22,5.6,5.6,52,0.00,,,0.00,VWS V14.01,2013-03-01 01:27:00,
2013-02-28 20:28:00,25.3,10.2,29.32,NNE,22,4.7,5.6,52,0.00,,,0.00,VWS V14.01,2013-03-01 01:28:00,
2013-02-28 20:29:00,25.3,10.2,29.32,NNE,22,6.5,6.5,52,0.00,,,0.00,VWS V14.01,2013-03-01 01:29:00,
2013-02-28 20:30:00,25.3,10.6,29.32,North,0,5.6,6.5,53,0.00,,,0.00,VWS V14.01,2013-03-01 01:30:00,
2013-02-28 20:31:00,25.3,10.6,29.32,North,0,3.8,5.6,53,0.00,,,0.00,VWS V14.01,2013-03-01 01:31:00,
2013-02-28 20:32:00,25.2,10.4,29.32,North,0,6.3,6.3,53,0.00,,,0.00,VWS V14.01,2013-03-01 01:32:00,
2013-02-28 20:33:00,25.2,10.0,29.32,NNW,338,5.4,6.3,52,0.00,,,0.00,VWS V14.01,2013-03-01 01:33:00,
2013-02-28 20:34:00,25.2,10.0,29.32,North,0,3.8,5.4,52,0.00,,,0.00,VWS V14.01,2013-03-01 01:34:00,
2013-02-28 20:35:00,25.2,10.0,29.32,North,0,3.8,5.4,52,0.00,,,0.00,VWS V14.01,2013-03-01 01:35:00,
2013-02-28 20:36:00,25.2,10.0,29.32,NNE,22,4.7,5.8,52,0.00,,,0.00,VWS V14.01,2013-03-01 01:36:00,
2013-02-28 20:37:00,25.2,10.0,29.32,NE,45,5.4,5.4,52,0.00,,,0.00,VWS V14.01,2013-03-01 01:37:00,
2013-02-28 20:38:00,25.2,10.0,29.32,North,0,4.5,6.5,52,0.00,,,0.00,VWS V14.01,2013-03-01 01:38:00,
2013-02-28 20:39:00,25.2,10.0,29.32,North,0,3.4,6.3,52,0.00,,,0.00,VWS V14.01,2013-03-01 01:39:00,
2013-02-28 20:40:00,23.7,9.1,29.32,NE,45,6.0,6.0,53,0.00,,,0.00,VWS V14.01,2013-03-01 01:40:00,
2013-02-28 20:41:00,25.2,10.0,29.32,North,0,5.6,5.6,52,0.00,,,0.00,VWS V14.01,2013-03-01 01:41:00,
2013-02-28 20:42:00,25.0,9.9,29.32,North,0,4.3,9.2,52,0.00,,,0.00,VWS V14.01,2013-03-01 01:42:00,
2013-02-28 20:43:00,25.0,9.9,29.32,North,0,3.8,5.4,52,0.00,,,0.00,VWS V14.01,2013-03-01 01:43:00,
2013-02-28 20:44:00,25.0,9.9,29.32,East,90,5.6,6.3,52,0.00,,,0.00,VWS V14.01,2013-03-01 01:44:00,
2013-02-28 20:45:00,25.0,9.9,29.32,NNE,22,5.6,7.8,52,0.00,,,0.00,VWS V14.01,2013-03-01 01:45:00,
2013-02-28 20:46:00,24.8,10.1,29.32,NE,45,4.7,5.6,53,0.00,,,0.00,VWS V14.01,2013-03-01 01:46:00,
2013-02-28 20:47:00,24.8,9.7,29.32,NE,45,5.8,5.8,52,0.00,,,0.00,VWS V14.01,2013-03-01 01:47:00,
2013-02-28 20:48:00,24.8,10.1,29.32,NE,45,5.6,5.8,53,0.00,,,0.00,VWS V14.01,2013-03-01 01:48:00,
2013-02-28 20:49:00,24.8,9.7,29.32,NNE,22,4.0,5.6,52,0.00,,,0.00,VWS V14.01,2013-03-01 01:49:00,
2013-02-28 20:50:00,24.8,10.1,29.32,NNE,22,5.8,5.8,53,0.00,,,0.00,VWS V14.01,2013-03-01 01:50:00,
2013-02-28 20:51:00,24.8,10.1,29.32,NE,45,3.8,5.8,53,0.00,,,0.00,VWS V14.01,2013-03-01 01:51:00,
2013-02-28 20:52:00,24.6,9.9,29.32,NNW,338,3.1,4.7,53,0.00,,,0.00,VWS V14.01,2013-03-01 01:52:00,
2013-02-28 20:53:00,24.6,9.9,29.32,NNE,22,6.3,6.3,53,0.00,,,0.00,VWS V14.01,2013-03-01 01:53:00,
2013-02-28 20:54:00,24.6,9.9,29.32,North,0,5.4,6.3,53,0.00,,,0.00,VWS V14.01,2013-03-01 01:54:00,
2013-02-28 20:55:00,24.6,9.9,29.32,NNE,22,4.7,6.3,53,0.00,,,0.00,VWS V14.01,2013-03-01 01:55:00,
2013-02-28 20:56:00,24.6,9.9,29.32,NNE,22,3.8,5.4,53,0.00,,,0.00,VWS V14.01,2013-03-01 01:56:00,
2013-02-28 20:57:00,24.6,9.9,29.32,NNW,338,3.4,6.7,53,0.00,,,0.00,VWS V14.01,2013-03-01 01:57:00,
2013-02-28 20:58:00,24.4,9.4,29.32,NNE,22,5.6,10.1,52,0.00,,,0.00,VWS V14.01,2013-03-01 01:58:00,
2013-02-28 20:59:00,24.4,9.4,29.32,NNE,22,4.3,5.6,52,0.00,,,0.00,VWS V14.01,2013-03-01 01:59:00,
2013-02-28 21:00:00,24.4,9.8,29.32,NNE,22,4.3,4.3,53,0.00,,,0.00,VWS V14.01,2013-03-01 02:00:00,
2013-02-28 21:01:00,24.4,9.8,29.32,NNE,22,3.8,4.3,53,0.00,,,0.00,VWS V14.01,2013-03-01 02:01:00,
2013-02-28 21:02:00,24.4,9.8,29.32,North,0,4.0,4.0,53,0.00,,,0.00,VWS V14.01,2013-03-01 02:02:00,
2013-02-28 21:03:00,24.4,9.8,29.32,North,0,4.0,4.0,53,0.00,,,0.00,VWS V14.01,2013-03-01 02:03:00,
2013-02-28 21:04:00,24.4,9.8,29.32,NNE,22,3.6,4.0,53,0.00,,,0.00,VWS V14.01,2013-03-01 02:04:00,
2013-02-28 21:05:00,24.3,9.6,29.32,North,0,3.6,5.8,53,0.00,,,0.00,VWS V14.01,2013-03-01 02:05:00,
2013-02-28 21:06:00,24.3,9.6,29.32,NNE,22,4.3,4.3,53,0.00,,,0.00,VWS V14.01,2013-03-01 02:06:00,
2013-02-28 21:07:00,23.4,8.8,29.32,NNE,22,3.4,4.0,53,0.00,,,0.00,VWS V14.01,2013-03-01 02:07:00,
2013-02-28 21:08:00,24.3,9.6,29.32,NNE,22,4.0,4.3,53,0.00,,,0.00,VWS V14.01,2013-03-01 02:08:00,
2013-02-28 21:09:00,24.3,9.6,29.32,ENE,68,6.3,6.3,53,0.00,,,0.00,VWS V14.01,2013-03-01 02:09:00,
2013-02-28 21:10:00,24.3,9.6,29.32,NNE,22,3.6,6.3,53,0.00,,,0.00,VWS V14.01,2013-03-01 02:10:00,
2013-02-28 21:11:00,24.3,9.6,29.32,NE,45,4.0,4.0,53,0.00,,,0.00,VWS V14.01,2013-03-01 02:11:00,
2013-02-28 21:12:00,24.3,9.6,29.32,NNE,22,3.6,4.0,53,0.00,,,0.00,VWS V14.01,2013-03-01 02:12:00,
2013-02-28 21:13:00,24.3,9.6,29.32,North,0,3.6,4.7,53,0.00,,,0.00,VWS V14.01,2013-03-01 02:13:00,
2013-02-28 21:14:00,24.1,9.4,29.32,NNE,22,4.3,4.3,53,0.00,,,0.00,VWS V14.01,2013-03-01 02:14:00,
2013-02-28 21:15:00,24.1,9.4,29.32,NNE,22,3.8,4.3,53,0.00,,,0.00,VWS V14.01,2013-03-01 02:15:00,
2013-02-28 21:16:00,24.1,9.4,29.32,North,0,8.7,8.7,53,0.00,,,0.00,VWS V14.01,2013-03-01 02:16:00,
2013-02-28 21:17:00,24.1,9.4,29.32,NNE,22,3.4,8.7,53,0.00,,,0.00,VWS V14.01,2013-03-01 02:17:00,
2013-02-28 21:18:00,24.1,9.4,29.32,NNE,22,4.3,4.3,53,0.00,,,0.00,VWS V14.01,2013-03-01 02:18:00,
2013-02-28 21:19:00,23.9,9.3,29.32,North,0,3.8,4.7,53,0.00,,,0.00,VWS V14.01,2013-03-01 02:19:00,
2013-02-28 21:20:00,23.9,9.3,29.32,NNE,22,4.9,4.9,53,0.00,,,0.00,VWS V14.01,2013-03-01 02:20:00,
2013-02-28 21:21:00,23.9,9.3,29.32,NNE,22,2.5,4.9,53,0.00,,,0.00,VWS V14.01,2013-03-01 02:21:00,
2013-02-28 21:22:00,23.9,9.3,29.32,North,0,3.6,5.4,53,0.00,,,0.00,VWS V14.01,2013-03-01 02:22:00,
2013-02-28 21:23:00,23.9,9.3,29.32,North,0,4.7,4.7,53,0.00,,,0.00,VWS V14.01,2013-03-01 02:23:00,
2013-02-28 21:24:00,23.9,9.3,29.32,NNE,22,3.4,4.3,53,0.00,,,0.00,VWS V14.01,2013-03-01 02:24:00,
2013-02-28 21:25:00,23.9,9.3,29.32,NE,45,2.9,4.3,53,0.00,,,0.00,VWS V14.01,2013-03-01 02:25:00,
2013-02-28 21:26:00,23.9,9.3,29.32,NE,45,3.8,4.9,53,0.00,,,0.00,VWS V14.01,2013-03-01 02:26:00,
2013-02-28 21:27:00,23.7,9.1,29.32,NNE,22,4.0,4.0,53,0.00,,,0.00,VWS V14.01,2013-03-01 02:27:00,
2013-02-28 21:28:00,23.7,9.1,29.32,North,0,6.3,6.3,53,0.00,,,0.00,VWS V14.01,2013-03-01 02:28:00,
2013-02-28 21:29:00,23.7,9.1,29.32,North,0,4.0,4.9,53,0.00,,,0.00,VWS V14.01,2013-03-01 02:29:00,
2013-02-28 21:30:00,23.7,9.1,29.32,NE,45,4.0,4.9,53,0.00,,,0.00,VWS V14.01,2013-03-01 02:30:00,
2013-02-28 21:31:00,23.7,9.1,29.32,NE,45,4.0,6.0,53,0.00,,,0.00,VWS V14.01,2013-03-01 02:31:00,
2013-02-28 21:32:00,23.7,9.1,29.32,NE,45,3.4,4.9,53,0.00,,,0.00,VWS V14.01,2013-03-01 02:32:00,
2013-02-28 21:33:00,23.7,9.1,29.32,NE,45,3.4,3.4,53,0.00,,,0.00,VWS V14.01,2013-03-01 02:33:00,
2013-02-28 21:34:00,23.7,9.1,29.32,NNE,22,5.6,5.6,53,0.00,,,0.00,VWS V14.01,2013-03-01 02:34:00,
2013-02-28 21:35:00,23.7,9.1,29.32,North,0,3.6,8.1,53,0.00,,,0.00,VWS V14.01,2013-03-01 02:35:00,
2013-02-28 21:36:00,23.7,9.1,29.32,NNE,22,6.3,6.3,53,0.00,,,0.00,VWS V14.01,2013-03-01 02:36:00,
2013-02-28 21:37:00,23.7,9.1,29.32,NE,45,4.0,6.3,53,0.00,,,0.00,VWS V14.01,2013-03-01 02:37:00,
2013-02-28 21:38:00,23.7,9.1,29.32,NE,45,4.0,7.2,53,0.00,,,0.00,VWS V14.01,2013-03-01 02:38:00,
2013-02-28 21:39:00,23.7,9.1,29.32,NNE,22,4.0,4.3,53,0.00,,,0.00,VWS V14.01,2013-03-01 02:39:00,
2013-02-28 21:40:00,23.7,9.1,29.32,NE,45,6.0,6.0,53,0.00,,,0.00,VWS V14.01,2013-03-01 02:40:00,
2013-02-28 21:41:00,23.7,9.1,29.32,NNE,22,3.6,6.0,53,0.00,,,0.00,VWS V14.01,2013-03-01 02:41:00,
2013-02-28 21:42:00,23.7,9.1,29.32,NNE,22,3.6,3.6,53,0.00,,,0.00,VWS V14.01,2013-03-01 02:42:00,
2013-02-28 21:43:00,23.7,9.1,29.32,North,0,3.8,3.8,53,0.00,,,0.00,VWS V14.01,2013-03-01 02:43:00,
2013-02-28 21:44:00,23.5,8.9,29.32,NNE,22,4.0,5.6,53,0.00,,,0.00,VWS V14.01,2013-03-01 02:44:00,
2013-02-28 21:45:00,23.5,8.9,29.32,NNE,22,3.6,5.6,53,0.00,,,0.00,VWS V14.01,2013-03-01 02:45:00,
2013-02-28 21:46:00,23.5,8.9,29.32,NNE,22,5.8,5.8,53,0.00,,,0.00,VWS V14.01,2013-03-01 02:46:00,
2013-02-28 21:47:00,23.5,8.9,29.32,NNE,22,3.8,5.8,53,0.00,,,0.00,VWS V14.01,2013-03-01 02:47:00,
2013-02-28 21:48:00,23.5,8.9,29.32,NNE,22,2.7,4.9,53,0.00,,,0.00,VWS V14.01,2013-03-01 02:48:00,
2013-02-28 21:49:00,23.5,8.9,29.32,NE,45,2.9,3.4,53,0.00,,,0.00,VWS V14.01,2013-03-01 02:49:00,
2013-02-28 21:50:00,23.5,8.9,29.32,NNE,22,3.1,4.9,53,0.00,,,0.00,VWS V14.01,2013-03-01 02:50:00,
2013-02-28 21:51:00,23.5,8.9,29.32,NNE,22,6.5,7.8,53,0.00,,,0.00,VWS V14.01,2013-03-01 02:51:00,
2013-02-28 21:52:00,23.5,8.9,29.32,North,0,5.4,6.5,53,0.00,,,0.00,VWS V14.01,2013-03-01 02:52:00,
2013-02-28 21:53:00,23.5,8.9,29.32,NNE,22,3.8,6.3,53,0.00,,,0.00,VWS V14.01,2013-03-01 02:53:00,
2013-02-28 21:54:00,23.5,8.9,29.32,NNE,22,3.4,4.3,53,0.00,,,0.00,VWS V14.01,2013-03-01 02:54:00,
2013-02-28 21:55:00,23.5,8.9,29.32,NNE,22,4.3,4.3,53,0.00,,,0.00,VWS V14.01,2013-03-01 02:55:00,
2013-02-28 21:56:00,23.4,8.8,29.32,North,0,2.5,5.4,53,0.00,,,0.00,VWS V14.01,2013-03-01 02:56:00,
2013-02-28 21:57:00,23.4,8.8,29.32,NNW,338,2.7,3.6,53,0.00,,,0.00,VWS V14.01,2013-03-01 02:57:00,
2013-02-28 21:58:00,23.2,8.6,29.32,NE,45,2.5,3.4,53,0.00,,,0.00,VWS V14.01,2013-03-01 02:58:00,
2013-02-28 21:59:00,23.2,8.6,29.32,North,0,3.6,5.8,53,0.00,,,0.00,VWS V14.01,2013-03-01 02:59:00,
2013-02-28 22:00:00,23.2,8.6,29.32,North,0,4.0,5.8,53,0.00,,,0.00,VWS V14.01,2013-03-01 03:00:00,
2013-02-28 22:01:00,23.2,8.6,29.32,NNE,22,4.0,4.0,53,0.00,,,0.00,VWS V14.01,2013-03-01 03:01:00,
2013-02-28 22:02:00,23.4,8.8,29.32,NW,315,5.8,6.3,53,0.00,,,0.00,VWS V14.01,2013-03-01 03:02:00,
2013-02-28 22:03:00,23.4,8.8,29.32,NNW,338,3.6,5.8,53,0.00,,,0.00,VWS V14.01,2013-03-01 03:03:00,
2013-02-28 22:04:00,23.4,8.8,29.32,NE,45,2.9,3.6,53,0.00,,,0.00,VWS V14.01,2013-03-01 03:04:00,
2013-02-28 22:05:00,23.4,8.8,29.32,NNE,22,2.0,2.0,53,0.00,,,0.00,VWS V14.01,2013-03-01 03:05:00,
2013-02-28 22:06:00,23.4,8.8,29.32,ENE,68,4.0,4.0,53,0.00,,,0.00,VWS V14.01,2013-03-01 03:06:00,
2013-02-28 22:07:00,23.4,8.8,29.32,NNE,22,3.4,4.0,53,0.00,,,0.00,VWS V14.01,2013-03-01 03:07:00,
2013-02-28 22:08:00,23.4,8.8,29.32,NNW,338,5.6,6.0,53,0.00,,,0.00,VWS V14.01,2013-03-01 03:08:00,
2013-02-28 22:09:00,23.5,8.9,29.32,ENE,68,4.3,5.8,53,0.00,,,0.00,VWS V14.01,2013-03-01 03:09:00,
2013-02-28 22:10:00,23.5,8.9,29.32,NNE,22,6.0,6.0,53,0.00,,,0.00,VWS V14.01,2013-03-01 03:10:00,
2013-02-28 22:11:00,23.5,8.9,29.32,NE,45,4.9,6.5,53,0.00,,,0.00,VWS V14.01,2013-03-01 03:11:00,
2013-02-28 22:12:00,23.5,8.9,29.32,NE,45,5.4,5.4,53,0.00,,,0.00,VWS V14.01,2013-03-01 03:12:00,
2013-02-28 22:13:00,23.5,8.9,29.32,North,0,4.7,5.4,53,0.00,,,0.00,VWS V14.01,2013-03-01 03:13:00,
2013-02-28 22:14:00,23.5,8.9,29.32,NNE,22,3.4,3.8,53,0.00,,,0.00,VWS V14.01,2013-03-01 03:14:00,
2013-02-28 22:15:00,23.5,8.9,29.32,NE,45,2.7,3.8,53,0.00,,,0.00,VWS V14.01,2013-03-01 03:15:00,
2013-02-28 22:16:00,23.5,8.9,29.32,NE,45,2.9,2.9,53,0.00,,,0.00,VWS V14.01,2013-03-01 03:16:00,
2013-02-28 22:17:00,23.5,8.9,29.32,NNE,22,2.5,2.9,53,0.00,,,0.00,VWS V14.01,2013-03-01 03:17:00,
2013-02-28 22:18:00,23.5,8.9,29.32,ENE,68,2.7,4.7,53,0.00,,,0.00,VWS V14.01,2013-03-01 03:18:00,
2013-02-28 22:19:00,23.5,8.9,29.32,NNE,22,3.1,3.1,53,0.00,,,0.00,VWS V14.01,2013-03-01 03:19:00,
2013-02-28 22:20:00,23.5,8.9,29.32,NE,45,2.5,3.1,53,0.00,,,0.00,VWS V14.01,2013-03-01 03:20:00,
2013-02-28 22:21:00,23.5,8.9,29.32,NNE,22,1.3,3.6,53,0.00,,,0.00,VWS V14.01,2013-03-01 03:21:00,
2013-02-28 22:22:00,23.5,8.9,29.32,NNE,22,2.9,3.6,53,0.00,,,0.00,VWS V14.01,2013-03-01 03:22:00,
2013-02-28 22:23:00,23.5,8.9,29.32,North,0,2.5,3.6,53,0.00,,,0.00,VWS V14.01,2013-03-01 03:23:00,
2013-02-28 22:24:00,23.5,8.9,29.32,NE,45,3.8,4.0,53,0.00,,,0.00,VWS V14.01,2013-03-01 03:24:00,
2013-02-28 22:25:00,23.5,8.9,29.32,NE,45,3.6,4.0,53,0.00,,,0.00,VWS V14.01,2013-03-01 03:25:00,
2013-02-28 22:26:00,23.5,8.9,29.32,NE,45,2.9,4.0,53,0.00,,,0.00,VWS V14.01,2013-03-01 03:26:00,
2013-02-28 22:27:00,23.5,8.9,29.32,NE,45,2.9,3.8,53,0.00,,,0.00,VWS V14.01,2013-03-01 03:27:00,
2013-02-28 22:28:00,23.5,8.9,29.32,NNE,22,2.2,2.9,53,0.00,,,0.00,VWS V14.01,2013-03-01 03:28:00,
2013-02-28 22:29:00,23.5,9.4,29.32,NNE,22,3.4,3.6,54,0.00,,,0.00,VWS V14.01,2013-03-01 03:29:00,
2013-02-28 22:30:00,23.5,9.4,29.32,NE,45,2.7,3.6,54,0.00,,,0.00,VWS V14.01,2013-03-01 03:30:00,
2013-02-28 22:31:00,23.5,9.4,29.32,NNW,338,4.3,4.3,54,0.00,,,0.00,VWS V14.01,2013-03-01 03:31:00,
2013-02-28 22:32:00,23.5,9.4,29.32,ENE,68,4.3,5.8,54,0.00,,,0.00,VWS V14.01,2013-03-01 03:32:00,
2013-02-28 22:33:00,23.5,9.4,29.32,NE,45,4.7,4.7,54,0.00,,,0.00,VWS V14.01,2013-03-01 03:33:00,
2013-02-28 22:34:00,23.5,9.4,29.32,North,0,3.1,3.6,54,0.00,,,0.00,VWS V14.01,2013-03-01 03:34:00,
2013-02-28 22:35:00,23.5,9.4,29.32,NNE,22,2.9,3.6,54,0.00,,,0.00,VWS V14.01,2013-03-01 03:35:00,
2013-02-28 22:36:00,23.5,9.4,29.32,North,0,3.8,5.6,54,0.00,,,0.00,VWS V14.01,2013-03-01 03:36:00,
2013-02-28 22:37:00,23.5,9.4,29.32,NNE,22,5.8,5.8,54,0.00,,,0.00,VWS V14.01,2013-03-01 03:37:00,
2013-02-28 22:38:00,23.5,8.9,29.35,ENE,68,4.0,5.8,53,0.00,,,0.00,VWS V14.01,2013-03-01 03:38:00,
2013-02-28 22:39:00,23.5,8.9,29.35,NE,45,5.6,5.6,53,0.00,,,0.00,VWS V14.01,2013-03-01 03:39:00,
2013-02-28 22:40:00,23.5,8.9,29.35,NNE,22,5.6,5.6,53,0.00,,,0.00,VWS V14.01,2013-03-01 03:40:00,
2013-02-28 22:41:00,23.5,8.9,29.35,NE,45,6.3,7.2,53,0.00,,,0.00,VWS V14.01,2013-03-01 03:41:00,
2013-02-28 22:42:00,22.5,7.9,29.35,East,90,2.7,3.6,53,0.00,,,0.00,VWS V14.01,2013-03-01 03:42:00,
2013-02-28 22:43:00,23.5,8.9,29.35,NNE,22,4.9,6.3,53,0.00,,,0.00,VWS V14.01,2013-03-01 03:43:00,
2013-02-28 22:44:00,23.5,8.9,29.35,NNE,22,4.0,4.3,53,0.00,,,0.00,VWS V14.01,2013-03-01 03:44:00,
2013-02-28 22:45:00,23.5,8.9,29.35,NNE,22,4.0,4.3,53,0.00,,,0.00,VWS V14.01,2013-03-01 03:45:00,
2013-02-28 22:46:00,23.5,8.9,29.35,NE,45,6.5,6.5,53,0.00,,,0.00,VWS V14.01,2013-03-01 03:46:00,
2013-02-28 22:47:00,23.5,8.9,29.35,NNE,22,6.0,6.5,53,0.00,,,0.00,VWS V14.01,2013-03-01 03:47:00,
2013-02-28 22:48:00,23.5,8.9,29.35,NNE,22,6.3,6.3,53,0.00,,,0.00,VWS V14.01,2013-03-01 03:48:00,
2013-02-28 22:49:00,23.5,8.9,29.35,NE,45,3.6,6.3,53,0.00,,,0.00,VWS V14.01,2013-03-01 03:49:00,
2013-02-28 22:50:00,23.4,8.4,29.35,ENE,68,3.1,3.6,52,0.00,,,0.00,VWS V14.01,2013-03-01 03:50:00,
2013-02-28 22:51:00,22.3,8.2,29.35,NE,45,4.3,4.3,54,0.00,,,0.00,VWS V14.01,2013-03-01 03:51:00,
2013-02-28 22:52:00,23.4,8.4,29.35,NNE,22,3.6,3.6,52,0.00,,,0.00,VWS V14.01,2013-03-01 03:52:00,
2013-02-28 22:53:00,23.4,8.8,29.35,NNE,22,3.6,4.3,53,0.00,,,0.00,VWS V14.01,2013-03-01 03:53:00,
2013-02-28 22:54:00,22.3,8.2,29.35,NE,45,5.4,6.0,54,0.00,,,0.00,VWS V14.01,2013-03-01 03:54:00,
2013-02-28 22:55:00,23.4,8.8,29.35,NNE,22,3.1,3.8,53,0.00,,,0.00,VWS V14.01,2013-03-01 03:55:00,
2013-02-28 22:56:00,23.4,8.8,29.35,NE,45,3.4,5.8,53,0.00,,,0.00,VWS V14.01,2013-03-01 03:56:00,
2013-02-28 22:57:00,23.4,8.8,29.35,NNE,22,4.3,4.3,53,0.00,,,0.00,VWS V14.01,2013-03-01 03:57:00,
2013-02-28 22:58:00,23.4,8.8,29.35,North,0,7.6,7.6,53,0.00,,,0.00,VWS V14.01,2013-03-01 03:58:00,
2013-02-28 22:59:00,23.4,8.8,29.35,NNE,22,2.0,7.6,53,0.00,,,0.00,VWS V14.01,2013-03-01 03:59:00,
2013-02-28 23:00:00,23.4,8.8,29.35,NNE,22,2.9,2.9,53,0.00,,,0.00,VWS V14.01,2013-03-01 04:00:00,
2013-02-28 23:01:00,23.4,8.8,29.35,ENE,68,3.6,4.0,53,0.00,,,0.00,VWS V14.01,2013-03-01 04:01:00,
2013-02-28 23:02:00,23.4,8.8,29.35,NE,45,2.5,3.6,53,0.00,,,0.00,VWS V14.01,2013-03-01 04:02:00,
2013-02-28 23:03:00,23.4,8.8,29.35,NNE,22,3.6,3.6,53,0.00,,,0.00,VWS V14.01,2013-03-01 04:03:00,
2013-02-28 23:04:00,23.4,8.8,29.35,NE,45,4.3,6.0,53,0.00,,,0.00,VWS V14.01,2013-03-01 04:04:00,
2013-02-28 23:05:00,23.4,8.8,29.35,ENE,68,3.6,3.6,53,0.00,,,0.00,VWS V14.01,2013-03-01 04:05:00,
2013-02-28 23:06:00,23.4,8.8,29.35,NE,45,3.6,3.6,53,0.00,,,0.00,VWS V14.01,2013-03-01 04:06:00,
2013-02-28 23:07:00,23.4,8.8,29.35,NNE,22,3.6,3.6,53,0.00,,,0.00,VWS V14.01,2013-03-01 04:07:00,
2013-02-28 23:08:00,23.4,8.8,29.35,North,0,2.7,4.9,53,0.00,,,0.00,VWS V14.01,2013-03-01 04:08:00,
2013-02-28 23:09:00,23.4,8.8,29.35,NE,45,4.3,5.4,53,0.00,,,0.00,VWS V14.01,2013-03-01 04:09:00,
2013-02-28 23:10:00,23.2,8.6,29.35,NE,45,3.4,4.3,53,0.00,,,0.00,VWS V14.01,2013-03-01 04:10:00,
2013-02-28 23:11:00,23.2,8.6,29.35,NNE,22,5.4,5.4,53,0.00,,,0.00,VWS V14.01,2013-03-01 04:11:00,
2013-02-28 23:12:00,23.0,8.4,29.35,NNE,22,3.4,5.4,53,0.00,,,0.00,VWS V14.01,2013-03-01 04:12:00,
2013-02-28 23:13:00,23.0,8.4,29.35,NNE,22,2.5,4.3,53,0.00,,,0.00,VWS V14.01,2013-03-01 04:13:00,
2013-02-28 23:14:00,21.7,7.7,29.35,NE,45,3.1,3.8,54,0.00,,,0.00,VWS V14.01,2013-03-01 04:14:00,
2013-02-28 23:15:00,23.0,8.4,29.35,NNE,22,3.1,3.1,53,0.00,,,0.00,VWS V14.01,2013-03-01 04:15:00,
2013-02-28 23:16:00,21.7,7.7,29.35,NE,45,4.0,4.0,54,0.00,,,0.00,VWS V14.01,2013-03-01 04:16:00,
2013-02-28 23:17:00,23.0,8.4,29.35,NNW,338,3.4,7.4,53,0.00,,,0.00,VWS V14.01,2013-03-01 04:17:00,
2013-02-28 23:18:00,23.0,8.4,29.35,NNE,22,3.1,3.4,53,0.00,,,0.00,VWS V14.01,2013-03-01 04:18:00,
2013-02-28 23:19:00,23.0,8.4,29.35,NNE,22,3.1,3.1,53,0.00,,,0.00,VWS V14.01,2013-03-01 04:19:00,
2013-02-28 23:20:00,22.8,8.3,29.35,NNE,22,2.9,2.9,53,0.00,,,0.00,VWS V14.01,2013-03-01 04:20:00,
2013-02-28 23:21:00,22.8,8.3,29.35,ENE,68,3.1,3.1,53,0.00,,,0.00,VWS V14.01,2013-03-01 04:21:00,
2013-02-28 23:22:00,22.8,8.3,29.35,NE,45,5.4,7.4,53,0.00,,,0.00,VWS V14.01,2013-03-01 04:22:00,
2013-02-28 23:23:00,22.8,8.3,29.35,NE,45,3.6,5.8,53,0.00,,,0.00,VWS V14.01,2013-03-01 04:23:00,
2013-02-28 23:24:00,22.8,8.3,29.35,NNE,22,2.7,3.6,53,0.00,,,0.00,VWS V14.01,2013-03-01 04:24:00,
2013-02-28 23:25:00,22.8,8.3,29.35,NNE,22,4.0,4.0,53,0.00,,,0.00,VWS V14.01,2013-03-01 04:25:00,
2013-02-28 23:26:00,22.8,8.3,29.35,NNE,22,3.1,4.9,53,0.00,,,0.00,VWS V14.01,2013-03-01 04:26:00,
2013-02-28 23:27:00,22.8,8.3,29.35,NE,45,5.4,5.4,53,0.00,,,0.00,VWS V14.01,2013-03-01 04:27:00,
2013-02-28 23:28:00,22.8,8.3,29.35,NE,45,3.1,5.6,53,0.00,,,0.00,VWS V14.01,2013-03-01 04:28:00,
2013-02-28 23:29:00,22.8,8.3,29.35,NNE,22,2.7,4.0,53,0.00,,,0.00,VWS V14.01,2013-03-01 04:29:00,
2013-02-28 23:30:00,22.8,8.3,29.35,NNE,22,3.6,3.6,53,0.00,,,0.00,VWS V14.01,2013-03-01 04:30:00,
2013-02-28 23:31:00,22.8,8.3,29.35,NNW,338,2.9,3.6,53,0.00,,,0.00,VWS V14.01,2013-03-01 04:31:00,
2013-02-28 23:32:00,22.8,8.7,29.35,NE,45,2.0,4.0,54,0.00,,,0.00,VWS V14.01,2013-03-01 04:32:00,
2013-02-28 23:33:00,22.8,8.7,29.35,North,0,3.1,5.6,54,0.00,,,0.00,VWS V14.01,2013-03-01 04:33:00,
2013-02-28 23:34:00,22.6,8.5,29.35,North,0,3.6,3.6,54,0.00,,,0.00,VWS V14.01,2013-03-01 04:34:00,
2013-02-28 23:35:00,22.6,8.5,29.35,NNE,22,3.6,4.0,54,0.00,,,0.00,VWS V14.01,2013-03-01 04:35:00,
2013-02-28 23:36:00,22.6,8.1,29.35,NE,45,4.0,4.0,53,0.00,,,0.00,VWS V14.01,2013-03-01 04:36:00,
2013-02-28 23:37:00,22.6,8.1,29.35,NE,45,4.7,4.9,53,0.00,,,0.00,VWS V14.01,2013-03-01 04:37:00,
2013-02-28 23:38:00,21.2,7.2,29.35,NNE,22,2.9,4.0,54,0.00,,,0.00,VWS V14.01,2013-03-01 04:38:00,
2013-02-28 23:39:00,21.2,7.2,29.35,NE,45,4.9,4.9,54,0.00,,,0.00,VWS V14.01,2013-03-01 04:39:00,
2013-02-28 23:40:00,22.6,8.1,29.35,NNE,22,2.7,4.3,53,0.00,,,0.00,VWS V14.01,2013-03-01 04:40:00,
2013-02-28 23:41:00,22.6,8.1,29.35,North,0,2.9,4.3,53,0.00,,,0.00,VWS V14.01,2013-03-01 04:41:00,
2013-02-28 23:42:00,22.5,7.9,29.35,East,90,2.7,3.6,53,0.00,,,0.00,VWS V14.01,2013-03-01 04:42:00,
2013-02-28 23:43:00,22.5,8.3,29.35,NE,45,3.6,5.4,54,0.00,,,0.00,VWS V14.01,2013-03-01 04:43:00,
2013-02-28 23:44:00,21.2,7.2,29.35,ENE,68,3.1,3.1,54,0.00,,,0.00,VWS V14.01,2013-03-01 04:44:00,
2013-02-28 23:45:00,22.5,8.3,29.35,ENE,68,2.7,5.8,54,0.00,,,0.00,VWS V14.01,2013-03-01 04:45:00,
2013-02-28 23:46:00,21.2,7.2,29.35,ENE,68,4.9,4.9,54,0.00,,,0.00,VWS V14.01,2013-03-01 04:46:00,
2013-02-28 23:47:00,22.3,8.2,29.35,NE,45,6.9,6.9,54,0.00,,,0.00,VWS V14.01,2013-03-01 04:47:00,
2013-02-28 23:48:00,22.3,8.2,29.35,NNE,22,3.8,6.9,54,0.00,,,0.00,VWS V14.01,2013-03-01 04:48:00,
2013-02-28 23:49:00,22.3,8.2,29.35,NE,45,3.1,3.8,54,0.00,,,0.00,VWS V14.01,2013-03-01 04:49:00,
2013-02-28 23:50:00,22.3,8.2,29.35,NE,45,4.3,4.3,54,0.00,,,0.00,VWS V14.01,2013-03-01 04:50:00,
2013-02-28 23:51:00,21.0,7.4,29.35,NE,45,4.7,4.7,55,0.00,,,0.00,VWS V14.01,2013-03-01 04:51:00,
2013-02-28 23:52:00,21.0,7.4,29.35,NNE,22,2.2,4.7,55,0.00,,,0.00,VWS V14.01,2013-03-01 04:52:00,
2013-02-28 23:53:00,21.0,7.4,29.35,NE,45,3.6,3.6,55,0.00,,,0.00,VWS V14.01,2013-03-01 04:53:00,
2013-02-28 23:54:00,21.0,7.4,29.38,NE,45,4.0,4.0,55,0.00,,,0.00,VWS V14.01,2013-03-01 04:54:00,
2013-02-28 23:55:00,22.1,8.0,29.35,NE,45,2.7,3.8,54,0.00,,,0.00,VWS V14.01,2013-03-01 04:55:00,
2013-02-28 23:56:00,21.0,7.4,29.38,NNE,22,2.7,3.8,55,0.00,,,0.00,VWS V14.01,2013-03-01 04:56:00,
2013-02-28 23:57:00,21.0,7.4,29.38,NE,45,2.5,2.7,55,0.00,,,0.00,VWS V14.01,2013-03-01 04:57:00,
2013-02-28 23:58:00,21.0,7.4,29.38,ENE,68,4.5,4.5,55,0.00,,,0.00,VWS V14.01,2013-03-01 04:58:00,
2013-02-28 23:59:00,21.0,7.8,29.38,NE,45,2.9,4.5,56,0.00,,,0.00,VWS V14.01,2013-03-01 04:59:00,